Date StartTime U_cm/s V_cm/s W_cm/s Ustd_cm/s Vstd_cm/s Wstd_cm/s Uvar_(cm/s)^2 Vvar_(cm/s)^2 Wvar_(cm/s)^2 KE_(m/s)^2 TurbulentKE_(m/s)^2 HorizWindSpeed_cm/s FrictionSpeec_cm/s DragCoef SpeedOfSound_m/s SonicTemperature_C Pressure_mb 
10/07/2014  00:00:00      -88.093      -21.067      -14.448       10.818       15.275       12.462      117.038      233.326      155.295        0.446        0.025       90.577        7.248        0.006      341.099       15.577      862.714
10/07/2014  00:01:00      -69.524      -19.270      -12.177       12.937       15.048       11.354      167.377      226.448      128.924        0.294        0.026       72.145        5.678        0.006      341.134       15.637      862.716
10/07/2014  00:02:00      -76.841      -11.594       -9.116       13.979       14.202       15.822      195.419      201.699      250.321        0.338        0.032       77.711        4.919        0.004      341.161       15.683      862.729
10/07/2014  00:03:00      -71.314      -31.723      -14.462       14.387       14.610       10.367      206.994      213.455      107.470        0.341        0.026       78.051        3.998        0.003      341.146       15.656      862.739
10/07/2014  00:04:00      -78.001      -36.904      -18.071       12.414       17.068       10.727      154.116      291.313      115.074        0.417        0.028       86.290        2.726        0.001      341.026       15.454      862.750
10/07/2014  00:05:00     -100.676      -46.798      -17.694       20.992       19.393        9.734      440.647      376.073       94.750        0.678        0.046      111.022        6.440        0.003      340.905       15.248      862.757
10/07/2014  00:06:00     -114.933      -45.640      -17.399       10.249       15.288        9.038      105.040      233.724       81.678        0.801        0.021      123.663        3.919        0.001      340.998       15.407      862.764
10/07/2014  00:07:00     -105.398      -46.458      -17.895       14.072       12.775        8.572      198.010      163.204       73.472        0.701        0.022      115.183        8.224        0.005      341.094       15.569      862.769
10/07/2014  00:08:00      -88.498      -45.018      -17.344        9.180       14.867       10.735       84.265      221.014      115.241        0.529        0.021       99.290        6.084        0.004      341.119       15.611      862.776
10/07/2014  00:09:00      -88.782      -39.753      -12.290        8.491        8.819        8.879       72.090       77.768       78.833        0.492        0.011       97.275        5.052        0.003      341.189       15.728      862.779
10/07/2014  00:10:00      -96.945      -44.659       -8.159        7.965       10.162        6.926       63.437      103.276       47.972        0.584        0.011      106.737        2.791        0.001      341.095       15.570      862.780
10/07/2014  00:11:00     -100.745      -37.854      -15.898        9.070        8.497        7.479       82.256       72.193       55.940        0.602        0.011      107.622        2.880        0.001      340.942       15.311      862.791
10/07/2014  00:12:00     -112.071      -60.813       -6.733       34.893       33.069       23.218     1217.488     1093.552      539.058        0.958        0.143      127.507       13.843        0.012      340.801       15.073      862.803
10/07/2014  00:13:00     -117.682      -68.204       -5.454       30.319       17.943       21.542      919.241      321.950      464.050        1.012        0.085      136.018       18.052        0.018      340.684       14.875      862.797
10/07/2014  00:14:00     -121.572      -54.276       -8.839       24.015       17.674       12.277      576.728      312.372      150.734        0.942        0.052      133.138       11.647        0.008      340.842       15.141      862.791
10/07/2014  00:15:00     -119.270      -50.087      -22.273       12.554       17.013       11.285      157.600      289.431      127.360        0.890        0.029      129.360        3.206        0.001      340.895       15.231      862.783
10/07/2014  00:16:00     -108.794      -39.841      -12.743       17.932       14.376       10.733      321.542      206.661      115.193        0.711        0.032      115.859        9.190        0.006      340.964       15.347      862.786
10/07/2014  00:17:00     -110.193      -18.242      -15.510       12.208       12.566       11.100      149.044      157.894      123.213        0.657        0.022      111.693        8.066        0.005      340.916       15.267      862.781
10/07/2014  00:18:00     -106.247      -17.135      -18.531       16.363       14.724       11.248      267.737      216.791      126.508        0.627        0.031      107.620        7.101        0.004      340.876       15.200      862.777
10/07/2014  00:19:00     -110.406      -21.202      -13.442       25.899       20.078       15.621      670.750      403.143      244.017        0.707        0.066      112.423       15.155        0.018      340.816       15.097      862.776
10/07/2014  00:20:00     -140.744      -26.399      -17.646       25.879       16.693       13.220      669.713      278.656      174.770        1.097        0.056      143.198       14.580        0.010      340.744       14.975      862.785
10/07/2014  00:21:00     -127.138      -70.188      -13.564       22.658       24.456       15.667      513.381      598.103      245.463        1.132        0.068      145.226       12.198        0.007      340.695       14.893      862.802
10/07/2014  00:22:00     -108.021      -76.645       -1.088       43.145       26.101       21.207     1861.459      681.245      449.736        1.027        0.150      132.450       18.409        0.019      340.650       14.817      862.815
10/07/2014  00:23:00     -101.487      -48.874       -3.746       26.742       30.276       19.839      715.144      916.650      393.568        0.736        0.101      112.642       15.797        0.020      340.865       15.179      862.820
10/07/2014  00:24:00      -94.535      -30.802       -5.528       16.746       21.104       10.749      280.441      445.380      115.548        0.538        0.042       99.427        6.503        0.004      340.847       15.149      862.818
10/07/2014  00:25:00      -96.000      -33.496      -10.513       11.416       17.412       15.358      130.322      303.195      235.868        0.556        0.033      101.676       10.801        0.011      340.873       15.193      862.826
10/07/2014  00:26:00     -111.859      -31.647      -10.506       14.069       15.543       15.240      197.940      241.577      232.271        0.715        0.034      116.249        5.548        0.002      340.807       15.083      862.834
10/07/2014  00:27:00     -115.364      -24.555      -15.310       13.790       12.718        9.638      190.165      161.759       92.890        0.730        0.022      117.948        3.424        0.001      340.772       15.023      862.837
10/07/2014  00:28:00     -131.261      -36.387      -19.408       13.331       15.269       14.386      177.718      233.131      206.957        0.977        0.031      136.211       10.673        0.006      340.709       14.915      862.838
10/07/2014  00:29:00     -117.472      -33.030      -19.677       11.973       15.631       12.045      143.344      244.337      145.088        0.791        0.027      122.028        7.982        0.004      340.523       14.601      862.844
10/07/2014  00:30:00     -124.890      -30.602      -17.482       21.363       24.539       14.607      456.395      602.151      213.365        0.906        0.064      128.584       15.302        0.014      340.527       14.608      862.839
10/07/2014  00:31:00     -128.694      -28.473      -16.989       16.629       29.629       12.124      276.529      877.888      146.995        0.948        0.065      131.806        8.786        0.004      340.479       14.527      862.829
10/07/2014  00:32:00     -108.485      -23.602      -18.920       14.779       19.414       12.314      218.418      376.896      151.636        0.672        0.037      111.023        9.264        0.007      340.645       14.807      862.827
10/07/2014  00:33:00     -104.759      -41.689      -18.211       24.778       22.093       12.439      613.936      488.097      154.738        0.715        0.063      112.750        9.633        0.007      340.471       14.514      862.823
10/07/2014  00:34:00     -122.294      -42.270      -13.855       17.928       18.917       12.016      321.399      357.860      144.393        0.888        0.041      129.393       10.429        0.006      340.542       14.634      862.824
10/07/2014  00:35:00     -118.126      -60.942      -16.977       19.341       19.336       13.985      374.080      373.894      195.586        0.945        0.047      132.920        6.187        0.002      340.511       14.582      862.823
10/07/2014  00:36:00     -152.056      -65.127      -11.754       29.907       26.089       14.258      894.425      680.651      203.278        1.464        0.089      165.417       10.687        0.004      340.590       14.714      862.809
10/07/2014  00:37:00     -122.830      -52.071       -9.293       25.419       21.150       14.428      646.110      447.304      208.168        0.959        0.065      133.411       12.503        0.009      340.614       14.756      862.803
10/07/2014  00:38:00     -111.102      -63.067       -4.444       36.177       33.366       20.000     1308.755     1113.264      399.991        0.958        0.141      127.754       18.191        0.020      340.735       14.959      862.807
10/07/2014  00:39:00     -101.878      -68.220      -11.294       23.770       24.995       13.580      565.018      624.731      184.424        0.827        0.069      122.610        8.872        0.005      340.676       14.861      862.795
10/07/2014  00:40:00     -118.708      -62.766       -8.218       22.088       20.169       14.500      487.882      406.809      210.243        0.960        0.055      134.280       10.794        0.006      340.560       14.664      862.796
10/07/2014  00:41:00     -120.150      -59.514      -12.360       18.009       28.734       14.002      324.337      825.654      196.047        0.974        0.067      134.082        8.496        0.004      340.473       14.516      862.809
10/07/2014  00:42:00     -101.641      -14.268      -12.301       22.359       13.941       10.541      499.941      194.348      111.113        0.575        0.040      102.638       11.667        0.013      340.528       14.608      862.797
10/07/2014  00:43:00     -100.342       -9.184      -11.564       14.421       23.308       11.674      207.952      543.253      136.290        0.559        0.044      100.762        6.449        0.004      340.593       14.721      862.783
10/07/2014  00:44:00     -125.906      -11.792      -19.697       12.774       10.357        7.855      163.175      107.265       61.693        0.836        0.017      126.457        4.382        0.001      340.984       15.382      862.785
10/07/2014  00:45:00     -130.656      -16.635      -13.788       20.547       14.514       12.080      422.162      210.659      145.917        0.916        0.039      131.711        8.387        0.004      340.634       14.790      862.792
10/07/2014  00:46:00     -139.621      -68.258      -17.101       18.586       25.230       12.597      345.432      636.568      158.685        1.279        0.057      155.413        8.554        0.003      340.362       14.331      862.796
10/07/2014  00:47:00     -160.594      -67.693      -15.595       16.690       16.807       12.487      278.541      282.465      155.918        1.567        0.036      174.278        7.131        0.002      340.239       14.122      862.802
10/07/2014  00:48:00     -129.390      -27.682      -18.668       38.765       20.237       17.385     1502.725      409.533      302.245        1.004        0.111      132.318       18.942        0.020      340.117       13.915      862.804
10/07/2014  00:49:00      -71.733       -9.839       -3.232       29.435       23.499       16.090      866.409      552.187      258.879        0.346        0.084       72.405       14.657        0.041      340.124       13.928      862.797
10/07/2014  00:50:00      -82.346       -9.706      -16.048       17.153       14.233       13.790      294.230      202.587      190.172        0.391        0.034       82.916        7.072        0.007      340.358       14.323      862.777
10/07/2014  00:51:00     -114.676      -23.112      -19.948       12.775       14.452       10.048      163.212      208.860      100.962        0.728        0.024      116.981        4.268        0.001      340.664       14.841      862.770
10/07/2014  00:52:00     -144.946      -45.296      -19.642       10.003       13.001        8.103      100.056      169.013       65.657        1.189        0.017      151.859        7.778        0.003      340.450       14.479      862.779
10/07/2014  00:53:00     -153.908      -63.184      -10.994       18.930       18.315       13.004      358.339      335.454      169.107        1.433        0.043      166.373        9.869        0.004      340.348       14.305      862.766
10/07/2014  00:54:00     -148.554      -46.288      -13.202       21.821       21.902       14.513      476.158      479.698      210.623        1.278        0.058      155.599       10.573        0.005      340.321       14.262      862.766
10/07/2014  00:55:00     -109.925      -12.085       -7.833       43.999       25.645       20.650     1935.874      657.664      426.437        0.765        0.151      110.587       21.840        0.039      340.165       13.997      862.770
10/07/2014  00:56:00      -72.480      -15.274        5.793       43.372       30.090       20.651     1881.101      905.425      426.466        0.437        0.161       74.072       22.969        0.096      340.127       13.932      862.761
10/07/2014  00:57:00      -60.687      -36.133        1.959       52.591       30.151       20.240     2765.811      909.062      409.674        0.454        0.204       70.629       18.219        0.067      340.177       14.017      862.759
10/07/2014  00:58:00      -66.016      -28.146       -7.068       38.860       26.447       20.047     1510.084      699.424      401.889        0.391        0.131       71.765       19.966        0.077      340.301       14.227      862.771
10/07/2014  00:59:00      -60.687      -53.643      -11.478       37.838       26.898       23.975     1431.744      723.519      574.809        0.471        0.137       80.996       25.214        0.097      340.320       14.259      862.775
10/07/2014  01:00:00     -130.660      -49.707      -15.532       19.204       20.979       11.840      368.779      440.099      140.182        1.037        0.047      139.796        9.273        0.004      340.358       14.323      862.781
10/07/2014  01:01:00     -130.598      -53.899      -11.017       20.367       22.083       16.450      414.800      487.641      270.598        1.063        0.059      141.284       11.920        0.007      340.361       14.329      862.806
10/07/2014  01:02:00     -125.596      -15.143      -16.794       22.859       20.521       16.838      522.515      421.098      283.516        0.876        0.061      126.505        9.955        0.006      340.351       14.313      862.818
10/07/2014  01:03:00     -104.136      -37.804      -12.599       13.146       19.009       12.722      172.819      361.336      161.837        0.656        0.035      110.785        8.737        0.006      340.301       14.225      862.819
10/07/2014  01:04:00     -111.444      -64.121      -12.438       13.843        9.777        9.748      191.615       95.583       95.030        0.853        0.019      128.574        6.788        0.003      340.320       14.258      862.826
10/07/2014  01:05:00     -116.839      -67.302       -7.343       24.039       15.746       18.320      577.854      247.927      335.620        0.970        0.058      134.837       16.051        0.014      340.431       14.446      862.839
10/07/2014  01:06:00      -79.056      -55.136        3.686       38.612       26.290       21.742     1490.899      691.172      472.726        0.598        0.133       96.384       22.128        0.053      340.264       14.164      862.840
10/07/2014  01:07:00      -86.980      -67.499       -5.270       30.608       23.307       15.771      936.880      543.207      248.728        0.694        0.086      110.099       12.184        0.012      340.319       14.257      862.845
10/07/2014  01:08:00      -69.425      -58.483       -5.334       28.291       14.325       12.701      800.403      205.216      161.315        0.472        0.058       90.774       13.041        0.021      340.343       14.297      862.845
10/07/2014  01:09:00      -48.657      -23.072        1.625       26.355       22.199       19.230      694.598      492.807      369.774        0.223        0.078       53.850       17.682        0.108      340.293       14.214      862.849
10/07/2014  01:10:00      -81.260      -45.346       -5.182       31.081       19.918       18.452      966.002      396.741      340.482        0.519        0.085       93.056       12.144        0.017      340.274       14.181      862.847
10/07/2014  01:11:00      -90.772      -40.262       -2.764       28.260       13.959       13.081      798.639      194.864      171.108        0.552        0.058       99.301       10.783        0.012      340.196       14.050      862.848
10/07/2014  01:12:00     -110.939      -26.011      -17.381       10.451       11.946        8.901      109.214      142.696       79.225        0.681        0.017      113.947        4.341        0.001      340.180       14.023      862.856
10/07/2014  01:13:00     -124.973      -49.969      -12.408       10.253       10.341        6.323      105.129      106.934       39.982        0.926        0.013      134.593        3.317        0.001      340.261       14.158      862.864
10/07/2014  01:14:00     -133.934      -42.325      -11.180       21.324       18.564       14.331      454.695      344.629      205.382        1.043        0.050      140.463       12.440        0.008      340.294       14.215      862.866
10/07/2014  01:15:00     -121.032      -84.576       -4.394       51.592       33.602       18.928     2661.762     1129.074      358.284        1.298        0.207      147.655       22.294        0.023      340.239       14.121      862.875
10/07/2014  01:16:00     -139.353      -70.646       -3.646       40.359       21.762       18.140     1628.864      473.591      329.043        1.343        0.122      156.237        8.290        0.003      340.206       14.066      862.881
10/07/2014  01:17:00     -121.125      -33.655      -11.132       33.270       22.767       15.656     1106.904      518.334      245.106        0.890        0.094      125.713       11.556        0.008      340.334       14.282      862.878
10/07/2014  01:18:00      -95.156      -45.250       -3.905       24.235       17.600       12.577      587.351      309.773      158.190        0.609        0.053      105.367       12.949        0.015      340.409       14.411      862.868
10/07/2014  01:19:00     -124.988      -60.049       -6.287       29.509       19.718       15.605      870.792      388.817      243.514        1.039        0.075      138.665       10.832        0.006      340.284       14.198      862.863
10/07/2014  01:20:00     -116.682      -29.159      -10.243       27.306       21.539       14.475      745.599      463.933      209.528        0.799        0.071      120.270        7.765        0.004      340.270       14.175      862.854
10/07/2014  01:21:00     -121.359      -51.683        1.503       37.385       31.754       18.313     1397.615     1008.338      335.375        1.007        0.137      131.906       16.052        0.015      340.121       13.922      862.865
10/07/2014  01:22:00     -146.062      -57.236        5.803       58.235       34.999       24.195     3391.356     1224.947      585.421        1.492        0.260      156.876       21.447        0.019      340.132       13.941      862.880
10/07/2014  01:23:00     -149.448      -71.158        0.545       51.861       27.751       21.336     2689.599      770.100      455.235        1.566        0.196      165.524       22.592        0.019      340.103       13.894      862.883
10/07/2014  01:24:00      -98.059      -43.669       -0.409       30.463       22.306       15.492      928.003      497.544      239.992        0.659        0.083      107.343       14.812        0.019      340.189       14.037      862.883
10/07/2014  01:25:00      -96.652      -16.917      -12.554       14.505       10.712        8.259      210.402      114.744       68.209        0.509        0.020       98.121        6.713        0.005      340.288       14.204      862.882
10/07/2014  01:26:00     -117.236      -36.379      -14.315       24.191       20.524        8.275      585.200      421.222       68.467        0.817        0.054      122.750        5.355        0.002      340.355       14.317      862.879
10/07/2014  01:27:00     -132.922      -80.920       -6.082       31.160       22.917       19.521      970.971      525.189      381.055        1.306        0.094      155.616       13.400        0.007      340.152       13.975      862.882
10/07/2014  01:28:00      -65.703      -31.110        4.236       47.424       32.114       20.462     2249.053     1031.293      418.678        0.450        0.185       72.696       18.987        0.068      340.175       14.013      862.888
10/07/2014  01:29:00      -75.665      -26.871        0.057       27.541       22.565       14.954      758.510      509.173      223.622        0.397        0.075       80.295       13.125        0.027      340.227       14.101      862.905
10/07/2014  01:30:00     -141.663      -60.068       -3.113       43.689       33.241       17.121     1908.685     1104.965      293.142        1.350        0.165      153.872       16.589        0.012      340.056       13.814      862.907
10/07/2014  01:31:00     -117.236      -30.354        4.360       49.477       29.349       21.291     2447.990      861.369      453.291        0.922        0.188      121.102       21.565        0.032      339.978       13.681      862.902
10/07/2014  01:32:00     -106.534      -36.385       -2.694       27.647       22.244       17.230      764.373      494.812      296.858        0.712        0.078      112.576       15.949        0.020      339.931       13.603      862.901
10/07/2014  01:33:00     -125.674      -50.083       -4.576       24.348       25.642       16.958      592.807      657.489      287.557        0.993        0.077      135.285       12.759        0.009      339.943       13.622      862.905
10/07/2014  01:34:00      -95.803      -39.432        1.823       38.031       30.778       18.200     1446.393      947.297      331.225        0.673        0.136      103.601       16.663        0.026      340.016       13.745      862.912
10/07/2014  01:35:00      -66.802      -44.115        5.740       29.555       25.968       15.840      873.519      674.359      250.899        0.412        0.090       80.054       14.808        0.034      340.007       13.730      862.916
10/07/2014  01:36:00      -85.972      -26.994       -3.681       31.052       20.333       13.959      964.251      413.417      194.849        0.485        0.079       90.111       13.550        0.023      339.951       13.636      862.911
10/07/2014  01:37:00     -108.581      -31.010      -13.716       30.924       15.529       10.214      956.286      241.151      104.316        0.712        0.065      112.923       10.149        0.008      339.875       13.510      862.921
10/07/2014  01:38:00     -123.640      -65.763       -6.486       22.217       17.464       16.173      493.616      304.982      261.571        1.036        0.053      140.042       13.366        0.009      339.922       13.587      862.914
10/07/2014  01:39:00     -126.634      -54.260       -2.982       27.191       25.302       15.539      739.339      640.179      241.452        1.030        0.081      137.769       17.426        0.016      339.877       13.511      862.913
10/07/2014  01:40:00     -115.675      -59.204       -5.886       31.490       27.806       13.417      991.596      773.149      180.024        0.943        0.097      129.945       11.616        0.008      339.961       13.654      862.922
10/07/2014  01:41:00      -78.900      -37.913        6.289       39.778       33.418       23.295     1582.271     1116.734      542.655        0.547        0.162       87.536       15.310        0.031      339.920       13.584      862.926
10/07/2014  01:42:00      -90.106      -47.353        1.406       48.227       30.019       23.236     2325.870      901.159      539.927        0.706        0.188      101.792       25.904        0.065      339.855       13.475      862.926
10/07/2014  01:43:00      -82.933      -48.155        3.306       53.118       30.553       21.591     2821.484      933.459      466.175        0.671        0.211       95.900       27.464        0.082      339.903       13.556      862.933
10/07/2014  01:44:00     -128.100      -48.703        0.051       30.173       21.734       20.383      910.431      472.365      415.452        1.029        0.090      137.046       18.654        0.019      339.891       13.535      862.938
10/07/2014  01:45:00     -132.745      -65.739        2.594       34.400       24.344       17.644     1183.380      592.625      311.309        1.202        0.104      148.131       16.905        0.013      339.963       13.658      862.937
10/07/2014  01:46:00     -113.313      -59.382        1.671       32.150       29.470       22.285     1033.635      868.489      496.612        0.938        0.120      127.930       19.956        0.024      339.933       13.607      862.929
10/07/2014  01:47:00      -81.359      -51.083        2.964       43.661       31.440       23.772     1906.311      988.455      565.091        0.635        0.173       96.066       23.354        0.059      339.889       13.532      862.929
10/07/2014  01:48:00      -90.881      -62.242        1.474       42.387       29.716       18.371     1796.682      883.053      337.507        0.758        0.151      110.152       14.952        0.018      339.964       13.659      862.935
10/07/2014  01:49:00      -95.727      -52.868       -0.545       47.135       24.813       17.099     2221.746      615.704      292.383        0.754        0.156      109.355       17.779        0.026      339.946       13.627      862.936
10/07/2014  01:50:00      -93.825      -51.070        2.751       53.960       37.195       20.592     2911.654     1383.442      424.051        0.807        0.236      106.824       27.515        0.066      339.907       13.562      862.931
10/07/2014  01:51:00      -85.853      -41.957        1.590       34.978       29.369       16.970     1223.485      862.528      287.978        0.575        0.119       95.557       17.064        0.032      339.893       13.539      862.921
10/07/2014  01:52:00     -134.851      -62.039       -8.993       20.711       26.902       15.020      428.933      723.720      225.599        1.175        0.069      148.437        6.749        0.002      339.951       13.635      862.911
10/07/2014  01:53:00     -121.970      -60.619       -3.402       26.720       19.969       15.910      713.983      398.749      253.124        0.996        0.068      136.203        8.294        0.004      339.828       13.429      862.915
10/07/2014  01:54:00     -126.575      -35.304      -12.847       20.209       19.764       15.287      408.420      390.621      233.689        0.923        0.052      131.406       10.839        0.007      339.626       13.088      862.906
10/07/2014  01:55:00     -120.612      -28.115       -3.475       31.044       22.433       17.748      963.741      503.258      314.988        0.857        0.089      123.846       17.135        0.019      339.556       12.970      862.898
10/07/2014  01:56:00     -115.163      -26.608       -4.634       37.601       19.261       16.753     1413.826      370.979      280.668        0.803        0.103      118.197       17.362        0.022      339.533       12.931      862.905
10/07/2014  01:57:00     -134.687      -32.020       -5.611       33.027       26.018       18.002     1090.792      676.956      324.089        1.064        0.105      138.441       17.492        0.016      339.436       12.768      862.908
10/07/2014  01:58:00     -135.249      -34.642       -7.081       29.743       24.811       18.278      884.636      615.598      334.103        1.069        0.092      139.616       16.689        0.014      339.447       12.786      862.899
10/07/2014  01:59:00     -114.824      -30.835       -3.562       44.828       29.698       20.931     2009.577      881.997      438.113        0.874        0.166      118.892       24.951        0.044      339.415       12.733      862.892
10/07/2014  02:00:00     -116.639       -4.499       -3.363       41.594       28.041       23.800     1730.102      786.319      566.437        0.836        0.154      116.725       25.234        0.047      339.447       12.787      862.893
10/07/2014  02:01:00     -138.171       -4.617       -7.781       35.737       26.834       21.589     1277.159      720.084      466.101        1.082        0.123      138.248       20.821        0.023      339.539       12.942      862.898
10/07/2014  02:02:00     -163.021       13.292      -12.505       31.393       29.047       21.867      985.527      843.744      478.184        1.461        0.115      163.562       13.387        0.007      339.606       13.055      862.887
10/07/2014  02:03:00     -196.592       37.502      -21.356       51.453       45.454       26.464     2647.388     2066.087      700.367        2.296        0.271      200.137       21.352        0.011      339.792       13.366      862.879
10/07/2014  02:04:00     -117.652       19.929      -18.128       37.967       44.657       21.871     1441.500     1994.257      478.354        0.924        0.196      119.328       13.136        0.012      339.697       13.208      862.886
10/07/2014  02:05:00      -67.220      -45.827        4.303       49.058       46.716       25.396     2406.659     2182.429      644.979        0.593        0.262       81.355       21.917        0.073      339.652       13.133      862.883
10/07/2014  02:06:00     -141.013      -66.025       -6.261       36.844       38.770       23.470     1357.510     1503.100      550.833        1.385        0.171      155.705       16.362        0.011      339.568       12.991      862.881
10/07/2014  02:07:00     -130.705      -35.881       -2.636       57.900       42.649       29.331     3352.357     1818.974      860.335        1.220        0.302      135.540       33.360        0.061      339.554       12.966      862.892
10/07/2014  02:08:00     -108.899      -11.166       -0.316       56.879       28.709       20.658     3235.176      824.228      426.742        0.823        0.224      109.470       27.254        0.062      339.516       12.903      862.890
10/07/2014  02:09:00      -89.255       -4.658        2.852       52.768       36.213       25.952     2784.431     1311.359      673.522        0.638        0.238       89.376       27.858        0.097      339.537       12.938      862.879
10/07/2014  02:10:00      -76.815      -35.563       -0.258       37.076       31.927       16.925     1374.647     1019.306      286.463        0.492        0.134       84.648       14.934        0.031      339.567       12.988      862.877
10/07/2014  02:11:00      -68.305      -29.142        1.164       26.890       20.415       15.154      723.086      416.768      229.629        0.344        0.068       74.262        6.257        0.007      339.635       13.104      862.867
10/07/2014  02:12:00      -87.294      -53.869      -10.735       24.716       35.317       19.471      610.894     1247.280      379.127        0.644        0.112      102.577        6.735        0.004      339.626       13.089      862.862
10/07/2014  02:13:00      -77.980      -53.777       -3.362       59.173       30.680       23.827     3501.496      941.251      567.710        0.700        0.251       94.725       31.456        0.110      339.624       13.085      862.852
10/07/2014  02:14:00     -124.534      -47.272        1.550       36.037       36.251       22.210     1298.666     1314.102      493.274        1.043        0.155      133.204       17.152        0.017      339.612       13.065      862.861
10/07/2014  02:15:00     -108.268      -30.041       -2.997       44.674       41.693       17.668     1995.724     1738.314      312.160        0.834        0.202      112.359       17.001        0.023      339.603       13.049      862.857
10/07/2014  02:16:00     -105.281      -36.013       -2.762       36.752       32.601       20.738     1350.717     1062.850      430.054        0.762        0.142      111.270       14.878        0.018      339.625       13.088      862.854
10/07/2014  02:17:00     -110.680      -22.493        1.537       58.034       34.655       32.464     3367.916     1200.967     1053.934        0.919        0.281      112.942       33.610        0.089      339.650       13.129      862.857
10/07/2014  02:18:00      -95.996       13.226       -4.693       59.594       41.758       25.914     3551.483     1743.732      671.529        0.769        0.298       96.902       26.936        0.077      339.669       13.161      862.876
10/07/2014  02:19:00      -91.240      -17.491        4.025       67.070       43.605       28.692     4498.406     1901.400      823.210        0.793        0.361       92.902       26.949        0.084      339.640       13.112      862.878
10/07/2014  02:20:00      -22.737        2.608        1.629       43.024       30.869       25.627     1851.106      952.906      656.760        0.199        0.173       22.886       24.389        1.136      339.637       13.106      862.885
10/07/2014  02:21:00      -40.633      -10.525        4.399       37.617       27.054       22.388     1415.059      731.928      501.239        0.221        0.132       41.974       20.708        0.243      339.629       13.093      862.899
10/07/2014  02:22:00      -22.784        1.273       -1.027       34.080       29.229       17.082     1161.454      854.363      291.810        0.141        0.115       22.820       14.385        0.397      339.574       13.002      862.909
10/07/2014  02:23:00      -80.488       -8.118       -2.485       42.088       30.594       19.820     1771.370      935.985      392.817        0.482        0.155       80.896       20.707        0.066      339.528       12.924      862.913
10/07/2014  02:24:00      -29.428      -23.548        4.030       18.933       12.682       10.981      358.462      160.845      120.592        0.104        0.032       37.690       10.519        0.078      339.528       12.924      862.914
10/07/2014  02:25:00      -73.884      -32.897       -5.754       18.991       17.668       13.195      360.660      312.152      174.103        0.371        0.042       80.877        9.444        0.014      339.696       13.208      862.914
10/07/2014  02:26:00      -75.373      -29.807       -7.222       16.079       17.496       14.398      258.542      306.125      207.313        0.370        0.039       81.052       12.673        0.024      339.720       13.248      862.902
10/07/2014  02:27:00      -60.451      -30.295        0.516       19.228       18.858       12.201      369.706      355.618      148.869        0.272        0.044       67.617       10.046        0.022      339.724       13.254      862.893
10/07/2014  02:28:00      -66.954      -33.707       -4.897       26.065       19.807       13.727      679.382      392.331      188.439        0.345        0.063       74.960       12.515        0.028      339.821       13.418      862.893
10/07/2014  02:29:00      -87.711      -22.713       -7.072       25.151       14.443        9.841      632.562      208.607       96.854        0.460        0.047       90.604        9.993        0.012      339.885       13.526      862.881
10/07/2014  02:30:00      -81.258      -28.368       -1.804       19.396       14.133       10.304      376.211      199.742      106.167        0.405        0.034       86.067        9.339        0.012      339.840       13.450      862.867
10/07/2014  02:31:00      -87.557      -45.749       -0.676       21.939       29.000       11.777      481.320      840.979      138.703        0.561        0.073       98.789        9.454        0.009      339.735       13.272      862.866
10/07/2014  02:32:00     -101.770      -35.441       -3.294       26.380       22.950       13.924      695.926      526.722      193.865        0.652        0.071      107.764       13.142        0.015      339.741       13.282      862.862
10/07/2014  02:33:00      -88.550      -30.128        1.114       34.176       27.393       14.924     1168.015      750.395      222.713        0.545        0.107       93.535       14.811        0.025      339.631       13.097      862.877
10/07/2014  02:34:00     -108.723      -45.172       -3.430       15.733       16.089       12.525      247.538      258.868      156.874        0.727        0.033      117.734        8.677        0.005      339.600       13.045      862.877
10/07/2014  02:35:00     -127.987      -52.971       -7.446       12.915       10.431        7.665      166.798      108.810       58.752        0.979        0.017      138.516        6.166        0.002      339.748       13.293      862.877
10/07/2014  02:36:00     -137.076      -49.570       -4.164       18.303       12.139       10.267      335.006      147.352      105.409        1.093        0.029      145.763        9.955        0.005      339.834       13.440      862.882
10/07/2014  02:37:00     -124.783      -59.328      -11.835       15.584       13.756       12.206      242.863      189.238      148.984        0.991        0.029      138.169        7.562        0.003      339.679       13.179      862.885
10/07/2014  02:38:00     -138.019      -40.412       -5.914       13.887       12.781        9.551      192.859      163.361       91.230        1.058        0.022      143.813        6.732        0.002      339.611       13.063      862.879
10/07/2014  02:39:00     -118.795      -29.791      -11.278       30.990       19.754       16.635      960.402      390.203      276.724        0.838        0.081      122.474       16.631        0.018      339.522       12.912      862.876
10/07/2014  02:40:00     -106.178      -34.491      -10.106       16.068       20.963       12.934      258.177      439.459      167.281        0.672        0.043      111.640        9.096        0.007      339.426       12.751      862.874
10/07/2014  02:41:00     -109.310      -34.199       -7.662       24.812       16.668       14.056      615.653      277.813      197.572        0.713        0.055      114.535       12.825        0.013      339.391       12.692      862.873
10/07/2014  02:42:00     -139.283      -34.004      -19.799       15.343       13.387       12.279      235.398      179.223      150.765        1.076        0.028      143.374        7.897        0.003      339.398       12.704      862.862
10/07/2014  02:43:00      -98.347      -31.664      -12.859       16.423       15.319       11.447      269.705      234.663      131.025        0.574        0.032      103.319        8.712        0.007      339.422       12.745      862.848
10/07/2014  02:44:00      -76.118      -37.048      -11.326       23.350       23.196       15.598      545.226      538.076      243.300        0.431        0.066       84.655       14.873        0.031      339.467       12.820      862.836
10/07/2014  02:45:00      -73.395      -23.743      -12.143       24.867       20.624       17.966      618.365      425.331      322.770        0.373        0.068       77.139       14.587        0.036      339.402       12.711      862.829
10/07/2014  02:46:00      -79.116       -9.493      -15.750       30.891       18.069       13.838      954.283      326.490      191.503        0.403        0.074       79.684       16.499        0.043      339.409       12.723      862.838
10/07/2014  02:47:00      -86.542       -5.363      -18.031       15.115       24.004        9.541      228.472      576.191       91.036        0.437        0.045       86.708        6.277        0.005      339.470       12.827      862.839
10/07/2014  02:48:00     -120.665      -49.695      -18.245       18.344       32.331       15.433      336.499     1045.269      238.178        0.949        0.081      130.498       14.714        0.013      339.445       12.782      862.843
10/07/2014  02:49:00     -109.647      -73.300      -10.687       34.923       21.403       18.396     1219.605      458.089      338.403        0.976        0.101      131.892       10.247        0.006      339.280       12.504      862.846
10/07/2014  02:50:00      -80.956      -67.180      -10.834       29.151       34.613       25.105      849.808     1198.085      630.267        0.693        0.134      105.200       22.707        0.047      339.288       12.519      862.849
10/07/2014  02:51:00      -90.691      -34.843       -7.623       47.240       22.332       18.534     2231.644      498.710      343.521        0.628        0.154       97.154       20.485        0.044      339.310       12.554      862.840
10/07/2014  02:52:00     -102.740      -28.592       -7.083       30.016       22.886       21.426      900.953      523.775      459.094        0.665        0.094      106.644       19.928        0.035      339.313       12.559      862.833
10/07/2014  02:53:00      -73.255      -52.711      -12.582       22.619       18.506       16.522      511.598      342.488      272.984        0.471        0.056       90.248        9.329        0.011      339.328       12.585      862.827
10/07/2014  02:54:00      -97.588      -58.627      -15.265       26.640       28.610       13.863      709.678      818.523      192.169        0.746        0.086      113.844       13.189        0.013      339.366       12.651      862.817
10/07/2014  02:55:00      -92.769      -43.977       -8.587       15.784       18.682       14.397      249.140      349.028      207.263        0.571        0.040      102.665       10.400        0.010      339.422       12.745      862.812
10/07/2014  02:56:00      -92.433      -34.881      -12.329       14.084       13.360       10.835      198.358      178.493      117.400        0.520        0.025       98.796        5.166        0.003      339.459       12.805      862.803
10/07/2014  02:57:00     -150.462      -51.238      -14.849        9.151       13.374        7.827       83.737      178.877       61.260        1.290        0.016      158.947        5.827        0.001      339.366       12.650      862.808
10/07/2014  02:58:00     -135.572      -57.158      -17.223       14.525       18.661       10.971      210.988      348.245      120.353        1.131        0.034      147.128        6.010        0.002      339.410       12.725      862.808
10/07/2014  02:59:00     -135.667      -55.439      -13.302       18.734       10.478        8.074      350.973      109.790       65.191        1.109        0.026      146.557        5.796        0.002      339.390       12.690      862.802
10/07/2014  03:00:00     -145.309      -62.579      -19.465       23.041       25.208       18.049      530.901      635.448      325.749        1.345        0.075      158.211       11.305        0.005      339.267       12.482      862.804
10/07/2014  03:01:00      -91.844      -56.535      -12.288       22.748       20.875       14.863      517.464      435.756      220.912        0.648        0.059      107.850        5.269        0.002      339.251       12.457      862.813
10/07/2014  03:02:00      -59.071      -46.256       -3.505       30.498       33.084       23.180      930.128     1094.569      537.323        0.410        0.128       75.027       15.863        0.045      339.306       12.549      862.809
10/07/2014  03:03:00      -66.618      -53.300        0.276       38.153       34.162       19.282     1455.648     1167.047      371.804        0.514        0.150       85.316       19.967        0.055      339.237       12.435      862.795
10/07/2014  03:04:00     -103.673      -42.546      -11.618       30.725       22.975       16.442      944.018      527.850      270.342        0.722        0.087      112.064       16.804        0.022      339.369       12.655      862.783
10/07/2014  03:05:00      -92.250      -51.557      -12.656       34.285       18.897       16.753     1175.455      357.092      280.663        0.657        0.091      105.680        8.405        0.006      339.345       12.612      862.779
10/07/2014  03:06:00     -125.416      -50.094      -14.719       21.236       30.968       15.202      450.960      959.018      231.104        1.005        0.082      135.050        8.704        0.004      339.353       12.628      862.771
10/07/2014  03:07:00     -135.761      -25.098      -16.416       13.398       16.475       12.877      179.499      271.411      165.824        0.997        0.031      138.062        9.934        0.005      339.355       12.632      862.754
10/07/2014  03:08:00     -127.555      -52.883      -19.567       13.984       17.099       12.161      195.561      292.377      147.894        1.004        0.032      138.083        7.741        0.003      339.395       12.699      862.747
10/07/2014  03:09:00     -143.713      -62.613      -19.677       12.524       18.387       13.058      156.844      338.087      170.499        1.281        0.033      156.761        6.497        0.002      339.410       12.724      862.732
10/07/2014  03:10:00     -143.725      -49.396      -19.033       33.144       23.509       14.123     1098.541      552.687      199.463        1.265        0.093      151.977       16.608        0.012      339.453       12.794      862.738
10/07/2014  03:11:00     -165.773      -69.447      -19.123       20.943       15.706       11.168      438.595      246.670      124.727        1.674        0.040      179.731        8.638        0.002      339.391       12.693      862.732
10/07/2014  03:12:00     -157.389      -54.923      -12.478       20.676       16.486       13.271      427.495      271.797      176.108        1.441        0.044      166.696       10.285        0.004      339.400       12.707      862.714
10/07/2014  03:13:00     -122.075      -81.058       -8.889       41.462       29.718       20.790     1719.058      883.164      432.226        1.229        0.152      146.535       19.324        0.017      339.381       12.676      862.702
10/07/2014  03:14:00     -141.564      -57.706       -4.478       52.113       32.219       21.960     2715.741     1038.070      482.225        1.381        0.212      152.874       21.321        0.019      339.366       12.649      862.687
10/07/2014  03:15:00     -137.629      -47.568       -3.293       23.268       24.209       13.353      541.394      586.074      178.291        1.126        0.065      145.617        8.824        0.004      339.340       12.606      862.686
10/07/2014  03:16:00     -106.331      -47.329       -2.269       21.264       19.687       12.682      452.152      387.563      160.829        0.728        0.050      116.388        8.952        0.006      339.320       12.571      862.682
10/07/2014  03:17:00      -58.811      -30.194       -8.548       25.349       19.208       11.785      642.548      368.938      138.891        0.280        0.058       66.109       12.122        0.034      339.335       12.599      862.671
10/07/2014  03:18:00      -27.211      -41.828        2.581       16.445       16.734       10.230      270.445      280.043      104.655        0.158        0.033       49.900        6.937        0.019      339.449       12.789      862.666
10/07/2014  03:19:00      -56.585      -69.244       -5.584       12.842       21.047        9.738      164.906      442.966       94.830        0.437        0.035       89.423        8.640        0.009      339.595       13.036      862.687
10/07/2014  03:20:00      -51.389      -32.244       -6.057       13.120       24.820        8.054      172.142      616.029       64.865        0.229        0.043       60.668        9.910        0.027      339.562       12.980      862.691
10/07/2014  03:21:00      -44.151      -14.766       -5.267        8.927       10.422        8.488       79.689      108.614       72.046        0.123        0.013       46.554        6.411        0.019      339.555       12.968      862.703
10/07/2014  03:22:00      -39.883      -20.373       -1.204       13.227       15.411        7.045      174.965      237.506       49.628        0.123        0.023       44.785        4.979        0.012      339.540       12.943      862.721
10/07/2014  03:23:00      -32.386      -15.228        1.626       14.644       11.977        7.161      214.457      143.446       51.285        0.085        0.020       35.788        7.267        0.041      339.526       12.919      862.738
10/07/2014  03:24:00      -56.215      -22.156       -4.180       11.284        8.563        9.723      127.332       73.329       94.535        0.198        0.015       60.423        6.893        0.013      339.526       12.922      862.742
10/07/2014  03:25:00      -58.906      -19.391       -6.205        6.784        7.705        4.702       46.019       59.372       22.112        0.201        0.006       62.015        3.157        0.003      339.471       12.827      862.746
10/07/2014  03:26:00      -46.961        3.085       -5.035        9.585        9.582        9.086       91.876       91.807       82.564        0.125        0.013       47.062        4.527        0.009      339.411       12.725      862.742
10/07/2014  03:27:00      -66.901      -10.947       -7.894        8.795        8.081        6.458       77.350       65.301       41.707        0.242        0.009       67.791        5.838        0.007      339.560       12.977      862.742
10/07/2014  03:28:00      -51.373       -3.489       -7.940       12.682        6.225        4.120      160.831       38.756       16.974        0.147        0.011       51.491        3.572        0.005      339.576       13.005      862.748
10/07/2014  03:29:00      -33.935        5.974       -3.521        8.808        9.916        5.017       77.576       98.331       25.173        0.070        0.010       34.457        3.644        0.011      339.525       12.918      862.759
10/07/2014  03:30:00      -19.650       -7.767       -6.429        7.455       10.036        6.457       55.576      100.729       41.695        0.034        0.010       21.129        5.757        0.074      339.517       12.903      862.753
10/07/2014  03:31:00      -12.467       -5.806       -4.996        7.970        8.616        6.892       63.524       74.241       47.499        0.020        0.009       13.752        5.491        0.159      339.433       12.762      862.741
10/07/2014  03:32:00      -42.588      -19.431       -6.127       10.064        6.897        6.276      101.293       47.567       39.391        0.121        0.009       46.811        5.370        0.013      339.431       12.756      862.734
10/07/2014  03:33:00      -28.165      -35.959       -4.685       21.500       13.956       14.613      462.261      194.779      213.545        0.149        0.044       45.677       15.213        0.111      339.397       12.703      862.733
10/07/2014  03:34:00      -36.851      -30.669        4.743       26.724       12.090       17.978      714.170      146.173      323.211        0.175        0.059       47.944       17.613        0.135      339.364       12.648      862.739
10/07/2014  03:35:00      -39.681      -18.170       -1.103       11.044       11.783        8.166      121.979      138.834       66.690        0.112        0.016       43.644        5.558        0.016      339.281       12.505      862.736
10/07/2014  03:36:00      -50.556      -18.269       -4.673        8.857        8.613        6.545       78.447       74.179       42.831        0.155        0.010       53.756        4.601        0.007      339.326       12.581      862.740
10/07/2014  03:37:00      -59.294      -15.807       -8.179        8.418        7.915        5.254       70.859       62.650       27.603        0.200        0.008       61.365        3.889        0.004      339.268       12.484      862.740
10/07/2014  03:38:00      -63.730       -1.909       -9.299        7.059        7.516        7.435       49.836       56.494       55.280        0.216        0.008       63.758        4.501        0.005      339.301       12.539      862.738
10/07/2014  03:39:00      -78.182      -11.472       -9.830       12.997       10.263        8.861      168.934      105.325       78.511        0.335        0.018       79.020        7.342        0.009      339.297       12.532      862.734
10/07/2014  03:40:00      -89.106       -6.443       -9.287       20.518       17.106       11.366      421.001      292.620      129.197        0.446        0.042       89.338        7.409        0.007      339.214       12.393      862.727
10/07/2014  03:41:00      -88.941      -15.068      -10.965       27.079       18.796       12.443      733.250      353.307      154.834        0.475        0.062       90.209       13.047        0.021      339.210       12.387      862.716
10/07/2014  03:42:00      -95.783      -23.853      -11.422       23.769       17.941       14.872      564.963      321.873      221.182        0.549        0.055       98.708       14.111        0.020      339.051       12.119      862.711
10/07/2014  03:43:00      -66.944      -16.500       -5.237       22.383       21.111       14.005      500.992      445.675      196.129        0.296        0.057       68.948        8.618        0.016      338.986       12.008      862.710
10/07/2014  03:44:00      -49.974      -17.838       -2.494       24.560       17.365       18.910      603.203      301.553      357.588        0.204        0.063       53.062       16.591        0.098      338.943       11.938      862.709
10/07/2014  03:45:00      -59.782       -4.500       -7.122       24.603       12.580       11.195      605.305      158.249      125.330        0.227        0.044       59.951        9.939        0.027      338.913       11.887      862.710
10/07/2014  03:46:00      -30.297       -3.420      -10.291       12.304       11.890        7.898      151.387      141.373       62.375        0.070        0.018       30.489        2.131        0.005      338.938       11.930      862.699
10/07/2014  03:47:00      -13.280      -15.504        2.305       13.148        8.519        7.001      172.877       72.565       49.010        0.036        0.015       20.414        6.780        0.110      339.057       12.128      862.687
10/07/2014  03:48:00      -14.921      -15.549      -10.952       22.868       13.251        9.026      522.930      175.591       81.478        0.068        0.039       21.550        4.251        0.039      339.076       12.159      862.677
10/07/2014  03:49:00      -19.599      -21.108       -8.821       21.267       13.308        8.788      452.269      177.115       77.224        0.081        0.035       28.804        7.490        0.068      338.966       11.977      862.672
10/07/2014  03:50:00      -16.147      -22.653      -12.075       12.719       10.323        6.442      161.762      106.570       41.496        0.061        0.015       27.819        5.853        0.044      339.023       12.073      862.665
10/07/2014  03:51:00      -70.449      -15.782       -9.544       14.218        7.325        6.933      202.160       53.663       48.064        0.280        0.015       72.196        4.666        0.004      338.980       12.001      862.661
10/07/2014  03:52:00      -92.913      -26.836      -10.606        7.108        9.968        7.374       50.517       99.352       54.372        0.483        0.010       96.710        3.502        0.001      338.961       11.966      862.659
10/07/2014  03:53:00      -83.940       -9.253       -7.436       16.974       15.919        9.768      288.127      253.413       95.420        0.391        0.032       84.449        8.701        0.011      338.911       11.885      862.652
10/07/2014  03:54:00      -82.757      -15.129       -8.257       16.564       11.393       10.534      274.381      129.799      110.956        0.383        0.026       84.128       11.276        0.018      338.893       11.854      862.658
10/07/2014  03:55:00      -54.737      -12.507       -6.139       15.774       10.288        7.214      248.830      105.848       52.035        0.180        0.020       56.148        4.752        0.007      338.938       11.929      862.655
10/07/2014  03:56:00      -64.994      -15.241       -5.157       12.170       10.349        5.598      148.106      107.103       31.334        0.238        0.014       66.757        4.198        0.004      339.046       12.111      862.648
10/07/2014  03:57:00      -54.045      -21.046        0.952       20.542       15.003        8.615      421.976      225.092       74.225        0.204        0.036       57.998       10.179        0.031      339.095       12.192      862.646
10/07/2014  03:58:00       34.087      -29.521       11.950       17.932       16.325       16.263      321.566      266.517      264.499        0.151        0.043       45.093       12.615        0.078      338.868       11.812      862.647
10/07/2014  03:59:00      -21.130       -5.422        6.874       39.201       10.531       15.250     1536.726      110.904      232.573        0.120        0.094       21.814       18.918        0.752      338.840       11.766      862.650
10/07/2014  04:00:00      -37.669      -11.504       -1.333       24.257       14.034       14.670      588.416      196.940      215.202        0.128        0.050       39.386       16.374        0.173      338.968       11.980      862.647
10/07/2014  04:01:00      -63.557      -25.330       -3.746       13.634       13.026        8.774      185.894      169.666       76.979        0.256        0.022       68.418        4.503        0.004      339.057       12.129      862.648
10/07/2014  04:02:00      -48.020      -26.456        1.627       15.775       14.932        9.515      248.846      222.966       90.530        0.179        0.028       54.825        8.251        0.023      338.943       11.938      862.647
10/07/2014  04:03:00      -32.249       -5.572        0.361       15.909       14.122        8.928      253.096      199.425       79.701        0.080        0.027       32.727        8.243        0.063      338.859       11.796      862.655
10/07/2014  04:04:00      -52.003        1.960       -5.433       15.357       19.344        9.974      235.849      374.194       99.471        0.172        0.035       52.040        5.932        0.013      338.849       11.779      862.665
10/07/2014  04:05:00      -16.469      -12.456       -1.536       17.551       10.064        7.475      308.044      101.283       55.878        0.045        0.023       20.649        5.573        0.073      338.819       11.729      862.667
10/07/2014  04:06:00      -22.865      -19.450       -7.876       12.734        7.595        9.867      162.156       57.685       97.354        0.064        0.016       30.018        8.143        0.074      338.887       11.844      862.668
10/07/2014  04:07:00       -9.337       -3.420        3.038       14.840       10.283        8.027      220.220      105.731       64.430        0.025        0.020        9.944        6.307        0.402      338.822       11.736      862.664
10/07/2014  04:08:00      -57.429      -20.951       -6.505       21.062       11.452        7.695      443.611      131.148       59.213        0.221        0.032       61.131        4.457        0.005      338.813       11.720      862.659
10/07/2014  04:09:00      -84.501      -14.431      -12.369        9.338       10.454        6.813       87.191      109.293       46.414        0.387        0.012       85.725        1.991        0.001      338.794       11.687      862.670
10/07/2014  04:10:00      -75.620      -27.776      -11.034       12.639       17.274        7.697      159.746      298.398       59.243        0.356        0.026       80.560        7.741        0.009      338.857       11.792      862.668
10/07/2014  04:11:00      -50.942      -29.178        2.452       14.120       14.148       10.075      199.377      200.165      101.508        0.198        0.025       58.706        7.532        0.016      338.807       11.708      862.656
10/07/2014  04:12:00      -63.237       -9.215       -1.742       12.256       11.031        7.137      150.213      121.683       50.943        0.220        0.016       63.905        6.744        0.011      339.009       12.048      862.645
10/07/2014  04:13:00      -71.191      -19.580       -2.492       30.949       15.656       11.052      957.868      245.096      122.143        0.339        0.066       73.835       11.381        0.024      338.903       11.872      862.640
10/07/2014  04:14:00      -90.092      -15.429       -4.982       33.167       35.064       15.832     1100.077     1229.471      250.667        0.548        0.129       91.403       20.448        0.050      338.720       11.564      862.645
10/07/2014  04:15:00      -34.186       -9.770        3.992       26.566       19.853       12.509      705.769      394.142      156.481        0.127        0.063       35.554       12.541        0.124      338.709       11.544      862.655
10/07/2014  04:16:00      -71.361       -5.484       -1.915       51.101       21.822       17.982     2611.363      476.209      323.355        0.427        0.171       71.571       23.483        0.108      338.721       11.565      862.665
10/07/2014  04:17:00      -59.699        5.723       -2.043       43.924       13.747       14.791     1929.295      188.970      218.767        0.297        0.117       59.973       18.393        0.094      338.642       11.432      862.656
10/07/2014  04:18:00      -66.637      -12.155       -1.480       22.395       22.381       11.380      501.521      500.906      129.502        0.286        0.057       67.736       10.570        0.024      338.683       11.500      862.655
10/07/2014  04:19:00      -53.314       -1.132        2.103       26.706       25.630       11.267      713.224      656.877      126.938        0.217        0.075       53.326       10.830        0.041      338.734       11.585      862.670
10/07/2014  04:20:00      -88.330       19.332       -6.730       11.518       14.103        6.939      132.671      198.903       48.146        0.430        0.019       90.420        5.478        0.004      339.124       12.243      862.674
10/07/2014  04:21:00      -68.865      -22.089       -5.907       14.997       15.662        8.452      224.919      245.294       71.433        0.290        0.027       72.321        3.335        0.002      339.041       12.102      862.685
10/07/2014  04:22:00       -4.325       -0.553        9.401       12.106       15.352        7.999      146.549      235.675       63.981        0.028        0.022        4.360        8.295        3.620      338.730       11.581      862.684
10/07/2014  04:23:00        7.762        0.555       -7.694       19.638       10.953       10.953      385.649      119.968      119.976        0.037        0.031        7.782        6.582        0.715      338.726       11.573      862.674
10/07/2014  04:24:00      -40.511       -7.471       -3.545       14.116        9.106        8.582      199.269       82.918       73.646        0.103        0.018       41.194        6.248        0.023      338.701       11.532      862.672
10/07/2014  04:25:00      -43.524      -17.428      -10.933       10.148       13.491        8.391      102.983      182.004       70.412        0.134        0.018       46.884        6.129        0.017      338.885       11.842      862.673
10/07/2014  04:26:00      -29.061      -13.929       -4.165       11.516        8.434        5.345      132.626       71.132       28.566        0.064        0.012       32.227        4.384        0.019      338.926       11.909      862.671
10/07/2014  04:27:00      -11.814      -25.130       -3.616       13.474       10.372       11.343      181.551      107.579      128.664        0.060        0.021       27.768        3.945        0.020      338.809       11.713      862.667
10/07/2014  04:28:00       13.967        1.375        1.090       15.189       12.617       10.027      230.713      159.196      100.549        0.034        0.025       14.035        5.486        0.153      338.898       11.862      862.656
10/07/2014  04:29:00       20.859       37.092        1.342       14.930       19.429       10.672      222.913      377.469      113.896        0.126        0.036       42.555        9.282        0.048      339.386       12.684      862.643
10/07/2014  04:30:00        5.851       37.434       -4.312       17.515       20.082       11.037      306.775      403.283      121.810        0.114        0.042       37.888       11.249        0.088      339.302       12.542      862.648
10/07/2014  04:31:00       17.179       24.980        7.240       17.965       18.405       13.722      322.758      338.756      188.287        0.091        0.042       30.317       11.884        0.154      339.153       12.291      862.638
10/07/2014  04:32:00       36.263        4.371       -2.118       25.874       23.111       17.697      669.470      534.124      313.190        0.143        0.076       36.525       11.940        0.107      338.952       11.955      862.641
10/07/2014  04:33:00       32.144      -27.888       -6.798       23.247       15.474       13.770      540.445      239.444      189.600        0.141        0.048       42.556        3.085        0.005      338.572       11.313      862.652
10/07/2014  04:34:00       13.280      -12.762        5.884       12.033        9.363        7.255      144.784       87.659       52.636        0.033        0.014       18.418        3.510        0.036      338.568       11.307      862.661
10/07/2014  04:35:00        4.105        2.567        8.856       11.604        9.005        9.709      134.657       81.091       94.262        0.021        0.016        4.842        6.922        2.044      338.686       11.506      862.655
10/07/2014  04:36:00       14.234        0.917        5.824       13.619        9.921        8.468      185.479       98.428       71.709        0.030        0.018       14.264        5.468        0.147      338.835       11.755      862.655
10/07/2014  04:37:00       16.788      -15.148       -0.252       13.738        9.276       11.065      188.744       86.051      122.431        0.045        0.020       22.612        9.107        0.162      338.787       11.675      862.662
10/07/2014  04:38:00       26.110      -13.449      -10.310       22.922       15.113       12.232      525.406      228.390      149.617        0.094        0.045       29.370        6.043        0.042      338.774       11.654      862.669
10/07/2014  04:39:00      -33.450      -14.547       -6.122       14.720        6.299        7.451      216.674       39.673       55.516        0.084        0.016       36.476        4.477        0.015      338.765       11.640      862.674
10/07/2014  04:40:00      -76.991      -17.810      -12.599       18.756       10.946        8.076      351.805      119.812       65.228        0.347        0.027       79.024        5.107        0.004      338.585       11.337      862.674
10/07/2014  04:41:00     -107.237      -18.549      -13.283       12.021       14.204       12.001      144.511      201.759      144.013        0.626        0.025      108.830        6.331        0.003      338.465       11.135      862.677
10/07/2014  04:42:00     -117.006      -16.650      -22.285       13.790       15.103        9.299      190.159      228.093       86.470        0.748        0.025      118.184        5.670        0.002      338.510       11.211      862.682
10/07/2014  04:43:00     -113.451      -29.209      -12.128       10.525       11.229        8.646      110.782      126.084       74.760        0.709        0.016      117.150        5.130        0.002      338.622       11.399      862.693
10/07/2014  04:44:00      -75.102      -16.564       -8.963       21.300       12.364       12.533      453.680      152.858      157.083        0.338        0.038       76.907        9.607        0.016      338.597       11.355      862.695
10/07/2014  04:45:00      -64.951      -10.957       -3.132       12.875        9.689        9.444      165.772       93.882       89.190        0.235        0.017       65.869        7.877        0.014      338.663       11.468      862.693
10/07/2014  04:46:00      -75.387      -15.484       -6.092       18.277       12.896       10.634      334.049      166.310      113.078        0.329        0.031       76.961        7.964        0.011      338.658       11.457      862.687
10/07/2014  04:47:00      -82.607      -15.246       -6.498       23.234       15.430       12.159      539.840      238.071      147.847        0.401        0.046       84.002        6.951        0.007      338.594       11.351      862.695
10/07/2014  04:48:00      -84.040      -10.776       -8.310       14.270       11.938        8.777      203.627      142.520       77.038        0.384        0.021       84.728        5.132        0.004      338.608       11.376      862.698
10/07/2014  04:49:00      -75.001       -9.547      -12.534       10.216       10.829        9.705      104.375      117.264       94.181        0.309        0.016       75.606        3.210        0.002      338.608       11.375      862.707
10/07/2014  04:50:00      -73.636      -24.307      -12.248        7.505        7.309        6.428       56.319       53.417       41.316        0.316        0.008       77.544        3.844        0.002      338.659       11.460      862.711
10/07/2014  04:51:00      -75.622      -18.479      -11.769        7.219       10.408        6.218       52.116      108.321       38.667        0.320        0.010       77.847        2.468        0.001      338.681       11.497      862.717
10/07/2014  04:52:00      -83.150       -7.165      -12.158        8.535        7.594        7.190       72.848       57.667       51.694        0.365        0.009       83.458        3.753        0.002      338.690       11.513      862.729
10/07/2014  04:53:00      -86.617      -26.215       -7.547       18.463       11.415        9.444      340.870      130.300       89.194        0.440        0.028       90.498        9.861        0.012      338.602       11.365      862.744
10/07/2014  04:54:00      -91.968      -32.627      -11.918       12.266       14.416        9.733      150.467      207.817       94.736        0.506        0.023       97.584        5.667        0.003      338.566       11.303      862.753
10/07/2014  04:55:00      -86.409      -16.083      -14.770       15.203       10.915       10.862      231.138      119.132      117.989        0.421        0.023       87.894        9.259        0.011      338.557       11.289      862.764
10/07/2014  04:56:00      -80.139      -10.521      -14.378        8.951       10.031        8.148       80.122      100.613       66.387        0.349        0.012       80.826        2.654        0.001      338.561       11.296      862.772
10/07/2014  04:57:00      -99.318      -11.780      -10.702       14.207        9.999        8.266      201.831       99.973       68.322        0.524        0.019      100.015        3.417        0.001      338.556       11.288      862.797
10/07/2014  04:58:00     -115.024      -26.844      -12.869       14.147       15.223       10.134      200.137      231.733      102.699        0.733        0.027      118.115        6.185        0.003      338.511       11.214      862.812
10/07/2014  04:59:00     -107.043      -31.482       -1.576       23.724       15.333       12.362      562.849      235.093      152.813        0.670        0.048      111.577       11.583        0.011      338.506       11.204      862.820
10/07/2014  05:00:00     -106.344      -24.088       -9.564       25.103       15.859       12.415      630.147      251.519      154.133        0.651        0.052      109.038        9.753        0.008      338.475       11.151      862.820
10/07/2014  05:01:00     -116.390       -8.930      -11.832       21.940       14.511       13.261      481.385      210.576      175.853        0.732        0.043      116.732       13.419        0.013      338.347       10.936      862.825
10/07/2014  05:02:00     -116.240       -9.396       -8.087       23.511       17.391       12.159      552.761      302.451      147.834        0.733        0.050      116.620       11.315        0.009      338.437       11.088      862.830
10/07/2014  05:03:00     -103.625       -9.625       -6.463       28.371       19.971       13.745      804.914      398.829      188.927        0.613        0.070      104.071       13.905        0.018      338.458       11.124      862.837
10/07/2014  05:04:00     -131.227       -0.752      -12.209       31.686       17.446       13.511     1004.027      304.377      182.545        0.943        0.075      131.230       16.529        0.016      338.404       11.033      862.842
10/07/2014  05:05:00     -108.553        3.671       -9.912       29.942       16.618       17.771      896.544      276.147      315.794        0.669        0.074      108.615       16.383        0.023      338.300       10.859      862.845
10/07/2014  05:06:00      -93.840      -21.033      -12.935       17.041       19.933       11.302      290.398      397.316      127.731        0.512        0.041       96.168        8.496        0.008      338.262       10.795      862.847
10/07/2014  05:07:00      -72.144      -31.794       -8.060       30.518       21.940       17.384      931.334      481.358      302.203        0.400        0.086       78.840       19.079        0.059      338.302       10.861      862.854
10/07/2014  05:08:00      -43.674      -32.547       -5.632       35.590       27.371       18.751     1266.676      749.184      351.590        0.268        0.118       54.467       18.724        0.118      338.268       10.803      862.869
10/07/2014  05:09:00      -77.506      -45.816      -12.475       19.308       23.862       13.339      372.787      569.398      177.940        0.469        0.056       90.035        8.901        0.010      338.253       10.780      862.868
10/07/2014  05:10:00      -69.314      -37.320        1.303       19.255       20.491       16.827      370.747      419.881      283.155        0.364        0.054       78.723       12.600        0.026      338.252       10.776      862.865
10/07/2014  05:11:00      -51.799      -48.074        0.873       26.307       24.760       20.472      692.070      613.061      419.118        0.336        0.086       70.670       16.928        0.057      338.267       10.804      862.861
10/07/2014  05:12:00      -76.508      -50.089       -5.623       23.880       28.071       15.894      570.250      788.006      252.621        0.500        0.081       91.446       13.537        0.022      338.334       10.914      862.861
10/07/2014  05:13:00      -90.564      -24.018       -8.769       35.484       25.805       16.624     1259.097      665.908      276.374        0.553        0.110       93.695       15.787        0.028      338.457       11.122      862.866
10/07/2014  05:14:00      -94.021      -14.878       -5.002       23.050       23.849       22.075      531.314      568.757      487.319        0.534        0.079       95.191       16.488        0.030      338.429       11.074      862.863
10/07/2014  05:15:00      -95.086      -24.103       -8.314       25.077       23.575       17.457      628.833      555.801      304.754        0.559        0.074       98.094       12.663        0.017      338.406       11.035      862.860
10/07/2014  05:16:00      -93.730      -20.530       -8.674       33.459       24.205       16.678     1119.472      585.883      278.170        0.563        0.099       95.952       15.230        0.025      338.368       10.971      862.854
10/07/2014  05:17:00      -97.634      -43.848      -13.322       19.250       28.834       15.250      370.574      831.401      232.557        0.653        0.072      107.028       11.499        0.012      338.368       10.972      862.857
10/07/2014  05:18:00      -79.731      -44.516       -2.913       30.853       26.355       19.341      951.937      694.562      374.061        0.518        0.101       91.317       17.887        0.038      338.287       10.835      862.864
10/07/2014  05:19:00      -77.522      -62.240       -9.290       33.840       30.690       19.924     1145.161      941.846      396.951        0.623        0.124       99.416       16.928        0.029      338.254       10.781      862.862
10/07/2014  05:20:00      -69.752      -18.423        0.390       37.963       33.078       22.256     1441.202     1094.142      495.319        0.412        0.152       72.144       21.689        0.090      338.270       10.808      862.851
10/07/2014  05:21:00      -94.603      -46.323        3.379       30.342       33.401       19.522      920.637     1115.601      381.090        0.676        0.121      105.336       13.155        0.016      338.236       10.750      862.845
10/07/2014  05:22:00     -104.706       -7.633       -8.894       45.750       30.595       21.126     2093.094      936.064      446.326        0.729        0.174      104.984       22.384        0.045      338.245       10.766      862.851
10/07/2014  05:23:00      -71.214      -14.857        0.955       37.624       34.618       21.649     1415.566     1198.383      468.680        0.419        0.154       72.747       17.111        0.055      338.274       10.815      862.847
10/07/2014  05:24:00     -124.251        3.483       -1.830       58.125       43.137       29.556     3378.486     1860.808      873.546        1.078        0.306      124.300       32.065        0.067      338.462       11.130      862.843
10/07/2014  05:25:00     -127.635       -8.429       -1.865       52.714       45.301       32.279     2778.727     2052.216     1041.928        1.112        0.294      127.913       31.861        0.062      338.392       11.012      862.846
10/07/2014  05:26:00      -95.838       20.354        0.032       53.493       44.502       31.740     2861.484     1980.417     1007.437        0.772        0.292       97.976       32.876        0.113      338.377       10.986      862.854
10/07/2014  05:27:00     -133.276      -19.359      -10.844       45.169       44.090       26.304     2040.247     1943.894      691.885        1.146        0.234      134.675       22.702        0.028      338.393       11.014      862.860
10/07/2014  05:28:00      -55.602      -10.011        3.629       49.652       37.641       23.867     2465.344     1416.852      569.643        0.383        0.223       56.497       16.386        0.084      338.307       10.869      862.859
10/07/2014  05:29:00      -79.827       -3.532       -6.949       37.494       38.498       22.873     1405.769     1482.083      523.183        0.492        0.171       79.905       22.326        0.078      338.424       11.064      862.860
10/07/2014  05:30:00     -102.341      -26.213        4.621       42.932       42.746       25.138     1843.160     1827.221      631.944        0.774        0.215      105.644       23.996        0.052      338.408       11.037      862.872
10/07/2014  05:31:00     -139.866      -25.801      -10.376       51.280       33.114       21.195     2629.611     1096.511      449.229        1.225        0.209      142.226       23.068        0.026      338.277       10.819      862.868
10/07/2014  05:32:00     -136.032      -11.000      -10.599       33.964       21.861       17.492     1153.568      477.913      305.985        1.034        0.097      136.476       17.933        0.017      338.283       10.828      862.858
10/07/2014  05:33:00     -119.903      -22.725       -6.044       34.154       22.248       20.204     1166.524      494.981      408.218        0.850        0.103      122.037       17.886        0.021      338.222       10.727      862.856
10/07/2014  05:34:00     -132.376       -1.475       -7.917       45.030       25.944       22.119     2027.724      673.080      489.249        1.039        0.160      132.385       25.040        0.036      338.384       10.999      862.853
10/07/2014  05:35:00     -145.512       10.117       -6.415       50.024       25.459       25.070     2502.394      648.166      628.487        1.255        0.189      145.864       28.550        0.038      338.504       11.201      862.852
10/07/2014  05:36:00     -173.837       12.607      -16.910       20.103       22.039       14.217      404.124      485.725      202.124        1.588        0.055      174.294       13.012        0.006      338.608       11.374      862.859
10/07/2014  05:37:00     -179.861       18.353      -15.402       26.920       24.751       16.513      724.675      612.597      272.675        1.727        0.080      180.795       14.552        0.006      338.626       11.406      862.863
10/07/2014  05:38:00     -189.629       31.284      -16.187       28.342       21.302       17.612      803.263      453.793      310.179        1.938        0.078      192.192       14.401        0.006      338.538       11.257      862.859
10/07/2014  05:39:00     -168.418       15.337      -11.961       31.735       29.262       23.667     1007.129      856.248      560.149        1.558        0.121      169.115       21.669        0.016      338.468       11.140      862.854
10/07/2014  05:40:00     -161.468        3.128      -14.177       42.189       33.779       22.486     1779.916     1141.007      505.640        1.485        0.171      161.499       14.993        0.009      338.442       11.095      862.859
10/07/2014  05:41:00     -156.102      -40.751       -4.752       30.619       36.606       21.930      937.542     1339.999      480.924        1.440        0.138      161.333       17.324        0.012      338.386       11.001      862.866
10/07/2014  05:42:00     -130.769      -29.268       -8.002       37.685       28.606       24.305     1420.188      818.281      590.734        1.042        0.141      134.005       21.588        0.026      338.358       10.955      862.866
10/07/2014  05:43:00      -97.096      -19.551        2.742       41.509       33.285       21.168     1722.986     1107.922      448.084        0.655        0.164       99.045       21.830        0.049      338.361       10.959      862.860
10/07/2014  05:44:00     -109.625      -13.032       -2.610       35.551       28.489       22.791     1263.905      811.635      519.433        0.739        0.130      110.397       20.307        0.034      338.365       10.967      862.867
10/07/2014  05:45:00     -109.471      -12.774       -4.027       36.815       30.234       20.501     1355.332      914.085      420.283        0.743        0.134      110.214       18.263        0.027      338.374       10.983      862.862
10/07/2014  05:46:00     -109.817       -8.754      -11.731       34.680       25.251       20.062     1202.710      637.589      402.491        0.726        0.112      110.166       19.872        0.033      338.322       10.895      862.851
10/07/2014  05:47:00      -49.560       -9.671        2.855       41.913       30.319       22.968     1756.681      919.257      527.526        0.288        0.160       50.494       23.048        0.208      338.370       10.976      862.840
10/07/2014  05:48:00     -109.769      -25.089       -5.075       38.589       41.956       19.138     1489.080     1760.290      366.252        0.816        0.181      112.600       20.000        0.032      338.414       11.049      862.846
10/07/2014  05:49:00     -112.205      -21.241       -6.991       31.064       25.052       17.577      964.997      627.624      308.940        0.750        0.095      114.198       18.563        0.026      338.305       10.868      862.848
10/07/2014  05:50:00      -78.330      -53.988       -3.642       30.875       23.298       16.189      953.242      542.787      262.074        0.541        0.088       95.133       10.158        0.011      338.311       10.876      862.844
10/07/2014  05:51:00      -98.188      -57.173       -3.160       34.375       26.361       20.684     1181.652      694.888      427.848        0.761        0.115      113.621       15.294        0.018      338.375       10.984      862.845
10/07/2014  05:52:00     -103.883      -40.505        0.130       39.368       34.075       21.494     1549.879     1161.114      462.000        0.780        0.159      111.500       22.564        0.041      338.315       10.883      862.844
10/07/2014  05:53:00     -114.561      -42.715       -6.536       25.527       27.768       15.378      651.646      771.057      236.469        0.833        0.083      122.265       13.238        0.012      338.339       10.924      862.851
10/07/2014  05:54:00      -97.572      -66.363       -2.969       33.616       23.231       21.374     1130.058      539.699      456.839        0.803        0.106      118.002       19.409        0.027      338.304       10.864      862.864
10/07/2014  05:55:00      -95.129      -74.223        4.211       29.864       20.539       20.877      891.835      421.854      435.857        0.816        0.087      120.659       19.550        0.026      338.429       11.074      862.870
10/07/2014  05:56:00      -77.455      -58.239       -2.086       37.116       20.090       17.790     1377.623      403.595      316.499        0.575        0.105       96.908       18.715        0.037      338.488       11.173      862.874
10/07/2014  05:57:00      -90.939      -58.086       -5.337       35.251       18.591       14.655     1242.648      345.635      214.771        0.674        0.090      107.907       14.591        0.018      338.496       11.188      862.882
10/07/2014  05:58:00     -114.190      -62.773       -7.667       12.456       12.670        8.747      155.156      160.525       76.502        0.872        0.020      130.306        5.643        0.002      338.505       11.201      862.894
10/07/2014  05:59:00     -113.960      -60.846       -8.260       20.654       19.704       15.402      426.569      388.267      237.225        0.890        0.053      129.187       13.007        0.010      338.451       11.111      862.902
10/07/2014  06:00:00     -107.193      -48.932       -3.622       17.501       16.044       13.375      306.293      257.412      178.885        0.732        0.037      117.833        7.849        0.004      338.433       11.081      862.911
10/07/2014  06:01:00     -115.848      -55.586        0.145       36.302       30.094       18.427     1317.858      905.636      339.545        0.954        0.128      128.493       20.301        0.025      338.313       10.879      862.923
10/07/2014  06:02:00      -62.041      -43.576        2.555       40.415       27.282       22.485     1633.366      744.324      505.564        0.432        0.144       75.816       24.958        0.108      338.406       11.036      862.934
10/07/2014  06:03:00      -90.825      -45.766       -6.064       24.227       19.370       14.064      586.935      375.201      197.810        0.577        0.058      101.704       10.337        0.010      338.416       11.054      862.944
10/07/2014  06:04:00      -88.193      -54.580       -1.615       19.420       18.630       15.893      377.149      347.083      252.590        0.587        0.049      103.716       12.539        0.015      338.459       11.124      862.943
10/07/2014  06:05:00     -105.334      -48.189       -7.951       20.980       13.386       14.964      440.149      179.172      223.931        0.716        0.042      115.834       14.817        0.016      338.469       11.142      862.940
10/07/2014  06:06:00      -89.885      -44.073       -8.190       12.088       11.268        8.242      146.111      126.972       67.925        0.521        0.017      100.108        3.852        0.001      338.434       11.083      862.940
10/07/2014  06:07:00      -42.348      -33.159        3.389       33.439       15.180       12.334     1118.140      230.440      152.128        0.220        0.075       53.785       16.809        0.098      338.478       11.156      862.940
10/07/2014  06:08:00      -77.889      -43.095       -4.088       17.717       16.766       12.963      313.878      281.096      168.041        0.435        0.038       89.017       10.047        0.013      338.498       11.190      862.945
10/07/2014  06:09:00      -34.537      -33.150        6.545       29.763       23.920       14.983      885.863      572.168      224.493        0.201        0.084       47.872       13.517        0.080      338.448       11.106      862.963
10/07/2014  06:10:00      -48.382      -29.092        2.406       16.531       14.916       10.876      273.260      222.489      118.277        0.190        0.031       56.455        8.208        0.021      338.530       11.243      862.966
10/07/2014  06:11:00      -55.323      -32.622       -4.339        9.681       12.497        7.828       93.717      156.178       61.277        0.223        0.016       64.225        6.813        0.011      338.599       11.360      862.969
10/07/2014  06:12:00      -11.368      -18.955        2.382       16.899       16.363       12.199      285.584      267.732      148.826        0.060        0.035       22.102        9.837        0.198      338.507       11.206      862.967
10/07/2014  06:13:00      -34.477      -30.083        3.737       11.887       10.001        8.044      141.301      100.026       64.704        0.121        0.015       45.756        6.535        0.020      338.572       11.313      862.966
10/07/2014  06:14:00       -6.846      -46.641       -2.111       15.059       12.440       11.089      226.762      154.758      122.961        0.137        0.025       47.140        6.517        0.019      338.660       11.461      862.973
10/07/2014  06:15:00      -39.675      -30.827       -1.298       17.030       14.371        8.048      290.024      206.521       64.776        0.154        0.028       50.244        8.096        0.026      338.580       11.327      862.978
10/07/2014  06:16:00      -55.792      -36.669       -7.484       26.087       16.020       10.274      680.508      256.647      105.563        0.278        0.052       66.763        6.626        0.010      338.409       11.042      862.981
10/07/2014  06:17:00      -51.114      -44.535       -0.346       25.704       19.005       12.453      660.691      361.174      155.088        0.289        0.059       67.794       12.114        0.032      338.373       10.981      862.987
10/07/2014  06:18:00      -57.551      -18.634        0.189       18.902       11.752        9.483      357.287      138.103       89.923        0.212        0.029       60.493        7.431        0.015      338.328       10.906      862.997
10/07/2014  06:19:00      -57.352      -32.279       -3.434       16.980       13.458        8.762      288.310      181.125       76.766        0.244        0.027       65.812        6.363        0.009      338.343       10.931      863.011
10/07/2014  06:20:00      -76.347      -29.267       -7.268       14.259       16.400       12.348      203.319      268.954      152.470        0.368        0.031       81.765        5.993        0.005      338.354       10.949      863.022
10/07/2014  06:21:00      -76.404      -27.467       -2.799       11.341       12.245        8.586      128.615      149.946       73.719        0.348        0.018       81.192        5.857        0.005      338.238       10.751      863.031
10/07/2014  06:22:00      -94.902      -22.662       -9.374       16.390       14.671       10.522      268.621      215.246      110.716        0.510        0.030       97.570        6.374        0.004      338.245       10.765      863.028
10/07/2014  06:23:00      -76.885      -16.746       -9.017       19.901       19.427       11.703      396.041      377.412      136.964        0.359        0.046       78.688       10.062        0.016      338.178       10.652      863.031
10/07/2014  06:24:00      -88.671      -36.586       -3.413       33.644       19.472       11.762     1131.901      379.142      138.356        0.543        0.082       95.922       12.480        0.017      338.303       10.863      863.029
10/07/2014  06:25:00      -81.052      -27.041        1.020       35.466       24.854       14.322     1257.856      617.698      205.131        0.469        0.104       85.444       15.110        0.031      338.249       10.772      863.029
10/07/2014  06:26:00      -66.363      -40.661        4.310       46.128       23.100       15.854     2127.797      533.607      251.358        0.449        0.146       77.829       18.191        0.055      338.253       10.779      863.027
10/07/2014  06:27:00      -55.533      -42.883       -1.572       36.642       20.897       17.456     1342.614      436.701      304.725        0.350        0.104       70.163       17.927        0.065      338.277       10.820      863.029
10/07/2014  06:28:00      -81.308      -53.299       -2.016       23.325       24.749       17.780      544.042      612.495      316.130        0.546        0.074       97.220       15.484        0.025      338.349       10.940      863.028
10/07/2014  06:29:00      -63.502      -24.723        2.162       27.460       23.519       15.854      754.069      553.135      251.363        0.310        0.078       68.145       11.455        0.028      338.240       10.758      863.037
10/07/2014  06:30:00      -57.282      -70.127       -3.186       41.379       40.043       19.587     1712.186     1603.444      383.648        0.595        0.185       90.548       18.503        0.042      338.292       10.845      863.045
10/07/2014  06:31:00      -93.408      -72.460       -5.638       34.888       28.736       19.783     1217.142      825.746      391.347        0.822        0.122      118.218       17.886        0.023      338.280       10.824      863.057
10/07/2014  06:32:00      -82.182      -68.937       -0.225       28.819       27.494       20.190      830.528      755.938      407.640        0.675        0.100      107.267       15.336        0.020      338.270       10.807      863.066
10/07/2014  06:33:00      -82.497      -70.234        3.094       53.398       40.750       23.461     2851.354     1660.550      550.430        0.840        0.253      108.345       27.022        0.062      338.221       10.725      863.077
10/07/2014  06:34:00      -82.297     -107.288       -2.453       43.041       55.353       22.368     1852.537     3063.982      500.331        1.185        0.271      135.217       19.236        0.020      338.248       10.770      863.084
10/07/2014  06:35:00      -59.195      -47.807       -0.253       60.328       38.961       27.748     3639.449     1517.959      769.934        0.586        0.296       76.089       25.975        0.117      338.262       10.797      863.081
10/07/2014  06:36:00     -125.287     -118.425      -13.275       43.332       43.122       30.870     1877.620     1859.505      952.984        1.729        0.235      172.399       25.049        0.021      338.276       10.817      863.092
10/07/2014  06:37:00     -109.001     -106.587       -0.627       44.493       38.627       29.857     1979.653     1492.064      891.419        1.380        0.218      152.454       23.670        0.024      338.245       10.765      863.102
10/07/2014  06:38:00      -84.796      -85.732       -1.457       43.301       35.156       26.620     1874.985     1235.965      708.611        0.918        0.191      120.583       25.928        0.046      338.230       10.739      863.107
10/07/2014  06:39:00      -65.204     -100.890        3.521       30.035       56.103       22.053      902.088     3147.568      486.352        0.949        0.227      120.126       21.154        0.031      338.221       10.723      863.112
10/07/2014  06:40:00      -58.767      -60.373        4.453       43.336       28.586       24.299     1877.976      817.144      590.459        0.520        0.164       84.253       19.142        0.052      338.209       10.706      863.116
10/07/2014  06:41:00      -94.676      -59.043        1.263       46.188       29.108       21.841     2133.345      847.285      477.028        0.795        0.173      111.578       22.895        0.042      338.192       10.676      863.115
10/07/2014  06:42:00      -77.422      -41.467        4.667       35.384       24.615       20.089     1251.995      605.913      403.549        0.500        0.113       87.827       20.069        0.052      338.180       10.656      863.122
10/07/2014  06:43:00      -76.361      -32.033        1.403       35.769       26.998       15.684     1279.442      728.893      246.002        0.456        0.113       82.807       16.108        0.038      338.101       10.524      863.130
10/07/2014  06:44:00      -52.378      -55.508        5.793       44.823       53.011       20.984     2009.136     2810.192      440.342        0.556        0.263       76.319       25.840        0.115      338.188       10.669      863.136
10/07/2014  06:45:00      -82.766      -77.584       -8.340       25.816       21.210       16.393      666.471      449.883      268.730        0.716        0.069      113.444       14.445        0.016      338.196       10.682      863.141
10/07/2014  06:46:00      -39.749      -50.519        3.340       39.096       34.968       20.966     1528.514     1222.770      439.579        0.367        0.160       64.282       20.288        0.100      338.209       10.705      863.148
10/07/2014  06:47:00      -84.180      -80.293       -5.767       25.981       30.472       18.924      675.036      928.522      358.107        0.776        0.098      116.332       16.846        0.021      338.200       10.690      863.147
10/07/2014  06:48:00      -81.181      -74.486       -6.547       35.454       25.217       16.433     1257.019      635.898      270.050        0.717        0.108      110.175       13.209        0.014      338.221       10.724      863.147
10/07/2014  06:49:00      -73.974      -55.682       -6.037       40.645       25.536       18.439     1651.978      652.097      339.980        0.563        0.132       92.588       18.485        0.040      338.261       10.791      863.154
10/07/2014  06:50:00      -60.435      -53.628        6.992       38.261       32.189       20.898     1463.879     1036.129      436.735        0.476        0.147       80.798       17.869        0.049      338.233       10.745      863.161
10/07/2014  06:51:00      -89.990      -55.666        5.928       45.252       35.712       21.066     2047.755     1275.371      443.795        0.750        0.188      105.816       20.384        0.037      338.179       10.655      863.178
10/07/2014  06:52:00      -60.431      -49.724        5.532       48.609       30.081       22.406     2362.872      904.841      502.027        0.496        0.188       78.258       21.934        0.079      338.112       10.542      863.178
10/07/2014  06:53:00      -74.310      -27.607       -2.929       47.449       27.077       19.413     2251.367      733.140      376.865        0.483        0.168       79.273       23.243        0.086      338.012       10.374      863.181
10/07/2014  06:54:00      -77.403      -13.365       -3.716       29.087       16.349       14.300      846.034      267.303      204.491        0.375        0.066       78.549       11.166        0.020      337.874       10.144      863.189
10/07/2014  06:55:00      -70.128      -12.115       -1.242       24.533       19.884       12.871      601.864      395.391      165.667        0.311        0.058       71.167        9.699        0.019      337.832       10.072      863.191
10/07/2014  06:56:00      -76.617       -1.584        0.999       32.730       18.646       18.859     1071.247      347.666      355.675        0.382        0.089       76.634       20.221        0.070      337.692        9.839      863.195
10/07/2014  06:57:00      -95.389       -3.706       -5.693       30.283       19.822       16.692      917.031      392.930      278.634        0.537        0.079       95.461       16.488        0.030      337.623        9.720      863.205
10/07/2014  06:58:00      -77.090       -8.012       -4.857       27.177       22.813       16.802      738.564      520.429      282.295        0.379        0.077       77.505       16.610        0.046      337.693        9.840      863.213
10/07/2014  06:59:00      -67.926      -11.451        0.655       30.425       19.083       18.699      925.692      364.156      349.644        0.319        0.082       68.884       18.156        0.069      337.679        9.815      863.218
10/07/2014  07:00:00      -70.249      -14.918       -2.087       23.585       23.709       14.461      556.252      562.107      209.131        0.324        0.066       71.815       12.399        0.030      337.709        9.865      863.227
10/07/2014  07:01:00      -68.679      -18.616       -1.478       28.097       17.655       13.295      789.430      311.701      176.756        0.317        0.064       71.158       13.311        0.035      337.749        9.933      863.226
10/07/2014  07:02:00     -106.038      -11.794      -12.476       17.884       10.452        8.933      319.822      109.237       79.797        0.602        0.025      106.692        7.096        0.004      337.732        9.905      863.222
10/07/2014  07:03:00      -93.478      -16.895       -7.696       18.146       15.958       11.366      329.259      254.644      129.185        0.490        0.036       94.992       11.505        0.015      337.708        9.864      863.221
10/07/2014  07:04:00      -75.191      -21.877       -8.002       22.922       14.713       14.661      525.409      216.463      214.940        0.358        0.048       78.309       15.752        0.040      337.749        9.933      863.234
10/07/2014  07:05:00      -83.683      -33.613       -6.960       20.010       16.046       10.539      400.384      257.481      111.061        0.447        0.038       90.181        8.362        0.009      337.815       10.043      863.229
10/07/2014  07:06:00      -98.444      -23.211      -10.594       18.696       17.298       10.256      349.557      299.208      105.179        0.555        0.038      101.143        6.731        0.004      337.773        9.973      863.228
10/07/2014  07:07:00     -122.578      -25.304       -5.985       26.905       19.362       15.056      723.890      374.877      226.669        0.851        0.066      125.162       14.426        0.013      337.695        9.842      863.228
10/07/2014  07:08:00     -109.976      -21.655       -5.688       29.241       19.573       13.236      855.028      383.092      175.199        0.700        0.071      112.088       14.292        0.016      337.642        9.755      863.235
10/07/2014  07:09:00      -97.462      -18.785       -3.165       18.030       16.628       13.276      325.072      276.480      176.260        0.532        0.039       99.256       11.183        0.013      337.603        9.688      863.235
10/07/2014  07:10:00     -101.233       -7.366       -8.857       18.487       13.333       10.930      341.752      177.762      119.462        0.551        0.032      101.501        8.707        0.007      337.638        9.748      863.241
10/07/2014  07:11:00      -97.957      -13.809      -13.091       16.680       11.925        9.552      278.206      142.207       91.247        0.523        0.026       98.926        4.751        0.002      337.661        9.786      863.237
10/07/2014  07:12:00     -101.111      -15.125      -10.732       20.043       16.117       15.469      401.708      259.756      239.303        0.573        0.045      102.235       12.065        0.014      337.718        9.882      863.242
10/07/2014  07:13:00     -103.041      -13.148      -10.209       21.095       11.697       11.058      445.002      136.818      122.269        0.580        0.035      103.877        8.534        0.007      337.651        9.770      863.241
10/07/2014  07:14:00      -94.248      -18.556       -7.250       16.254        9.227        8.123      264.198       85.146       65.988        0.485        0.021       96.057        7.121        0.005      337.755        9.945      863.250
10/07/2014  07:15:00      -55.071      -31.310       -7.015       12.226       11.894        7.797      149.468      141.470       60.794        0.221        0.018       63.349        5.835        0.008      337.777        9.981      863.259
10/07/2014  07:16:00      -61.965      -20.740       -9.632        9.156        9.350        8.450       83.832       87.428       71.406        0.230        0.012       65.344        3.482        0.003      337.816       10.047      863.259
10/07/2014  07:17:00      -69.319       -0.683      -14.828        9.609       11.425        9.511       92.336      130.541       90.461        0.267        0.016       69.322        4.595        0.004      337.814       10.042      863.258
10/07/2014  07:18:00      -65.685      -12.662       -9.433       15.276       12.828        8.897      233.370      164.547       79.152        0.252        0.024       66.894        6.743        0.010      337.853       10.107      863.261
10/07/2014  07:19:00      -58.917      -38.449        0.998       18.561       13.809       14.315      344.510      190.683      204.927        0.285        0.037       70.353       12.173        0.030      337.901       10.188      863.277
10/07/2014  07:20:00      -69.659      -18.796      -11.552       18.974       21.043       10.916      360.003      442.812      119.150        0.313        0.046       72.150        9.370        0.017      337.859       10.118      863.282
10/07/2014  07:21:00      -62.137      -32.303       -9.098       14.996       23.068       12.071      224.888      532.116      145.711        0.294        0.045       70.033       11.670        0.028      337.879       10.150      863.288
10/07/2014  07:22:00      -53.984      -35.482       -7.095       18.234       22.073       12.165      332.462      487.231      147.985        0.260        0.048       64.601        7.892        0.015      337.890       10.169      863.301
10/07/2014  07:23:00      -49.978       -7.130       -5.984       13.691        8.883        7.400      187.433       78.902       54.759        0.145        0.016       50.484        7.485        0.022      337.966       10.296      863.315
10/07/2014  07:24:00      -46.446      -22.388       -8.313        6.648        4.972        4.838       44.202       24.717       23.402        0.141        0.005       51.560        2.712        0.003      338.011       10.373      863.325
10/07/2014  07:25:00      -43.177      -14.030       -4.410        6.751       11.842        7.870       45.577      140.244       61.938        0.116        0.012       45.399        6.953        0.023      338.088       10.502      863.332
10/07/2014  07:26:00      -21.904        1.516        1.073        8.356        4.323        5.746       69.818       18.688       33.022        0.030        0.006       21.957        3.440        0.025      338.142       10.593      863.334
10/07/2014  07:27:00      -12.822       -1.718       -1.798        7.988        6.679        6.108       63.802       44.615       37.305        0.016        0.007       12.937        4.167        0.104      338.330       10.907      863.339
10/07/2014  07:28:00       -6.092       -7.154       -7.122        9.586       15.702        9.310       91.890      246.540       86.675        0.028        0.021        9.396        8.788        0.875      338.309       10.874      863.348
10/07/2014  07:29:00       -8.923        5.785       -3.275       12.673        8.127        8.205      160.596       66.053       67.325        0.021        0.015       10.634        7.246        0.464      338.376       10.986      863.345
10/07/2014  07:30:00        4.877        3.794        8.489        8.065       10.405        7.829       65.042      108.255       61.296        0.017        0.012        6.179        5.746        0.865      338.497       11.190      863.340
10/07/2014  07:31:00       18.384       19.858        8.236       10.994        9.064        8.453      120.858       82.156       71.459        0.054        0.014       27.061        7.090        0.069      338.363       10.964      863.340
10/07/2014  07:32:00       14.464       21.770        4.368       10.716       14.151       11.465      114.831      200.255      131.453        0.057        0.022       26.137        8.003        0.094      338.422       11.063      863.335
10/07/2014  07:33:00       24.550       13.244        7.092        9.621        9.212       11.391       92.569       84.868      129.744        0.057        0.015       27.895        7.046        0.064      338.418       11.056      863.334
10/07/2014  07:34:00       32.911       30.823        5.818       12.537        9.640       10.928      157.179       92.928      119.417        0.122        0.018       45.091        5.892        0.017      338.399       11.023      863.339
10/07/2014  07:35:00       48.968       29.857       11.578       11.587        9.850       11.994      134.255       97.024      143.865        0.190        0.019       57.353        6.046        0.011      338.397       11.020      863.338
10/07/2014  07:36:00       23.391       29.803        1.217       13.528        9.807       11.255      183.015       96.178      126.684        0.092        0.020       37.887        5.246        0.019      338.419       11.058      863.344
10/07/2014  07:37:00       22.406       28.336        5.766       10.838       10.420       10.848      117.458      108.580      117.676        0.084        0.017       36.124        4.650        0.017      338.405       11.033      863.349
10/07/2014  07:38:00       33.480       23.135        2.014       16.551        8.530        9.173      273.921       72.765       84.143        0.105        0.022       40.696        5.024        0.015      338.446       11.103      863.350
10/07/2014  07:39:00       31.700       21.971        3.122       13.350       14.135       13.788      178.212      199.807      190.110        0.103        0.028       38.569        9.632        0.062      338.456       11.121      863.367
10/07/2014  07:40:00       43.963       27.221        6.015       14.506       11.566       10.036      210.430      133.781      100.718        0.158        0.022       51.708        6.637        0.016      338.395       11.017      863.367
10/07/2014  07:41:00       39.527       30.680       -0.029       15.049       12.497       14.202      226.461      156.169      201.700        0.154        0.029       50.037        7.302        0.021      338.437       11.089      863.372
10/07/2014  07:42:00       32.886       30.988        5.536       14.543       14.695       10.416      211.492      215.951      108.496        0.130        0.027       45.185        7.925        0.031      338.477       11.155      863.375
10/07/2014  07:43:00       39.223       34.594       -1.298       14.227        9.450        9.442      202.396       89.299       89.160        0.156        0.019       52.299        3.315        0.004      338.481       11.162      863.380
10/07/2014  07:44:00       30.982        3.984        1.371       11.958       15.877        9.963      143.004      252.084       99.255        0.074        0.025       31.237        2.296        0.005      338.524       11.235      863.383
10/07/2014  07:45:00       21.425        8.774        2.728       11.383        7.042        8.163      129.570       49.590       66.639        0.039        0.012       23.152        2.346        0.010      338.599       11.359      863.384
10/07/2014  07:46:00       27.997       24.169       11.291       10.557        8.974       11.762      111.449       80.533      138.345        0.091        0.017       36.986        4.978        0.018      338.586       11.337      863.391
10/07/2014  07:47:00       43.984       25.264       -0.299       19.592       13.130       11.111      383.837      172.402      123.458        0.163        0.034       50.723        4.813        0.009      338.577       11.324      863.401
10/07/2014  07:48:00       48.803       13.697        2.331       17.162       16.502       19.406      294.527      272.327      376.608        0.176        0.047       50.689       13.254        0.068      338.685       11.504      863.406
10/07/2014  07:49:00       30.386       17.050       -9.497       12.529       11.808       12.252      156.981      139.440      150.113        0.088        0.022       34.843        5.628        0.026      338.693       11.518      863.404
10/07/2014  07:50:00       42.738       21.062        2.790       18.168       11.427       14.046      330.060      130.583      197.293        0.147        0.033       47.646        8.554        0.032      338.748       11.610      863.406
10/07/2014  07:51:00       22.731        7.626        8.687       14.895       11.860       15.900      221.874      140.655      252.809        0.063        0.031       23.976        9.650        0.162      338.942       11.937      863.415
10/07/2014  07:52:00       13.198       -2.817        9.093       22.786       19.634       16.967      519.202      385.474      287.865        0.073        0.060       13.495       15.849        1.379      339.006       12.045      863.418
10/07/2014  07:53:00       11.108       12.817       14.932       16.741       17.197       16.291      280.277      295.739      265.383        0.068        0.042       16.961       10.566        0.388      339.005       12.042      863.425
10/07/2014  07:54:00       15.543       19.767       11.995       31.867       22.203       23.405     1015.490      492.959      547.815        0.142        0.103       25.146       21.392        0.724      339.042       12.105      863.415
10/07/2014  07:55:00       41.775       18.922       22.077       18.714       14.264       15.807      350.199      203.464      249.867        0.170        0.040       45.860        8.031        0.031      338.920       11.899      863.404
10/07/2014  07:56:00       16.696       26.985       18.962       13.548       14.293       10.953      183.553      204.301      119.976        0.094        0.025       31.732        7.490        0.056      338.942       11.936      863.411
10/07/2014  07:57:00       21.182       23.327        8.172       13.872       13.176       11.383      192.433      173.619      129.579        0.078        0.025       31.509        6.733        0.046      338.986       12.011      863.414
10/07/2014  07:58:00       51.297       28.069       12.861       25.528       17.224       18.514      651.681      296.669      342.764        0.244        0.065       58.475       16.613        0.081      338.950       11.949      863.413
10/07/2014  07:59:00       51.423       20.914        5.073       10.415       12.277       10.221      108.467      150.730      104.471        0.174        0.018       55.513        5.009        0.008      339.001       12.035      863.423
10/07/2014  08:00:00       11.005      -28.791        5.850       20.595       27.713       19.669      424.148      768.024      386.854        0.128        0.079       30.823       17.175        0.310      339.052       12.121      863.428
10/07/2014  08:01:00        4.168      -46.465       -3.954       20.318       20.187       23.114      412.808      407.501      534.246        0.177        0.068       46.651       10.491        0.051      338.792       11.685      863.434
10/07/2014  08:02:00        8.658       -2.984        3.756       21.912       18.674       16.536      480.127      348.710      273.449        0.060        0.055        9.158       13.697        2.237      339.001       12.035      863.434
10/07/2014  08:03:00       22.425        9.888       -0.096       13.162        8.443       10.808      173.227       71.290      116.815        0.048        0.018       24.508        5.284        0.046      339.155       12.295      863.447
10/07/2014  08:04:00       33.197       27.342        5.097       14.428       12.694       16.944      208.161      161.134      287.101        0.127        0.033       43.008        7.588        0.031      339.206       12.381      863.458
10/07/2014  08:05:00       41.453       22.358        6.198       18.359       16.625       15.557      337.049      276.391      242.016        0.156        0.043       47.098        8.328        0.031      339.221       12.405      863.463
10/07/2014  08:06:00        0.026        9.726       14.413       12.234       14.016       15.197      149.659      196.449      230.957        0.044        0.029        9.726       10.736        1.219      339.589       13.027      863.479
10/07/2014  08:07:00       14.198       -2.029        8.682       21.128       12.300       16.119      446.398      151.296      259.810        0.057        0.043       14.342       15.985        1.242      339.470       12.825      863.493
10/07/2014  08:08:00       -6.998        4.823        7.917       10.474        5.911        7.093      109.697       34.943       50.313        0.016        0.010        8.499        6.451        0.576      339.523       12.915      863.499
10/07/2014  08:09:00       20.095       21.140        2.311       20.047       17.161       18.646      401.895      294.514      347.666        0.095        0.052       29.167       18.988        0.424      339.637       13.108      863.500
10/07/2014  08:10:00       44.409       19.301       -0.121       18.634       14.310       14.934      347.216      204.788      223.038        0.156        0.039       48.422        8.951        0.034      339.359       12.638      863.501
10/07/2014  08:11:00       29.428       32.351        4.956       21.231       20.788       16.766      450.751      432.150      281.098        0.155        0.058       43.733       12.006        0.075      339.423       12.745      863.498
10/07/2014  08:12:00       40.277       29.803       -4.021       14.933       12.590       12.829      222.986      158.501      164.594        0.154        0.027       50.104        4.599        0.008      339.217       12.399      863.500
10/07/2014  08:13:00       29.432       25.246        6.257       16.593       12.219       22.811      275.335      149.298      520.325        0.124        0.047       38.776       10.338        0.071      339.389       12.688      863.509
10/07/2014  08:14:00       19.058       15.565        6.080       13.447       17.962       13.850      180.832      322.622      191.816        0.067        0.035       24.606       12.442        0.256      339.580       13.012      863.516
10/07/2014  08:15:00       27.478       17.250       14.747       13.860       14.558       11.946      192.093      211.946      142.704        0.091        0.027       32.444        8.509        0.069      339.598       13.041      863.519
10/07/2014  08:16:00       30.223       30.603       -3.099       10.371       16.024       15.164      107.554      256.755      229.945        0.123        0.030       43.011       11.540        0.072      339.431       12.760      863.516
10/07/2014  08:17:00       26.692       25.614       -2.707       13.523       10.534       12.949      182.873      110.956      167.685        0.092        0.023       36.994        6.287        0.029      339.553       12.966      863.523
10/07/2014  08:18:00       -3.075        8.799        8.368       13.670       18.433       12.158      186.871      339.768      147.809        0.042        0.034        9.321       13.593        2.127      339.657       13.142      863.523
10/07/2014  08:19:00       15.981      -12.714       -3.152       14.651       19.714       14.862      214.637      388.630      220.878        0.063        0.041       20.422       10.820        0.281      339.440       12.775      863.534
10/07/2014  08:20:00       11.182        2.925        4.485       19.002       12.894       21.595      361.069      166.244      466.362        0.057        0.050       11.558       13.895        1.445      339.572       12.996      863.540
10/07/2014  08:21:00        5.750       15.905        2.727       11.173       14.296       16.385      124.842      204.366      268.470        0.045        0.030       16.912        8.213        0.236      339.674       13.169      863.542
10/07/2014  08:22:00       -3.086       10.165       -3.674       18.196       16.283       10.849      331.110      265.120      117.711        0.042        0.036       10.623        9.226        0.754      339.518       12.906      863.543
10/07/2014  08:23:00        0.032        0.068       13.171       23.372       10.605       12.389      546.234      112.457      153.484        0.049        0.041        0.076        9.653    16303.757      339.809       13.396      863.550
10/07/2014  08:24:00        9.669        9.551       17.421       17.202       17.279       21.741      295.924      298.558      472.681        0.078        0.053       13.590       10.108        0.553      339.830       13.433      863.557
10/07/2014  08:25:00        1.243       25.062       -3.809       15.711       15.363       20.205      246.838      236.015      408.224        0.077        0.045       25.093        7.161        0.081      339.722       13.250      863.566
10/07/2014  08:26:00       17.531       12.166       -0.090       14.045       13.477       15.470      197.273      181.619      239.313        0.054        0.031       21.339        8.680        0.165      339.820       13.415      863.569
10/07/2014  08:27:00       13.601       11.541        0.616       16.783       15.234       14.632      281.679      232.089      214.093        0.052        0.036       17.837       12.259        0.472      339.997       13.714      863.574
10/07/2014  08:28:00       29.728       28.044        5.130       19.509       18.741       22.412      380.608      351.229      502.310        0.147        0.062       40.868       17.987        0.194      340.116       13.914      863.576
10/07/2014  08:29:00       38.108       24.592        5.654       19.756       18.046       18.807      390.317      325.670      353.718        0.158        0.053       45.354       12.172        0.072      340.032       13.773      863.575
10/07/2014  08:30:00       24.481       26.915        5.992       14.567       13.174       15.124      212.198      173.544      228.725        0.099        0.031       36.383        8.625        0.056      340.061       13.821      863.583
10/07/2014  08:31:00       27.123       25.363       -2.586       12.992       13.338       12.169      168.786      177.896      148.091        0.094        0.025       37.134       10.251        0.076      339.913       13.572      863.587
10/07/2014  08:32:00       27.192       16.547        0.776       15.789       11.905       17.895      249.304      141.720      320.243        0.086        0.036       31.831       11.721        0.136      339.925       13.593      863.595
10/07/2014  08:33:00       11.865       27.056       27.921       18.422       21.698       19.329      339.379      470.797      373.627        0.142        0.059       29.543        5.972        0.041      340.341       14.295      863.608
10/07/2014  08:34:00       25.437       32.031        0.376       17.647       17.228       22.169      311.412      296.791      491.461        0.139        0.055       40.903       16.065        0.154      339.995       13.711      863.620
10/07/2014  08:35:00       51.042       35.224        1.158       17.847       14.550       18.495      318.525      211.711      342.049        0.236        0.044       62.016        7.906        0.016      339.857       13.480      863.639
10/07/2014  08:36:00       29.791        7.920        1.814       18.601       17.196       13.677      346.013      295.701      187.074        0.089        0.041       30.826       13.693        0.197      339.980       13.683      863.652
10/07/2014  08:37:00       -2.549        1.970       10.373        7.497        6.869        8.021       56.202       47.179       64.337        0.014        0.008        3.222        4.172        1.677      340.380       14.361      863.653
10/07/2014  08:38:00       -7.860       -0.478       18.803        8.093       15.115       15.453       65.495      228.458      238.805        0.047        0.027        7.874       11.193        2.021      340.541       14.633      863.660
10/07/2014  08:39:00       -4.777       11.992       35.556       13.125       18.788       13.040      172.269      352.980      170.044        0.106        0.035       12.909        9.589        0.552      340.653       14.823      863.669
10/07/2014  08:40:00       16.497       15.590       14.673       15.156       16.581       17.820      229.696      274.920      317.545        0.078        0.041       22.698        6.048        0.071      340.032       13.774      863.674
10/07/2014  08:41:00       32.662       33.007       16.994       22.611       22.545       30.544      511.252      508.282      932.955        0.220        0.098       46.436       18.679        0.162      340.102       13.890      863.676
10/07/2014  08:42:00       53.740       32.231       16.240       24.372       20.249       24.280      593.994      410.024      589.541        0.289        0.080       62.664       17.336        0.077      340.149       13.971      863.681
10/07/2014  08:43:00       38.715       27.337       -0.226       15.710       12.939       15.046      246.808      167.410      226.376        0.144        0.032       47.394        6.544        0.019      340.169       14.003      863.679
10/07/2014  08:44:00       31.496       31.146       18.919       25.973       18.176       21.394      674.575      330.384      457.694        0.189        0.073       44.295       10.064        0.052      340.459       14.493      863.684
10/07/2014  08:45:00       40.702       28.570       13.714       19.410       15.125       18.564      376.766      228.771      344.625        0.181        0.048       49.728        8.592        0.030      340.246       14.133      863.687
10/07/2014  08:46:00       14.646       -3.908        4.940       15.515       19.454       14.422      240.723      378.457      207.989        0.054        0.041       15.159       10.335        0.465      340.348       14.306      863.678
10/07/2014  08:47:00      -26.384      -16.846        1.294       15.412        9.420        7.084      237.522       88.744       50.176        0.068        0.019       31.303        6.831        0.048      340.241       14.125      863.672
10/07/2014  08:48:00      -25.521       -1.302        2.965       16.632       11.245        8.265      276.620      126.442       68.316        0.057        0.024       25.554        5.627        0.048      340.388       14.373      863.665
10/07/2014  08:49:00        5.570       13.808        6.186       16.716       12.286       12.308      279.438      150.953      151.479        0.042        0.029       14.889        5.235        0.124      340.549       14.647      863.656
10/07/2014  08:50:00      -13.113       -7.885        0.681        9.086       11.506        8.922       82.557      132.380       79.598        0.026        0.015       15.301        5.750        0.141      340.531       14.616      863.657
10/07/2014  08:51:00       -7.309        6.438       24.703        9.047       10.493        9.045       81.843      110.109       81.805        0.049        0.014        9.741        6.446        0.438      341.332       15.971      863.657
10/07/2014  08:52:00       18.201       12.754       13.667       21.144       21.752       12.470      447.089      473.150      155.493        0.088        0.054       22.225        9.099        0.168      340.918       15.270      863.655
10/07/2014  08:53:00       46.784       29.029        9.764       23.324       13.526       19.693      543.999      182.947      387.812        0.212        0.056       55.058       10.440        0.036      340.686       14.878      863.659
10/07/2014  08:54:00        5.810       45.604       -8.838       17.754       24.273       22.810      315.219      589.170      520.281        0.181        0.071       45.973        5.534        0.014      340.636       14.793      863.665
10/07/2014  08:55:00       13.621       -5.773       13.581       22.831       25.831       20.739      521.244      667.240      430.126        0.101        0.081       14.794       16.898        1.305      340.668       14.847      863.670
10/07/2014  08:56:00       -1.655       21.107       36.318       12.027       20.406       13.305      144.652      416.423      177.027        0.125        0.037       21.171       14.855        0.492      341.071       15.529      863.677
10/07/2014  08:57:00       18.387        3.363        5.441       24.011       21.623       23.048      576.537      467.567      531.195        0.098        0.079       18.692       12.140        0.422      340.570       14.683      863.688
10/07/2014  08:58:00      -12.539       12.100       20.659       10.741       14.882       13.839      115.368      221.469      191.510        0.063        0.026       17.425        7.704        0.195      341.149       15.661      863.684
10/07/2014  08:59:00       -5.809        2.547       18.317       15.699        8.654       10.188      246.457       74.893      103.801        0.040        0.021        6.343        8.006        1.593      341.118       15.608      863.686
10/07/2014  09:00:00      -12.286        8.891       29.135       10.277       12.071       13.097      105.609      145.703      171.526        0.075        0.021       15.166        8.576        0.320      341.420       16.121      863.689
10/07/2014  09:01:00       -6.508       -2.894       21.071       10.527        6.422        6.284      110.828       41.238       39.483        0.034        0.010        7.122        5.867        0.679      341.549       16.340      863.689
10/07/2014  09:02:00       11.953        8.061       18.903       21.353       16.997       16.755      455.940      288.886      280.719        0.080        0.051       14.417       14.259        0.978      341.246       15.826      863.680
10/07/2014  09:03:00      -33.434      -10.207        0.025       13.047       10.969       12.971      170.220      120.309      168.238        0.084        0.023       34.958        7.123        0.042      340.812       15.092      863.675
10/07/2014  09:04:00      -21.190      -36.404        1.280       15.700       17.266       11.803      246.494      298.109      139.300        0.123        0.034       42.122        7.583        0.032      340.802       15.072      863.669
10/07/2014  09:05:00       -1.599      -36.242        0.325       11.169       12.225        8.726      124.744      149.456       76.138        0.083        0.018       36.278        5.538        0.023      340.679       14.865      863.665
10/07/2014  09:06:00      -11.450      -15.491        8.042       10.888       10.922       10.117      118.559      119.300      102.348        0.039        0.017       19.263        7.509        0.152      341.112       15.599      863.659
10/07/2014  09:07:00      -11.470      -27.037        3.385       10.528       17.092       13.321      110.831      292.120      177.444        0.073        0.029       29.369        9.526        0.105      341.023       15.447      863.657
10/07/2014  09:08:00      -11.805      -28.922       -2.833       10.199       20.092       16.683      104.019      403.687      278.337        0.088        0.039       31.239       11.795        0.143      340.875       15.198      863.654
10/07/2014  09:09:00       -5.591       -3.326        7.138        9.667       12.362       19.843       93.457      152.816      393.739        0.037        0.032        6.506        9.124        1.967      341.421       16.122      863.657
10/07/2014  09:10:00        0.820       -9.893        2.428       18.469       18.554       15.109      341.113      344.250      228.276        0.051        0.046        9.927       15.467        2.427      341.254       15.839      863.656
10/07/2014  09:11:00        1.300      -22.981       -5.052       14.254       10.821       10.715      203.187      117.090      114.804        0.050        0.022       23.018        9.150        0.158      341.089       15.560      863.659
10/07/2014  09:12:00      -15.021      -16.827        4.290       12.574       12.408        7.540      158.101      153.954       56.851        0.045        0.018       22.556        8.426        0.140      341.404       16.095      863.664
10/07/2014  09:13:00       -0.115      -13.211       11.787       15.778       14.049       12.571      248.945      197.367      158.026        0.046        0.030       13.212       10.985        0.691      341.514       16.280      863.677
10/07/2014  09:14:00       -8.588      -33.639        8.006       14.435       14.251       15.965      208.373      203.093      254.867        0.097        0.033       34.718       10.152        0.086      341.277       15.879      863.674
10/07/2014  09:15:00      -59.892       -2.211        0.207       19.076       26.009       13.073      363.910      676.445      170.906        0.240        0.061       59.933       14.431        0.058      341.227       15.794      863.675
10/07/2014  09:16:00      -50.201       -7.376       -9.031       11.453       28.035       12.386      131.162      785.958      153.412        0.186        0.054       50.740       15.018        0.088      341.254       15.840      863.681
10/07/2014  09:17:00      -19.746      -20.058        1.695       20.171       21.045       18.400      406.886      442.898      338.552        0.099        0.059       28.147       16.010        0.324      341.510       16.274      863.689
10/07/2014  09:18:00      -28.811      -14.617       -3.003       17.575       18.054        7.839      308.869      325.947       61.447        0.087        0.035       32.306        7.599        0.055      341.381       16.054      863.698
10/07/2014  09:19:00      -23.882      -14.918        2.251       16.651       13.932       10.707      277.267      194.096      114.647        0.069        0.029       28.158        4.008        0.020      341.382       16.057      863.701
10/07/2014  09:20:00      -25.549      -16.173        4.716       20.707       10.751        9.684      428.779      115.582       93.771        0.079        0.032       30.237       10.330        0.117      341.603       16.430      863.702
10/07/2014  09:21:00      -16.396        6.789       25.920       23.760       14.412       15.159      564.548      207.699      229.792        0.099        0.050       17.746       15.431        0.756      342.025       17.146      863.701
10/07/2014  09:22:00       -0.130       -9.765       18.831       23.747       28.231       16.346      563.941      797.013      267.200        0.104        0.081        9.766       17.048        3.047      341.809       16.780      863.703
10/07/2014  09:23:00      -24.441      -85.578       -6.217       15.312       19.559       16.908      234.455      382.556      285.882        0.443        0.045       89.000        7.351        0.007      341.563       16.361      863.699
10/07/2014  09:24:00      -11.059      -98.029        1.183       23.809       16.366       11.025      566.856      267.844      121.550        0.534        0.048       98.651        7.499        0.006      341.571       16.376      863.701
10/07/2014  09:25:00      -35.249      -67.987        4.367       39.945       31.372       24.809     1595.634      984.187      615.505        0.454        0.160       76.582       24.306        0.101      341.666       16.537      863.691
10/07/2014  09:26:00     -112.612      -62.202       -2.404       49.600       39.565       26.737     2460.132     1565.369      714.890        1.065        0.237      128.649       27.834        0.047      341.665       16.536      863.687
10/07/2014  09:27:00      -59.127      -33.093        1.869       29.051       15.533       13.085      843.965      241.273      171.210        0.293        0.063       67.758       10.363        0.023      341.712       16.615      863.690
10/07/2014  09:28:00      -46.541      -30.660       -7.779       23.524       19.084       17.210      553.385      364.191      296.188        0.219        0.061       55.732       10.485        0.035      341.771       16.716      863.696
10/07/2014  09:29:00      -24.289      -38.326       -0.459       17.914       33.241       15.893      320.903     1104.969      252.585        0.187        0.084       45.374       16.630        0.134      341.951       17.020      863.704
10/07/2014  09:30:00      -32.390      -64.597       -5.310       17.668       43.482       21.665      312.156     1890.720      469.391        0.396        0.134       72.263       10.466        0.021      341.814       16.789      863.702
10/07/2014  09:31:00      -22.627      -17.672        5.296       26.568       28.778       21.039      705.846      828.174      442.651        0.141        0.099       28.711       20.143        0.492      342.245       17.521      863.707
10/07/2014  09:32:00      -40.453      -40.885       -6.339       24.639       22.266       15.271      607.096      495.778      233.218        0.234        0.067       57.515        7.655        0.018      342.055       17.196      863.704
10/07/2014  09:33:00      -73.418      -58.906      -24.284       29.318       34.681       21.565      859.527     1202.741      465.038        0.599        0.126       94.128        8.908        0.009      342.040       17.172      863.703
10/07/2014  09:34:00      -40.664      -22.225       -7.854       16.036       23.245       14.536      257.158      540.324      211.284        0.161        0.050       46.341        9.742        0.044      341.990       17.085      863.706
10/07/2014  09:35:00      -57.821       -0.121       -8.485       29.987       17.937       20.429      899.247      321.748      417.351        0.253        0.082       57.821       15.566        0.072      342.236       17.503      863.697
10/07/2014  09:36:00      -56.018      -21.349       -5.669       28.421       21.066       10.910      807.733      443.758      119.019        0.250        0.069       59.948        9.505        0.025      342.106       17.284      863.694
10/07/2014  09:37:00      -29.818      -30.548        7.437       36.623       27.893       22.460     1341.250      777.992      504.454        0.225        0.131       42.688       20.881        0.239      342.316       17.640      863.688
10/07/2014  09:38:00      -27.223      -29.458       -1.641       53.207       31.271       28.836     2830.939      977.901      831.518        0.313        0.232       40.110       23.872        0.354      342.326       17.657      863.684
10/07/2014  09:39:00      -62.467      -32.961        7.200       51.513       41.586       34.016     2653.620     1729.362     1157.077        0.529        0.277       70.630       29.435        0.174      342.326       17.657      863.681
10/07/2014  09:40:00      -17.651      -60.337       13.224       24.322       33.284       24.434      591.543     1107.827      597.040        0.321        0.115       62.866       22.384        0.127      342.214       17.468      863.673
10/07/2014  09:41:00      -35.103      -51.850       -3.251       21.323       21.551       17.521      454.658      464.451      306.986        0.258        0.061       62.615       12.212        0.038      342.075       17.231      863.676
10/07/2014  09:42:00      -47.211      -46.717       -5.891       25.483       30.142       16.362      649.392      908.511      267.703        0.314        0.091       66.419       11.976        0.033      342.067       17.217      863.673
10/07/2014  09:43:00      -50.033      -42.196       -3.670       38.417       30.096       24.165     1475.899      905.766      583.951        0.363        0.148       65.450       17.476        0.071      342.153       17.365      863.661
10/07/2014  09:44:00      -65.252      -36.151       -5.924       38.444       27.045       20.848     1477.969      731.431      434.653        0.412        0.132       74.597       19.643        0.069      342.233       17.499      863.662
10/07/2014  09:45:00      -90.056      -44.401       -7.230       37.003       38.479       24.216     1369.239     1480.619      586.438        0.678        0.172      100.406       19.427        0.037      342.254       17.533      863.673
10/07/2014  09:46:00      -64.370      -57.232       -2.997       37.440       30.306       26.596     1401.725      918.455      707.324        0.523        0.151       86.134       21.189        0.061      342.198       17.440      863.667
10/07/2014  09:47:00      -25.193       -8.809       -9.875       20.899       24.348       26.635      436.771      592.829      709.449        0.127        0.087       26.689       14.133        0.280      342.474       17.910      863.659
10/07/2014  09:48:00      -49.707        6.337       -8.052       42.651       22.872       18.399     1819.094      523.142      338.513        0.263        0.134       50.110       19.250        0.148      342.448       17.864      863.654
10/07/2014  09:49:00      -15.605      -16.837        9.592       22.125       24.045       22.930      489.509      578.182      525.780        0.111        0.080       22.956        9.748        0.180      342.480       17.918      863.647
10/07/2014  09:50:00      -31.391      -14.104       21.369       36.235       42.494       25.726     1312.958     1805.728      661.813        0.271        0.189       34.413       23.838        0.480      342.504       17.960      863.637
10/07/2014  09:51:00      -30.596      -34.251       35.104       35.534       36.909       32.500     1262.658     1362.278     1056.231        0.351        0.184       45.927       26.935        0.344      342.804       18.471      863.628
10/07/2014  09:52:00      -39.152       -3.272       31.467       31.602       41.016       24.678      998.678     1682.280      609.017        0.291        0.164       39.288       30.012        0.584      342.853       18.554      863.628
10/07/2014  09:53:00      -28.768       13.961       41.089       21.938       31.191       22.117      481.276      972.908      489.178        0.233        0.097       31.977       19.771        0.382      342.892       18.619      863.622
10/07/2014  09:54:00       -5.541      -11.715       10.435       26.946       24.177       20.198      726.089      584.529      407.966        0.100        0.086       12.959       16.333        1.588      342.835       18.524      863.612
10/07/2014  09:55:00      -10.032      -19.971       11.932       22.270       38.546       18.585      495.931     1485.813      345.416        0.148        0.116       22.349       17.223        0.594      342.865       18.573      863.616
10/07/2014  09:56:00       12.558      -34.808        3.106       40.749       36.464       31.809     1660.476     1329.624     1011.804        0.269        0.200       37.004       25.926        0.491      342.792       18.449      863.612
10/07/2014  09:57:00       -0.148      -27.303        9.726       40.837       31.998       25.603     1667.631     1023.842      655.502        0.209        0.167       27.303       20.222        0.549      342.727       18.341      863.608
10/07/2014  09:58:00        5.296       25.091       54.401       24.286       37.932       32.305      589.815     1438.822     1043.615        0.334        0.154       25.644       29.221        1.298      342.918       18.664      863.605
10/07/2014  09:59:00      -44.930      -36.690       -6.219       41.750       28.601       21.918     1743.034      818.000      480.411        0.322        0.152       58.008       15.433        0.071      342.699       18.292      863.599
10/07/2014  10:00:00      -24.880      -12.896       17.630       28.558       33.253       16.746      815.533     1105.746      280.414        0.165        0.110       28.024       11.623        0.172      343.006       18.815      863.593
10/07/2014  10:01:00       24.497      -22.274       25.455       36.738       44.282       29.966     1349.684     1960.876      897.935        0.298        0.210       33.109       26.323        0.632      343.228       19.194      863.590
10/07/2014  10:02:00      -18.215      -16.746       23.411       26.885       42.887       30.159      722.781     1839.324      909.541        0.232        0.174       24.743       16.064        0.422      343.199       19.143      863.571
10/07/2014  10:03:00      -28.975      -22.210        5.816       31.740       32.984       26.155     1007.417     1087.931      684.090        0.207        0.139       36.508       17.326        0.225      343.118       19.006      863.572
10/07/2014  10:04:00       -5.565       -7.084       37.645       30.105       38.727       20.306      906.339     1499.795      412.350        0.216        0.141        9.008       16.352        3.295      343.256       19.240      863.572
10/07/2014  10:05:00      -20.733       -2.336       26.642       24.730       25.338       27.947      611.579      642.032      781.009        0.159        0.102       20.864       25.240        1.463      343.323       19.356      863.571
10/07/2014  10:06:00      -66.741      -45.485        6.602       48.640       31.326       20.644     2365.804      981.307      426.159        0.517        0.189       80.767       21.084        0.068      342.755       18.387      863.576
10/07/2014  10:07:00      -24.428      -24.481        9.644       52.760       39.639       26.398     2783.599     1571.245      696.842        0.317        0.253       34.584       31.463        0.828      343.139       19.040      863.572
10/07/2014  10:08:00      -30.234      -16.630       -3.112       30.681       20.453       21.424      941.309      418.311      459.002        0.151        0.091       34.506       18.030        0.273      342.965       18.744      863.584
10/07/2014  10:09:00      -31.378       -7.977      -13.012       15.147       11.502        9.588      229.418      132.304       91.921        0.084        0.023       32.376        6.414        0.039      342.845       18.539      863.580
10/07/2014  10:10:00      -52.976      -23.657       -3.254       23.354       28.993       13.241      545.421      840.612      175.324        0.247        0.078       58.018       12.511        0.047      342.833       18.519      863.575
10/07/2014  10:11:00        0.230       13.619       32.332       16.618       23.048       25.192      276.166      531.227      634.653        0.134        0.072       13.621        4.959        0.133      343.494       19.645      863.582
10/07/2014  10:12:00       -2.546        5.560       14.224       26.032       24.082       21.317      677.685      579.922      454.436        0.098        0.086        6.115       18.651        9.304      343.113       18.995      863.570
10/07/2014  10:13:00       -3.338        9.095       32.676       18.668       22.343       19.627      348.494      499.204      385.236        0.120        0.062        9.688       13.532        1.951      343.624       19.867      863.560
10/07/2014  10:14:00      -10.963        2.444       37.094       24.780       34.599       17.850      614.069     1197.124      318.614        0.182        0.106       11.232       17.246        2.358      343.654       19.919      863.554
10/07/2014  10:15:00        4.097      -28.097       30.117       39.563       31.314       29.138     1565.237      980.543      849.046        0.255        0.170       28.394       23.962        0.712      343.551       19.743      863.549
10/07/2014  10:16:00       24.759      -13.885        8.182       38.565       31.287       25.959     1487.264      978.854      673.863        0.201        0.157       28.387       21.259        0.561      342.879       18.599      863.551
10/07/2014  10:17:00      -10.985        2.298       31.746       30.208       37.026       26.170      912.502     1370.955      684.856        0.205        0.148       11.223       23.438        4.361      343.572       19.779      863.537
10/07/2014  10:18:00       20.880      -46.953       15.274       58.633       62.557       43.308     3437.814     3913.330     1875.550        0.605        0.461       51.387       33.176        0.417      343.265       19.256      863.541
10/07/2014  10:19:00       14.586       15.457       69.961       41.011       67.731       40.456     1681.921     4587.531     1636.677        0.662        0.395       21.253       20.799        0.958      343.497       19.649      863.528
10/07/2014  10:20:00       73.633      -44.508        4.702       46.457       57.375       55.149     2158.294     3291.881     3041.456        0.796        0.425       86.040       50.881        0.350      343.347       19.395      863.534
10/07/2014  10:21:00       20.971       44.449       59.724       41.933       39.976       31.509     1758.374     1598.052      992.803        0.517        0.217       49.147       30.927        0.396      343.276       19.273      863.524
10/07/2014  10:22:00       27.865      -31.116       14.653       47.778       65.223       40.985     2282.704     4254.063     1679.769        0.509        0.411       41.769       43.662        1.093      343.380       19.451      863.507
10/07/2014  10:23:00       11.779        8.864       32.977       29.883       23.426       22.661      892.994      548.776      513.514        0.163        0.098       14.742       13.883        0.887      343.897       20.334      863.504
10/07/2014  10:24:00      -11.252       -2.323       14.818       18.075       30.621       22.970      326.690      937.676      527.632        0.107        0.090       11.489       12.631        1.209      343.308       19.329      863.487
10/07/2014  10:25:00       32.399       31.431       28.584       30.265       29.345       27.338      915.996      861.138      747.348        0.269        0.126       45.139        5.088        0.013      343.479       19.621      863.485
10/07/2014  10:26:00       27.675       26.421       -2.819       21.235       20.405       17.233      450.936      416.382      296.980        0.132        0.058       38.262       10.443        0.074      343.225       19.187      863.485
10/07/2014  10:27:00       32.045        6.159       15.436       40.595       31.768       23.550     1647.971     1009.187      554.583        0.226        0.161       32.632       15.237        0.218      343.604       19.832      863.487
10/07/2014  10:28:00       45.074      -74.811       -0.575       50.531       55.556       32.076     2553.367     3086.449     1028.866        0.715        0.333       87.340       32.746        0.141      343.470       19.604      863.464
10/07/2014  10:29:00        0.411      -64.376       -6.026       28.154       35.410       26.385      792.644     1253.876      696.192        0.346        0.137       64.377       16.849        0.068      343.364       19.424      863.455
10/07/2014  10:30:00      -20.147      -26.513       27.591       22.257       35.559       25.205      495.360     1264.457      635.274        0.213        0.120       33.299       14.338        0.185      344.055       20.602      863.433
10/07/2014  10:31:00       -8.082       -9.961       34.033       19.789       29.294       20.777      391.595      858.120      431.681        0.150        0.084       12.827       12.331        0.924      344.174       20.806      863.430
10/07/2014  10:32:00      -32.489      -42.564        1.197       43.413       20.261       24.626     1884.672      410.508      606.453        0.288        0.145       53.547       13.317        0.062      343.202       19.148      863.416
10/07/2014  10:33:00        6.199      -37.488       -7.394       33.507       31.581       23.543     1122.742      997.346      554.282        0.209        0.134       37.997       15.145        0.159      343.402       19.488      863.405
10/07/2014  10:34:00      -24.101      -28.626       14.637       20.699       26.575       16.250      428.448      706.236      264.070        0.151        0.070       37.421       13.571        0.132      343.695       19.988      863.395
10/07/2014  10:35:00       -6.423       -1.566       19.596       22.434        8.297       15.056      503.281       68.848      226.672        0.061        0.040        6.612       14.527        4.828      344.043       20.583      863.400
10/07/2014  10:36:00        2.892      -22.901        8.722       21.919       36.309       31.748      480.432     1318.311     1007.952        0.171        0.140       23.082       23.631        1.048      343.758       20.096      863.392
10/07/2014  10:37:00       10.481      -50.857       31.366       32.535       66.502       37.795     1058.528     4422.479     1428.433        0.529        0.345       51.926       29.919        0.332      343.866       20.279      863.380
10/07/2014  10:38:00       20.293      -52.125       33.254       28.725       43.041       31.480      825.148     1852.492      991.012        0.395        0.183       55.936       25.700        0.211      343.980       20.474      863.379
10/07/2014  10:39:00       45.098      -30.125       10.671       46.561       43.883       42.858     2167.954     1925.685     1836.819        0.449        0.297       54.234       31.070        0.328      343.274       19.270      863.382
10/07/2014  10:40:00       41.760       12.243       26.479       42.191       32.494       37.627     1780.042     1055.867     1415.776        0.342        0.213       43.518       23.577        0.294      343.398       19.482      863.387
10/07/2014  10:41:00       66.628       55.621       41.096       65.574       28.013       33.524     4299.988      784.740     1123.878        0.771        0.310       86.793       18.484        0.045      343.572       19.777      863.382
10/07/2014  10:42:00       53.390       59.052       23.382       47.865       41.536       30.565     2291.045     1725.257      934.209        0.592        0.248       79.609       17.024        0.046      343.538       19.722      863.390
10/07/2014  10:43:00       44.027       45.450       41.010       33.695       34.271       25.318     1135.353     1174.513      640.992        0.432        0.148       63.278       14.110        0.050      343.951       20.426      863.384
10/07/2014  10:44:00       71.058       50.186       29.195       39.961       34.617       29.050     1596.911     1198.323      843.911        0.603        0.182       86.994       17.328        0.040      343.991       20.494      863.381
10/07/2014  10:45:00       23.897       31.990       31.100       33.825       30.789       29.148     1144.159      947.936      849.606        0.275        0.147       39.930       11.376        0.081      344.251       20.937      863.371
10/07/2014  10:46:00        9.669      -23.586       24.404       22.548       33.006       26.970      508.401     1089.377      727.356        0.178        0.116       25.491       14.402        0.319      343.619       19.859      863.373
10/07/2014  10:47:00       48.202       37.832       32.796       34.558       38.999       26.430     1194.251     1520.893      698.562        0.412        0.171       61.276       11.347        0.034      343.740       20.065      863.361
10/07/2014  10:48:00       62.271      -25.373       -1.380       25.511       38.481       26.580      650.801     1480.762      706.494        0.368        0.142       67.242       20.093        0.089      343.264       19.255      863.356
10/07/2014  10:49:00       56.158      -42.719        8.908       53.209       69.682       42.823     2831.231     4855.609     1833.840        0.729        0.476       70.560       49.752        0.497      343.715       20.023      863.354
10/07/2014  10:50:00       24.254      -52.827       31.451       33.624       61.194       35.423     1130.603     3744.764     1254.777        0.525        0.307       58.128       40.987        0.497      344.009       20.523      863.349
10/07/2014  10:51:00       16.154      -38.404       17.762       34.445       54.458       34.820     1186.469     2965.713     1212.414        0.371        0.268       41.663       34.923        0.703      343.981       20.476      863.345
10/07/2014  10:52:00        8.559      -31.767        7.836       26.852       44.168       32.613      721.028     1950.851     1063.639        0.244        0.187       32.900       24.377        0.549      344.121       20.716      863.336
10/07/2014  10:53:00       18.428       19.996       21.879       24.462       24.249       21.760      598.374      587.992      473.509        0.144        0.083       27.192       18.673        0.472      344.039       20.577      863.336
10/07/2014  10:54:00       28.908       12.680        9.903       19.379       16.387       27.597      375.565      268.526      761.595        0.125        0.070       31.567        8.959        0.081      343.855       20.260      863.320
10/07/2014  10:55:00       28.753      -21.448       15.868       29.822       37.356       25.893      889.378     1395.459      670.456        0.225        0.148       35.871       21.063        0.345      343.930       20.389      863.315
10/07/2014  10:56:00       13.698      -51.068       -3.651       28.689       21.599       23.103      823.085      466.509      533.740        0.232        0.091       52.873       17.960        0.115      343.831       20.219      863.302
10/07/2014  10:57:00        7.980      -10.230       17.154       33.279       24.895       28.271     1107.504      619.775      799.243        0.149        0.126       12.974        8.534        0.433      344.073       20.633      863.298
10/07/2014  10:58:00       44.958      -11.709       16.798       41.202       51.421       30.297     1697.591     2644.167      917.909        0.385        0.263       46.458       33.091        0.507      344.039       20.574      863.293
10/07/2014  10:59:00       57.990       13.404       21.429       41.897       39.100       25.782     1755.400     1528.840      664.697        0.397        0.197       59.519       12.780        0.046      343.731       20.049      863.283
10/07/2014  11:00:00       41.001       11.295       24.058       27.581       30.214       35.933      760.724      912.866     1291.197        0.268        0.148       42.528       29.210        0.472      344.062       20.615      863.278
10/07/2014  11:01:00       28.401       11.343       16.593       31.056       25.891       31.059      964.495      670.359      964.689        0.190        0.130       30.583       19.142        0.392      343.927       20.385      863.259
10/07/2014  11:02:00       -3.652       18.107       44.663       19.515       16.976       14.080      380.827      288.175      198.248        0.160        0.043       18.472       10.777        0.340      344.543       21.435      863.260
10/07/2014  11:03:00        3.139       13.241       22.536       28.898       38.608       22.243      835.075     1490.541      494.766        0.176        0.141       13.608        9.467        0.484      344.376       21.151      863.243
10/07/2014  11:04:00       30.071      -58.760        3.881       56.384       63.395       47.409     3179.190     4018.871     2247.647        0.691        0.472       66.008       38.393        0.338      344.490       21.345      863.231
10/07/2014  11:05:00       26.569      -80.585       -5.007       44.136       82.870       50.531     1948.027     6867.461     2553.343        0.930        0.568       84.852       33.273        0.154      344.439       21.260      863.225
10/07/2014  11:06:00        9.627        6.995       46.084       38.729       58.411       36.130     1499.909     3411.855     1305.405        0.424        0.311       11.900       27.071        5.175      344.626       21.578      863.230
10/07/2014  11:07:00       37.588       31.581       44.777       49.463       35.382       31.031     2446.606     1251.862      962.903        0.454        0.233       49.094       35.234        0.515      344.047       20.589      863.225
10/07/2014  11:08:00       41.261       22.024       28.699       27.949       26.056       23.744      781.159      678.915      563.792        0.252        0.101       46.771       11.959        0.065      344.146       20.758      863.209
10/07/2014  11:09:00       30.661       17.455       24.231       28.347       30.100       24.463      803.532      906.038      598.441        0.207        0.115       35.281       12.004        0.116      344.045       20.586      863.198
10/07/2014  11:10:00      -12.200        0.723       15.440       38.904       20.609       22.023     1513.487      424.751      484.995        0.141        0.121       12.221       18.973        2.410      344.494       21.353      863.176
10/07/2014  11:11:00      -46.769      -13.158      -11.060       17.573       15.904       13.606      308.803      252.931      185.127        0.161        0.037       48.585        9.610        0.039      344.153       20.771      863.168
10/07/2014  11:12:00      -37.228        3.665        4.507       35.637       23.764       21.118     1269.983      564.749      445.967        0.185        0.114       37.408       14.081        0.142      344.551       21.451      863.149
10/07/2014  11:13:00      -29.818       12.911       10.184       27.421       19.555       23.794      751.936      382.386      566.156        0.143        0.085       32.494       17.294        0.283      344.872       21.999      863.138
10/07/2014  11:14:00       31.094       47.943       34.656       30.339       33.539       28.181      920.457     1124.871      794.179        0.365        0.142       57.144       22.501        0.155      344.526       21.409      863.130
10/07/2014  11:15:00       15.881       -9.023       33.684       27.933       27.523       16.023      780.244      757.537      256.724        0.163        0.090       18.265       12.376        0.459      344.612       21.554      863.105
10/07/2014  11:16:00       61.458      -50.634      -11.919       39.791       29.809       31.588     1583.321      888.580      997.814        0.498        0.173       79.630       24.980        0.098      343.784       20.139      863.102
10/07/2014  11:17:00        0.397       -3.657       16.843       19.946       27.493       17.396      397.832      755.841      302.611        0.088        0.073        3.679       17.525       22.696      344.472       21.314      863.089
10/07/2014  11:18:00       24.916       -4.330       24.289       37.041       30.577       23.666     1372.068      934.945      560.102        0.205        0.143       25.289       23.745        0.882      344.614       21.559      863.090
10/07/2014  11:19:00       34.888       33.635        9.752       17.045       21.641       19.493      290.531      468.321      379.987        0.179        0.057       48.462        6.789        0.020      344.226       20.894      863.082
10/07/2014  11:20:00       14.683       18.390        4.052       21.455       13.489       17.294      460.310      181.951      299.098        0.076        0.047       23.532        4.673        0.039      344.504       21.370      863.075
10/07/2014  11:21:00        1.883       -5.961       20.750       22.326       21.197       22.583      498.463      449.321      510.006        0.096        0.073        6.251       17.198        7.569      344.948       22.131      863.069
10/07/2014  11:22:00        9.556       -4.252        8.218       28.053       27.216       27.379      786.980      740.732      749.597        0.123        0.114       10.459       16.960        2.630      344.740       21.774      863.046
10/07/2014  11:23:00       -2.729        3.421       32.175       12.865       36.332       21.871      165.520     1320.049      478.362        0.151        0.098        4.376       22.242       25.836      345.018       22.251      863.048
10/07/2014  11:24:00       38.671      -17.903        3.616       22.237       17.928       21.264      494.503      321.396      452.178        0.155        0.063       42.615       12.318        0.084      344.579       21.498      863.029
10/07/2014  11:25:00       32.964        3.419        5.878       31.625       21.761       23.690     1000.147      473.553      561.197        0.158        0.102       33.140       17.156        0.268      344.806       21.886      863.027
10/07/2014  11:26:00       29.286      -25.582       -3.985       23.698       26.203       21.168      561.576      686.575      448.102        0.161        0.085       38.885       20.620        0.281      344.766       21.819      863.011
10/07/2014  11:27:00      -10.905       19.183       -1.274       22.235       21.830       17.389      494.397      476.536      302.383        0.088        0.064       22.066       10.802        0.240      344.992       22.205      863.004
10/07/2014  11:28:00       17.260        4.781        8.799       20.773       11.189       23.508      431.522      125.195      552.646        0.075        0.055       17.910       13.162        0.540      345.461       23.009      862.990
10/07/2014  11:29:00       15.864       38.214       -5.788       37.934       27.488       22.174     1438.973      755.600      491.690        0.222        0.134       41.376       10.346        0.063      344.665       21.645      862.973
10/07/2014  11:30:00       27.963       13.416       27.253       30.986       25.073       23.676      960.143      628.667      560.575        0.193        0.107       31.015       11.984        0.149      344.973       22.172      862.963
10/07/2014  11:31:00        5.293      -37.739        8.532       15.327       24.572       16.870      234.924      603.767      284.609        0.132        0.056       38.108       11.958        0.098      344.880       22.012      862.957
10/07/2014  11:32:00      -12.671      -30.073       -4.611       23.810       18.340       14.580      566.935      336.362      212.571        0.110        0.056       32.634       12.029        0.136      344.882       22.016      862.947
10/07/2014  11:33:00      -43.985        9.804      -16.043       16.594       17.871       12.131      275.374      319.358      147.165        0.151        0.037       45.064        9.770        0.047      344.787       21.855      862.933
10/07/2014  11:34:00      -36.373       36.783       -9.705       16.036       25.368       22.959      257.146      643.546      527.103        0.210        0.071       51.730       18.368        0.126      344.967       22.163      862.920
10/07/2014  11:35:00        3.150       26.121       21.151       17.749       20.605       23.164      315.035      424.546      536.587        0.121        0.064       26.310       17.691        0.452      345.476       23.036      862.913
10/07/2014  11:36:00       -2.494       51.128       12.788       14.841       22.704       18.865      220.268      515.455      355.901        0.194        0.055       51.189       16.617        0.105      345.364       22.843      862.896
10/07/2014  11:37:00       23.660        8.525       23.205       31.810       32.868       24.330     1011.873     1080.318      591.953        0.193        0.134       25.149       25.515        1.029      345.368       22.849      862.887
10/07/2014  11:38:00       -9.022      -25.689       -3.068       25.376       18.159       18.982      643.952      329.739      360.318        0.104        0.067       27.227       14.168        0.271      345.099       22.387      862.877
10/07/2014  11:39:00        0.313       29.604       18.854       31.743       24.464       29.881     1007.592      598.511      892.882        0.187        0.125       29.605       20.134        0.463      345.237       22.625      862.858
10/07/2014  11:40:00       16.145       37.340        3.406       25.313       22.750       23.221      640.773      517.578      539.204        0.168        0.085       40.681       11.439        0.079      345.208       22.574      862.829
10/07/2014  11:41:00      -35.146       53.881       -2.097       30.242       30.462       21.055      914.551      927.931      443.310        0.321        0.114       64.331       18.054        0.079      345.407       22.916      862.818
10/07/2014  11:42:00      -20.408       57.064        0.383       16.901       28.757       26.399      285.629      826.987      696.888        0.274        0.090       60.604       20.644        0.116      345.547       23.157      862.798
10/07/2014  11:43:00       10.559       12.000       24.509       18.931       16.412       19.769      358.401      269.361      390.814        0.094        0.051       15.984       11.997        0.563      346.021       23.968      862.791
10/07/2014  11:44:00       33.277       22.917       23.337       25.761       22.044       21.204      663.622      485.929      449.594        0.189        0.080       40.405       14.020        0.120      345.929       23.811      862.778
10/07/2014  11:45:00       38.694       22.370       10.004       37.485       22.158       20.698     1405.120      490.979      428.414        0.221        0.116       44.695       18.509        0.171      345.628       23.295      862.771
10/07/2014  11:46:00       29.436        6.469       24.617       26.863       30.300       22.058      721.609      918.104      486.575        0.182        0.106       30.138       13.957        0.214      345.685       23.393      862.760
10/07/2014  11:47:00       47.528      -10.598       40.319       57.290       45.058       37.883     3282.187     2030.217     1435.154        0.537        0.337       48.695       28.947        0.353      345.337       22.796      862.750
10/07/2014  11:48:00       20.885        1.199       50.587       42.876       63.793       40.627     1838.341     4069.488     1650.549        0.528        0.378       20.919       39.767        3.614      345.488       23.053      862.746
10/07/2014  11:49:00       18.800      -24.752       31.690       24.876       34.964       22.277      618.793     1222.466      496.285        0.215        0.117       31.082       11.013        0.126      345.705       23.426      862.725
10/07/2014  11:50:00       31.579      -29.150       11.727       46.418       37.825       33.227     2154.632     1430.765     1104.032        0.334        0.234       42.976       30.113        0.491      345.094       22.381      862.708
10/07/2014  11:51:00       84.319       86.883       70.752       60.767       36.229       34.661     3692.599     1312.547     1201.382        1.293        0.310      121.071       14.231        0.014      345.355       22.826      862.691
10/07/2014  11:52:00       32.720       38.077       56.614       33.197       30.384       23.514     1102.039      923.192      552.919        0.415        0.129       50.204       11.384        0.051      345.531       23.127      862.687
10/07/2014  11:53:00       26.172       29.488       15.157       24.957       46.759       32.444      622.833     2186.415     1052.588        0.282        0.193       39.428       27.387        0.483      345.548       23.156      862.676
10/07/2014  11:54:00       40.925       -8.985       35.533       22.712       30.946       22.727      515.853      957.670      516.513        0.250        0.100       41.900       15.729        0.141      345.540       23.144      862.669
10/07/2014  11:55:00       19.938      -19.584       18.035       22.032       20.776       15.991      485.413      431.638      255.707        0.114        0.059       27.948       11.140        0.159      345.515       23.101      862.656
10/07/2014  11:56:00       41.823       15.185       19.746       24.916       22.468       17.457      620.793      504.819      304.759        0.190        0.072       44.495       14.525        0.107      345.494       23.064      862.645
10/07/2014  11:57:00       10.129      -13.897       11.498       16.827       21.115       20.528      283.151      445.859      421.388        0.079        0.058       17.197       17.766        1.067      345.884       23.735      862.628
10/07/2014  11:58:00      -28.245       -4.125      -14.875       18.142       28.565       17.707      329.116      815.967      313.521        0.125        0.073       28.545       17.041        0.356      345.721       23.453      862.616
10/07/2014  11:59:00      -11.400       34.203       12.829       15.219       25.550       19.280      231.620      652.795      371.733        0.136        0.063       36.053       16.607        0.212      346.401       24.622      862.599
10/07/2014  12:00:00      -46.502        6.350       -3.764       30.971       22.616       16.389      959.221      511.493      268.605        0.198        0.087       46.933       11.595        0.061      346.087       24.082      862.593
10/07/2014  12:01:00      -14.367      -47.984        2.235       23.545       31.004       16.681      554.377      961.223      278.247        0.215        0.090       50.089       10.474        0.044      345.889       23.741      862.578
10/07/2014  12:02:00       14.399      -30.404       13.822       28.954       37.144       28.339      838.320     1379.646      803.090        0.217        0.151       33.642       26.060        0.600      346.290       24.432      862.564
10/07/2014  12:03:00      -23.880      -31.355       13.112       21.638       41.259       23.814      468.210     1702.343      567.125        0.223        0.137       39.413       23.059        0.342      346.280       24.414      862.544
10/07/2014  12:04:00       13.274      -51.016        8.340       47.479       41.141       34.633     2254.208     1692.600     1199.416        0.400        0.257       52.715       27.061        0.264      346.204       24.283      862.541
10/07/2014  12:05:00       -0.107       -6.965       25.391       34.256       42.634       30.057     1173.480     1817.668      903.426        0.229        0.195        6.966       30.131       18.711      346.373       24.573      862.518
10/07/2014  12:06:00      -15.584        7.033       43.032       22.886       21.402       29.680      523.782      458.044      880.904        0.200        0.093       17.098       21.389        1.565      346.800       25.308      862.510
10/07/2014  12:07:00       -6.757       40.794       61.451       16.627       35.817       25.144      276.447     1282.889      632.218        0.384        0.110       41.349       20.353        0.242      346.692       25.123      862.497
10/07/2014  12:08:00       58.862       46.442       19.116       55.403       36.698       34.390     3069.481     1346.736     1182.671        0.579        0.280       74.977       35.094        0.219      346.630       25.017      862.489
10/07/2014  12:09:00       85.396       61.676        8.600       32.595       30.765       33.958     1062.423      946.472     1153.132        0.717        0.158      105.339       25.473        0.058      346.332       24.504      862.474
10/07/2014  12:10:00       22.744       40.819       17.920       35.985       41.882       30.832     1294.914     1754.138      950.598        0.325        0.200       46.728       25.484        0.297      346.524       24.833      862.461
10/07/2014  12:11:00       10.970       14.553       18.503       30.669       34.270       27.119      940.592     1174.464      735.447        0.176        0.143       18.224       17.635        0.936      346.682       25.106      862.443
10/07/2014  12:12:00       83.184       55.451       14.835       53.657       28.703       28.365     2879.110      823.847      804.590        0.736        0.225       99.972       14.934        0.022      346.259       24.378      862.439
10/07/2014  12:13:00       91.169       69.024       14.104       40.754       31.939       36.192     1660.876     1020.122     1309.869        0.863        0.200      114.351       20.706        0.033      346.153       24.196      862.424
10/07/2014  12:14:00      109.160       69.886       23.788       54.008       38.001       32.973     2916.880     1444.106     1087.198        1.141        0.272      129.615       22.377        0.030      346.180       24.242      862.406
10/07/2014  12:15:00       42.500       34.817       27.884       40.110       43.255       26.361     1608.808     1871.018      694.894        0.398        0.209       54.940       17.050        0.096      346.698       25.133      862.391
10/07/2014  12:16:00       39.358       60.173       27.558       37.418       32.996       26.671     1400.110     1088.725      711.319        0.456        0.160       71.902       20.779        0.084      346.634       25.022      862.373
10/07/2014  12:17:00       40.847       44.497       10.591       92.312       48.684       32.288     8521.573     2370.134     1042.539        0.785        0.597       60.403       26.025        0.186      346.694       25.126      862.362
10/07/2014  12:18:00       99.044       76.187       -6.106       53.811       34.313       34.023     2895.585     1177.410     1157.550        1.044        0.262      124.957       22.289        0.032      346.348       24.530      862.348
10/07/2014  12:19:00       99.757       66.639       19.835       65.508       36.582       42.058     4291.303     1338.256     1768.889        1.109        0.370      119.967       24.933        0.043      346.233       24.332      862.337
10/07/2014  12:20:00      112.473       77.534        1.782       49.745       39.163       34.294     2474.603     1533.709     1176.055        1.192        0.259      136.607       17.264        0.016      346.296       24.441      862.320
10/07/2014  12:21:00       38.974       44.089       -2.195       36.300       22.898       27.139     1317.692      524.302      736.517        0.302        0.129       58.846       15.677        0.071      346.352       24.538      862.317
10/07/2014  12:22:00       31.900       61.222        8.062       53.567       45.881       45.975     2869.408     2105.073     2113.690        0.596        0.354       69.034       34.641        0.252      346.501       24.794      862.294
10/07/2014  12:23:00       22.400       70.734        0.268       40.606       52.042       30.959     1648.862     2708.397      958.473        0.541        0.266       74.196       32.767        0.195      346.561       24.898      862.287
10/07/2014  12:24:00       63.312       53.876       16.624       49.250       33.742       29.890     2425.520     1138.502      893.395        0.582        0.223       83.133       19.480        0.055      346.753       25.228      862.277
10/07/2014  12:25:00      174.588      101.280       -0.375       61.513       38.299       30.438     3783.849     1466.816      926.494        2.346        0.309      201.838       17.759        0.008      346.188       24.254      862.272
10/07/2014  12:26:00      197.213      140.069       26.769       67.773       63.522       51.840     4593.240     4035.044     2687.412        3.527        0.566      241.894       40.242        0.028      346.274       24.399      862.258
10/07/2014  12:27:00      129.721       73.370        6.033       56.068       36.927       30.644     3143.573     1363.634      939.085        1.385        0.272      149.032       15.409        0.011      346.156       24.201      862.268
10/07/2014  12:28:00       93.075       75.907       10.179       22.975       21.706       23.470      527.841      471.165      550.858        0.804        0.077      120.104       14.645        0.015      346.036       23.994      862.253
10/07/2014  12:29:00       65.630       55.025       29.440       22.795       29.447       27.107      519.614      867.133      734.797        0.516        0.106       85.645       20.825        0.059      346.310       24.465      862.239
10/07/2014  12:30:00       78.891       66.796       15.670       41.139       30.643       29.763     1692.392      939.005      885.832        0.722        0.176      103.371       23.326        0.051      346.490       24.776      862.218
10/07/2014  12:31:00       31.008       46.539        9.827       36.452       35.036       34.190     1328.726     1227.546     1168.949        0.347        0.186       55.923       25.895        0.214      346.581       24.933      862.199
10/07/2014  12:32:00       22.188       14.500       18.759       25.312       33.971       21.823      640.674     1154.015      476.234        0.166        0.114       26.506       16.883        0.406      346.963       25.588      862.187
10/07/2014  12:33:00        4.520      -33.493        4.995       20.188       26.817       18.960      407.569      719.158      359.484        0.133        0.074       33.796       14.502        0.184      346.880       25.447      862.173
10/07/2014  12:34:00       56.498       30.395       20.311       49.819       40.192       36.820     2481.930     1615.372     1355.690        0.499        0.273       64.155       26.354        0.169      347.068       25.770      862.161
10/07/2014  12:35:00       70.224       56.059       21.045       63.542       39.890       38.262     4037.582     1591.202     1463.986        0.780        0.355       89.855       29.486        0.108      347.044       25.727      862.149
10/07/2014  12:36:00       82.870       69.174       10.148       65.705       43.837       40.017     4317.163     1921.660     1601.367        0.980        0.392      107.946       27.883        0.067      346.951       25.569      862.142
10/07/2014  12:37:00       85.572       36.940       10.927       63.738       48.552       41.841     4062.587     2357.298     1750.690        0.849        0.409       93.204       26.459        0.081      347.155       25.919      862.131
10/07/2014  12:38:00       75.706       57.404       38.647       62.166       49.831       57.404     3864.668     2483.090     3295.199        1.008        0.482       95.009       31.048        0.107      347.120       25.860      862.118
10/07/2014  12:39:00      130.290       71.895       26.208       70.417       48.033       42.343     4958.621     2307.164     1792.925        1.594        0.453      148.810       40.267        0.073      346.777       25.269      862.123
10/07/2014  12:40:00      131.436       82.176       34.959       49.793       48.598       35.886     2479.364     2361.771     1287.839        1.569        0.306      155.011       20.016        0.017      346.630       25.016      862.105
10/07/2014  12:41:00       57.116       47.119       42.342       62.963       44.059       42.605     3964.362     1941.197     1815.190        0.750        0.386       74.044       39.076        0.279      347.094       25.813      862.091
10/07/2014  12:42:00       92.963       55.328       15.962       56.453       43.046       46.445     3186.919     1852.980     2157.146        0.958        0.360      108.182       32.984        0.093      346.757       25.235      862.078
10/07/2014  12:43:00       50.945       72.755       -0.752       55.328       51.888       31.147     3061.148     2692.390      970.161        0.731        0.336       88.818       26.177        0.087      346.895       25.473      862.057
10/07/2014  12:44:00      171.072      109.540       26.316       52.047       40.376       44.012     2708.888     1630.184     1937.028        2.412        0.314      203.137       20.051        0.010      346.739       25.201      862.039
10/07/2014  12:45:00       50.970       41.213       10.654       31.716       33.321       32.727     1005.910     1110.306     1071.071        0.380        0.159       65.548       20.877        0.101      346.816       25.334      862.030
10/07/2014  12:46:00       23.703       38.911       14.132       31.727       31.949       26.742     1006.591     1020.727      715.153        0.251        0.137       45.562       21.672        0.226      346.959       25.583      862.014
10/07/2014  12:47:00       35.855       56.867        2.978       48.600       39.754       40.862     2361.972     1580.373     1669.679        0.507        0.281       67.227       29.250        0.189      347.176       25.956      861.992
10/07/2014  12:48:00       69.744      -45.733        6.454       40.897       60.292       32.337     1672.536     3635.183     1045.696        0.667        0.318       83.401       38.275        0.211      347.012       25.675      861.987
10/07/2014  12:49:00       42.522       -0.863       37.091       45.793       80.267       37.050     2097.043     6442.782     1372.679        0.655        0.496       42.530       48.404        1.295      347.273       26.123      861.964
10/07/2014  12:50:00       37.580       51.360       35.477       34.219       31.477       26.361     1170.920      990.782      694.890        0.408        0.143       63.640       11.654        0.034      347.423       26.383      861.943
10/07/2014  12:51:00       25.801       62.291       66.110       37.929       36.957       39.198     1438.621     1365.798     1536.520        0.663        0.217       67.423       25.353        0.141      347.582       26.656      861.920
10/07/2014  12:52:00       29.124       43.243       66.153       52.238       68.132       39.934     2728.811     4641.956     1594.721        0.803        0.448       52.136       37.738        0.524      347.459       26.442      861.896
10/07/2014  12:53:00       74.428       81.772       88.803       91.646       96.556       57.411     8398.911     9323.056     3295.978        2.056        1.051      110.572       59.349        0.288      347.286       26.145      861.881
10/07/2014  12:54:00      126.222       57.810       58.590       75.765       84.438       60.585     5740.277     7129.794     3670.536        1.962        0.827      138.831       58.815        0.179      346.908       25.493      861.868
10/07/2014  12:55:00       77.614       92.192       76.610       72.308       45.410       50.688     5228.501     2062.052     2569.246        1.512        0.493      120.513       38.927        0.104      346.954       25.573      861.853
10/07/2014  12:56:00       38.678       57.407       69.559       44.499       44.126       34.286     1980.165     1947.072     1175.530        0.737        0.255       69.221       35.981        0.270      347.175       25.953      861.851
10/07/2014  12:57:00       15.380       22.913       25.602       34.414       31.804       34.106     1184.326     1011.470     1163.232        0.239        0.168       27.596       32.035        1.348      347.366       26.283      861.813
10/07/2014  12:58:00       66.015       65.181       68.918       76.052       72.164       51.545     5783.954     5207.706     2656.853        1.350        0.682       92.772       58.214        0.394      347.367       26.284      861.786
10/07/2014  12:59:00       18.853       35.011       57.022       58.880       83.133       52.719     3466.889     6911.093     2779.344        0.899        0.658       39.764       51.445        1.674      347.288       26.150      861.767
10/07/2014  13:00:00       53.477      -23.620       32.481       55.937       35.905       36.977     3128.959     1289.184     1367.274        0.513        0.289       58.461       33.054        0.320      347.407       26.354      861.738
10/07/2014  13:01:00       44.297       33.465       32.751       33.671       35.717       29.557     1133.752     1275.696      873.644        0.372        0.164       55.517       24.825        0.200      347.299       26.169      861.727
10/07/2014  13:02:00       43.612       51.919       29.867       33.704       28.525       39.998     1135.945      813.685     1599.837        0.452        0.177       67.806       25.396        0.140      347.600       26.688      861.709
10/07/2014  13:03:00       69.852       46.226        8.445       45.459       36.509       30.815     2066.481     1332.911      949.550        0.572        0.217       83.762       18.412        0.048      347.340       26.239      861.686
10/07/2014  13:04:00       63.377      -11.823       24.586       79.771      102.920       50.935     6363.470    10592.490     2594.348        1.215        0.978       64.470       60.742        0.888      347.614       26.710      861.676
10/07/2014  13:05:00       79.725     -107.166       16.768       75.197      107.156       58.210     5654.581    11482.394     3388.412        1.932        1.026      133.569       62.700        0.220      347.530       26.564      861.650
10/07/2014  13:06:00       40.797       61.742       81.633       63.629       89.444       50.756     4048.659     8000.161     2576.198        1.338        0.731       74.003       53.045        0.514      347.428       26.389      861.648
10/07/2014  13:07:00       54.299       21.284       48.303       45.274       61.289       34.832     2049.744     3756.327     1213.278        0.638        0.351       58.321       28.944        0.246      347.358       26.270      861.644
10/07/2014  13:08:00      238.498      125.473       41.718       95.947       65.845       57.434     9205.780     4335.525     3298.720        4.560        0.842      269.490       29.015        0.012      347.140       25.890      861.625
10/07/2014  13:09:00      137.545       89.395       24.839       71.663       52.754       48.253     5135.615     2782.950     2328.392        1.889        0.512      164.043       27.217        0.028      347.220       26.029      861.631
10/07/2014  13:10:00      137.097       77.733        9.743       51.709       40.509       34.210     2673.828     1640.941     1170.317        1.521        0.274      157.601       23.418        0.022      347.156       25.922      861.617
10/07/2014  13:11:00      123.595       76.809       27.079       80.533       66.850       69.472     6485.629     4468.867     4826.352        1.884        0.789      145.517       32.122        0.049      347.290       26.149      861.596
10/07/2014  13:12:00      147.683       85.037       23.126       65.934       52.232       43.333     4347.319     2728.151     1877.765        1.926        0.448      170.416       32.055        0.035      347.062       25.758      861.587
10/07/2014  13:13:00       63.409       55.217       -9.485       55.611       65.091       42.443     3092.570     4236.801     1801.370        0.814        0.457       84.081       20.385        0.059      347.283       26.140      861.580
10/07/2014  13:14:00       56.617       65.550        1.747       49.224       59.855       36.111     2423.010     3582.590     1304.017        0.741        0.365       86.616       38.585        0.198      347.544       26.589      861.559
10/07/2014  13:15:00       81.322       70.089        3.214       62.924       37.084       28.165     3959.491     1375.213      793.259        0.883        0.306      107.358       25.229        0.055      347.286       26.145      861.545
10/07/2014  13:16:00        3.763       39.332      -12.086       24.757       37.843       22.271      612.931     1432.097      495.987        0.212        0.127       39.511       16.429        0.173      347.396       26.335      861.538
10/07/2014  13:17:00      142.249       78.945       46.997       78.359       60.831       55.332     6140.200     3700.352     3061.676        2.079        0.645      162.687       40.442        0.062      347.309       26.183      861.522
10/07/2014  13:18:00      194.179      136.429       13.067       59.931       43.227       38.876     3591.696     1868.532     1511.340        3.173        0.349      237.315       17.742        0.006      347.253       26.084      861.498
10/07/2014  13:19:00      125.529       84.140       53.105       75.893       50.719       49.962     5759.697     2572.437     2496.209        1.824        0.541      151.120       37.578        0.062      347.739       26.925      861.485
10/07/2014  13:20:00      129.658       92.150       45.763       72.372       61.392       45.132     5237.740     3768.949     2036.938        1.922        0.552      159.068       35.979        0.051      347.496       26.507      861.482
10/07/2014  13:21:00       35.484       39.734       63.482       56.207       57.360       38.454     3159.173     3290.206     1478.725        0.740        0.396       53.272       32.833        0.380      347.707       26.871      861.466
10/07/2014  13:22:00       41.377       69.951       78.923       60.086       54.382       39.290     3610.336     2957.351     1543.687        1.047        0.406       81.272       32.181        0.157      347.748       26.941      861.437
10/07/2014  13:23:00       51.513       49.171       56.535       63.970       83.214       60.199     4092.146     6924.581     3623.926        1.145        0.732       71.213       56.565        0.631      347.503       26.520      861.426
10/07/2014  13:24:00        4.291        0.063       29.272       28.188       79.165       43.098      794.553     6267.120     1857.397        0.490        0.446        4.292       45.513      112.464      347.673       26.812      861.403
10/07/2014  13:25:00       69.250       27.573       32.322       43.237       36.954       35.696     1869.408     1365.628     1274.203        0.555        0.225       74.537       21.063        0.080      347.485       26.488      861.389
10/07/2014  13:26:00       34.024       51.272       38.013       35.145       27.946       43.031     1235.146      780.963     1851.627        0.455        0.193       61.535       25.068        0.166      347.749       26.943      861.361
10/07/2014  13:27:00       37.749       11.086       36.152       47.910       65.933       49.416     2295.376     4347.108     2441.978        0.597        0.454       39.344       47.598        1.464      347.995       27.368      861.349
10/07/2014  13:28:00      123.636       58.273       29.411       66.127       45.297       41.084     4372.716     2051.851     1687.868        1.383        0.406      136.681       37.739        0.076      347.685       26.834      861.342
10/07/2014  13:29:00       22.205       55.177       62.725       55.654       64.468       50.999     3097.332     4156.073     2600.924        0.866        0.493       59.477       43.431        0.533      347.946       27.284      861.313
10/07/2014  13:30:00      131.182       96.467       49.463       89.243       62.795       55.379     7964.329     3943.248     3066.834        2.197        0.749      162.833       44.432        0.074      347.621       26.721      861.301
10/07/2014  13:31:00      116.497       92.961       49.220      117.420       67.102       37.087    13787.447     4502.650     1375.468        2.215        0.983      149.041       22.683        0.023      347.754       26.950      861.305
10/07/2014  13:32:00       -3.369       -6.203        2.367       22.412       40.444       25.341      502.283     1635.749      642.156        0.142        0.139        7.059       19.956        7.991      348.014       27.403      861.294
10/07/2014  13:33:00       72.688       56.035       15.278       69.482       48.966       34.630     4827.817     2397.681     1199.219        0.854        0.421       91.780       33.463        0.133      347.835       27.092      861.279
10/07/2014  13:34:00      152.558       97.599       47.532       61.717       66.644       52.468     3809.017     4441.420     2752.915        2.303        0.550      181.106       28.253        0.024      347.645       26.763      861.250
10/07/2014  13:35:00      197.885      142.245       30.033       48.525       45.247       47.669     2354.628     2047.261     2272.371        3.348        0.334      243.705       22.939        0.009      347.555       26.604      861.243
10/07/2014  13:36:00      139.127       99.477       25.578       43.685       38.766       32.169     1908.387     1502.783     1034.825        1.718        0.222      171.032       17.267        0.010      347.597       26.681      861.236
10/07/2014  13:37:00      118.401       74.066       18.000       50.560       46.873       42.651     2556.300     2197.081     1819.118        1.320        0.329      139.659       29.012        0.043      347.517       26.543      861.225
10/07/2014  13:38:00       79.195       69.277       16.260       33.970       38.110       33.830     1153.986     1452.392     1144.490        0.754        0.188      105.219       12.339        0.014      347.676       26.818      861.196
10/07/2014  13:39:00       73.583       54.672       18.607       54.022       34.959       44.301     2918.384     1222.143     1962.583        0.743        0.305       91.671       30.713        0.112      347.829       27.083      861.173
10/07/2014  13:40:00       58.246       44.492       41.513       57.273       30.666       23.880     3280.213      940.419      570.276        0.594        0.240       73.294       20.333        0.077      348.196       27.717      861.169
10/07/2014  13:41:00       22.115      -38.148       11.778       62.278       74.305       29.424     3878.535     5521.285      865.801        0.617        0.513       44.095       42.314        0.921      348.286       27.871      861.152
10/07/2014  13:42:00       85.065       23.101       60.261       80.420      126.260       62.981     6467.449    15941.465     3966.608        1.888        1.319       88.145       76.097        0.745      347.991       27.360      861.117
10/07/2014  13:43:00      102.499       69.628       93.936       94.064       83.865       71.952     8848.084     7033.420     5177.045        2.261        1.053      123.912       67.585        0.297      347.717       26.886      861.109
10/07/2014  13:44:00       30.981      -84.107       -4.051       40.293       29.447       31.078     1623.525      867.098      965.871        0.575        0.173       89.632       17.078        0.036      347.702       26.863      861.103
10/07/2014  13:45:00       30.428      -82.463       -8.539       19.195       19.656       15.893      368.432      386.377      252.584        0.440        0.050       87.898       10.859        0.015      347.463       26.449      861.082
10/07/2014  13:46:00       33.871      -11.542       15.022       19.533       53.015       23.588      381.530     2810.570      556.383        0.263        0.187       35.784       26.989        0.569      347.925       27.247      861.056
10/07/2014  13:47:00       33.092       30.411        8.439       35.495       28.399       26.900     1259.872      806.504      723.585        0.244        0.139       44.944       12.631        0.079      348.107       27.561      861.058
10/07/2014  13:48:00        6.165      191.484      -34.024       51.740       60.156       27.744     2677.045     3618.776      769.743        2.246        0.353      191.584       26.289        0.019      347.557       26.611      861.043
10/07/2014  13:49:00      -10.955      146.488       -1.821       43.308      100.591       41.429     1875.545    10118.457     1716.338        1.764        0.686      146.897       39.880        0.074      347.969       27.322      861.021
10/07/2014  13:50:00        0.774      133.739       -8.226       44.433       75.032       36.832     1974.298     5629.771     1356.625        1.346        0.448      133.742       34.898        0.068      348.074       27.503      861.002
10/07/2014  13:51:00       41.008       85.720       16.496       52.429       76.182       54.942     2748.849     5803.710     3018.589        1.043        0.579       95.024       40.349        0.180      347.930       27.256      860.991
10/07/2014  13:52:00      127.407       80.013       19.605       84.957       61.192       31.059     7217.650     3744.509      964.680        1.747        0.596      150.448       24.283        0.026      347.911       27.222      860.967
10/07/2014  13:53:00      164.089      122.241       24.227       52.236       43.742       40.291     2728.588     1913.347     1623.372        2.436        0.313      204.617       15.845        0.006      347.655       26.779      860.958
10/07/2014  13:54:00       74.094       47.151        6.388       50.078       31.790       27.758     2507.777     1010.617      770.499        0.602        0.214       87.825       20.214        0.053      347.768       26.977      860.948
10/07/2014  13:55:00       95.582       58.244       11.841       45.801       40.766       32.684     2097.717     1661.892     1068.224        0.875        0.241      111.930       18.185        0.026      347.856       27.128      860.933
10/07/2014  13:56:00       25.220      -12.200       15.110       49.981       25.344       21.870     2498.106      642.313      478.293        0.232        0.181       28.016       17.826        0.405      348.178       27.684      860.916
10/07/2014  13:57:00       19.272      -20.686       21.692       27.035       40.177       26.848      730.895     1614.200      720.811        0.217        0.153       28.272       17.426        0.380      348.231       27.778      860.907
10/07/2014  13:58:00       15.622      -55.237        9.824       29.080       66.836       38.525      845.618     4467.055     1484.170        0.509        0.340       57.404       34.487        0.361      348.119       27.582      860.891
10/07/2014  13:59:00       18.669      -66.402      -14.322       24.687       39.526       20.240      609.452     1562.328      409.677        0.377        0.129       68.977       14.511        0.044      347.686       26.836      860.890
10/07/2014  14:00:00       18.268      -12.665       -2.342       23.732       37.301       22.142      563.201     1391.344      490.277        0.147        0.122       22.229       19.504        0.770      348.037       27.442      860.880
10/07/2014  14:01:00      -18.918      -30.738       26.281       30.627       47.741       26.139      938.007     2279.202      683.224        0.295        0.195       36.093       16.913        0.220      348.594       28.404      860.876
10/07/2014  14:02:00       30.603       32.773       56.200       38.824       45.474       29.518     1507.300     2067.864      871.301        0.481        0.222       44.840       26.498        0.349      348.217       27.752      860.868
10/07/2014  14:03:00       38.778       33.413       32.333       42.992       38.074       21.591     1848.335     1449.666      466.169        0.371        0.188       51.188       12.047        0.055      347.907       27.218      860.853
10/07/2014  14:04:00       16.412       11.351        4.464       27.450       25.542       18.117      753.527      652.400      328.221        0.108        0.087       19.955       17.781        0.794      348.404       28.075      860.842
10/07/2014  14:05:00      -15.191      -18.186       -0.333       42.830       38.579       23.384     1834.451     1488.364      546.831        0.221        0.193       23.696       21.209        0.801      348.060       27.480      860.818
10/07/2014  14:06:00      -42.778      -25.388      -17.559       31.644       62.265       24.498     1001.316     3876.908      600.166        0.413        0.274       49.745        5.720        0.013      347.752       26.947      860.805
10/07/2014  14:07:00       -0.936       26.050       -8.874       14.704       28.052       14.992      216.208      786.912      224.759        0.099        0.061       26.067       11.970        0.211      347.999       27.374      860.784
10/07/2014  14:08:00      -43.166      103.143      -16.791       39.203       61.827       25.440     1536.888     3822.529      647.174        0.939        0.300      111.811       33.762        0.091      348.030       27.428      860.758
10/07/2014  14:09:00      -24.599      185.598      -15.277       42.532       74.130       35.923     1808.995     5495.247     1290.484        2.194        0.430      187.221       44.156        0.056      347.959       27.305      860.734
10/07/2014  14:10:00        6.344       27.868       14.297       53.127       41.074       35.333     2822.491     1687.059     1248.431        0.339        0.288       28.581       33.751        1.394      348.403       28.072      860.713
10/07/2014  14:11:00        3.283       38.755       -7.738       26.658       28.055       24.738      710.663      787.068      611.946        0.184        0.105       38.894       20.602        0.281      348.290       27.878      860.702
10/07/2014  14:12:00      -48.696      -43.168       -4.560       36.540       37.800       22.357     1335.192     1428.832      499.857        0.376        0.163       65.075       17.842        0.075      348.178       27.684      860.684
10/07/2014  14:13:00     -193.584      -26.839      -19.197       56.218       53.819       30.627     3160.462     2896.452      938.029        2.278        0.350      195.436       24.950        0.016      347.895       27.194      860.659
10/07/2014  14:14:00      -74.116      -27.209      -11.145       59.525       44.606       30.824     3543.224     1989.684      950.119        0.642        0.324       78.953       16.418        0.043      348.339       27.963      860.644
10/07/2014  14:15:00      -38.844      -35.478        4.922       87.442       49.017       40.948     7646.132     2402.663     1676.728        0.726        0.586       52.607       37.723        0.514      348.264       27.832      860.621
10/07/2014  14:16:00      -84.753      -34.495       13.881       94.879       60.731       31.033     9002.037     3688.314      963.019        1.111        0.683       91.504       42.113        0.212      348.429       28.118      860.613
10/07/2014  14:17:00     -145.727      -43.424        1.196       33.198       40.679       24.400     1102.076     1654.820      595.340        1.324        0.168      152.059       14.268        0.009      347.961       27.308      860.611
10/07/2014  14:18:00     -146.289       17.873       -8.421       37.900       54.324       30.031     1436.433     2951.102      901.881        1.354        0.264      147.376       21.829        0.022      348.080       27.516      860.596
10/07/2014  14:19:00     -117.980      -22.174      -10.676       56.619       52.044       26.851     3205.692     2708.584      720.982        1.058        0.332      120.045       25.589        0.045      348.251       27.810      860.581
10/07/2014  14:20:00     -106.045       35.490       -7.849       53.801       30.177       32.119     2894.529      910.666     1031.650        0.870        0.242      111.826       35.596        0.101      348.244       27.800      860.572
10/07/2014  14:21:00      -69.369       20.617      -20.722       47.247       24.866       10.923     2232.310      618.304      119.322        0.432        0.148       72.368        7.680        0.011      347.923       27.244      860.556
10/07/2014  14:22:00       10.445       -3.678       17.446       24.212       24.551       23.447      586.215      602.765      549.765        0.108        0.087       11.073       17.356        2.457      348.489       28.223      860.549
10/07/2014  14:23:00      -19.204       28.748       12.881       35.728       54.019       27.571     1276.500     2918.071      760.182        0.316        0.248       34.573       25.836        0.558      348.330       27.947      860.542
10/07/2014  14:24:00       39.188       69.604       -5.981       30.176       37.720       28.972      910.578     1422.819      839.376        0.479        0.159       79.878       27.569        0.119      348.167       27.665      860.533
10/07/2014  14:25:00       57.197       22.328       -5.568       22.408       30.807       23.959      502.112      949.044      574.016        0.291        0.101       61.401       19.074        0.096      348.003       27.382      860.538
10/07/2014  14:26:00       33.821       22.758        6.288       31.541       25.254       26.998      994.834      637.763      728.913        0.203        0.118       40.765       21.976        0.291      348.083       27.522      860.526
10/07/2014  14:27:00       -8.978      102.028      -12.605       31.576       41.018       26.648      997.033     1682.438      710.142        0.702        0.169      102.422       22.877        0.050      348.166       27.664      860.511
10/07/2014  14:28:00      -30.381       -4.848        7.329       35.196       53.156       25.215     1238.735     2825.542      635.777        0.285        0.235       30.765       16.026        0.271      348.562       28.351      860.502
10/07/2014  14:29:00       -9.946      -38.893        0.232       33.710       23.022       20.289     1136.343      530.000      411.626        0.184        0.104       40.145       20.334        0.257      348.100       27.550      860.479
10/07/2014  14:30:00      -10.924      -49.385       -0.103       27.107       27.817       27.028      734.769      773.789      730.486        0.240        0.112       50.579       18.519        0.134      348.101       27.552      860.462
10/07/2014  14:31:00       26.032      -31.374        9.622       20.286       36.555       19.603      411.523     1336.288      384.285        0.194        0.107       40.768       20.764        0.259      348.362       28.003      860.453
10/07/2014  14:32:00       36.745      -23.247       24.536       54.398       67.907       40.197     2959.094     4611.301     1615.769        0.584        0.459       43.481       34.273        0.621      348.456       28.164      860.423
10/07/2014  14:33:00       37.804        1.337       41.897       36.007       64.843       50.124     1296.481     4204.655     2512.452        0.560        0.401       37.827       49.924        1.742      348.502       28.244      860.414
10/07/2014  14:34:00       24.769      -14.147       38.902       44.704       94.763       47.652     1998.417     8979.981     2270.693        0.779        0.662       28.525       53.135        3.470      348.489       28.222      860.416
10/07/2014  14:35:00      131.108       51.361       47.525       83.451       67.906       49.072     6964.092     4611.257     2408.053        1.803        0.699      140.809       36.454        0.067      348.186       27.696      860.402
10/07/2014  14:36:00      108.552       77.081       17.887       64.757       44.084       41.476     4193.534     1943.413     1720.286        1.295        0.393      133.136       29.036        0.048      348.050       27.464      860.396
10/07/2014  14:37:00      121.981       63.179        9.206       61.229       38.972       38.419     3748.972     1518.840     1476.057        1.285        0.337      137.372       28.337        0.043      348.208       27.736      860.395
10/07/2014  14:38:00       37.256       11.286        9.077       63.677       36.587       21.818     4054.769     1338.588      476.011        0.373        0.293       38.928       25.413        0.426      348.389       28.050      860.392
10/07/2014  14:39:00       31.632       73.515       -9.339       32.844       63.814       28.898     1078.699     4072.268      835.095        0.624        0.299       80.031       32.004        0.160      348.389       28.050      860.384
10/07/2014  14:40:00       63.301       45.659       18.434       61.978       34.433       35.460     3841.241     1185.597     1257.412        0.636        0.314       78.050       19.289        0.061      348.344       27.972      860.372
10/07/2014  14:41:00      166.452       90.904       12.422       66.951       62.041       48.325     4482.375     3849.040     2335.348        2.339        0.533      189.657       27.566        0.021      348.269       27.839      860.348
10/07/2014  14:42:00      107.107       56.015       55.068       60.704       46.768       53.971     3684.925     2187.205     2912.842        1.321        0.439      120.870       36.156        0.089      348.174       27.677      860.362
10/07/2014  14:43:00       68.239       70.059       28.666       38.552       42.660       48.499     1486.227     1819.902     2352.196        0.802        0.283       97.800       36.400        0.139      347.953       27.296      860.354
10/07/2014  14:44:00       36.325       13.305       -2.208       24.553       15.794       12.435      602.850      249.439      154.630        0.125        0.050       38.685        6.954        0.032      348.050       27.463      860.336
10/07/2014  14:45:00       50.212       43.703       25.433       45.962       40.329       28.154     2112.527     1626.439      792.657        0.480        0.227       66.568       25.911        0.152      348.290       27.878      860.326
10/07/2014  14:46:00       49.674       77.770       17.507       58.001       81.354       47.009     3364.083     6618.417     2209.865        1.051        0.610       92.280       44.026        0.228      348.215       27.747      860.311
10/07/2014  14:47:00       10.823       84.878        4.050       42.513       63.510       42.174     1807.341     4033.507     1778.643        0.748        0.381       85.566       34.642        0.164      348.225       27.767      860.290
10/07/2014  14:48:00       24.276       39.990        0.574       54.966       37.102       25.560     3021.275     1376.535      653.320        0.362        0.253       46.781       20.462        0.191      348.249       27.808      860.279
10/07/2014  14:49:00       44.049       48.477      -13.975       66.741       52.981       40.109     4454.400     2807.021     1608.731        0.668        0.444       65.500       28.578        0.190      348.403       28.074      860.260
10/07/2014  14:50:00       27.198        7.918        7.567       64.829       43.693       30.359     4202.762     1909.070      921.688        0.395        0.352       28.327       26.636        0.884      348.481       28.209      860.239
10/07/2014  14:51:00       35.271       33.937       12.861       40.598       55.145       45.681     1648.179     3040.967     2086.755        0.467        0.339       48.947       16.043        0.107      348.316       27.922      860.235
10/07/2014  14:52:00       18.799      -39.887        6.263       35.006       44.555       33.986     1225.441     1985.135     1155.042        0.317        0.218       44.095       33.439        0.575      348.442       28.141      860.225
10/07/2014  14:53:00       15.505       22.969       76.404       44.763       61.331       42.474     2003.717     3761.481     1804.064        0.709        0.378       27.712       43.704        2.487      348.668       28.533      860.219
10/07/2014  14:54:00       -4.239      -13.288       33.473       26.286       31.437       29.796      690.954      988.267      887.821        0.194        0.128       13.947       14.405        1.067      348.699       28.585      860.228
10/07/2014  14:55:00       14.898      -10.074        4.907       32.405       25.095       24.021     1050.115      629.745      577.029        0.130        0.113       17.984       14.894        0.686      348.571       28.364      860.232
10/07/2014  14:56:00       14.128        9.621       13.867       17.203       13.202       18.288      295.944      174.294      334.453        0.064        0.040       17.093        6.937        0.165      348.651       28.502      860.239
10/07/2014  14:57:00       11.881      -25.589       27.208       33.390       62.605       35.065     1114.874     3919.410     1229.527        0.390        0.313       28.212       24.629        0.762      348.889       28.914      860.219
10/07/2014  14:58:00       22.586      -66.972        9.012       45.401       40.412       35.213     2061.241     1633.145     1239.933        0.500        0.247       70.678       22.991        0.106      348.679       28.551      860.209
10/07/2014  14:59:00       -0.995       28.788       54.951       23.502       35.112       15.785      552.353     1232.845      249.153        0.294        0.102       28.806       11.148        0.150      348.689       28.569      860.210
10/07/2014  15:00:00       25.605      -28.593        3.640       23.251       39.684       20.483      540.611     1574.845      419.556        0.201        0.127       38.382       17.114        0.199      348.469       28.186      860.206
10/07/2014  15:01:00        6.616      -34.135       11.420       33.260       23.934       23.040     1106.260      572.814      530.852        0.177        0.110       34.770       11.355        0.107      348.349       27.981      860.204
10/07/2014  15:02:00      -81.208       89.345       -8.583       60.616      106.788       37.838     3674.321    11403.743     1431.721        1.558        0.825      120.736       25.745        0.045      348.574       28.368      860.195
10/07/2014  15:03:00        5.106      143.834       -4.995       78.950       61.717       47.189     6233.032     3809.009     2226.809        1.650        0.613      143.924       37.281        0.067      348.402       28.072      860.190
10/07/2014  15:04:00       25.096      130.813      -15.490       53.453       73.471       45.646     2857.230     5397.972     2083.552        1.416        0.517      133.198       43.442        0.106      348.388       28.046      860.173
10/07/2014  15:05:00       12.359      176.342      -27.419       52.912       73.564       42.144     2799.695     5411.728     1776.137        2.099        0.499      176.775       42.732        0.058      348.466       28.181      860.158
10/07/2014  15:06:00        1.148      114.382       -1.400       45.557       53.669       35.660     2075.425     2880.412     1271.636        0.966        0.311      114.388       33.302        0.085      348.547       28.322      860.156
10/07/2014  15:07:00       37.941      111.528        1.109       58.630       57.325       42.975     3437.428     3286.198     1846.843        1.122        0.429      117.805       40.146        0.116      348.610       28.430      860.140
10/07/2014  15:08:00       59.246       66.270       -6.135       40.198       32.335       24.935     1615.868     1045.525      621.774        0.561        0.164       88.892       20.372        0.053      348.491       28.225      860.138
10/07/2014  15:09:00       93.427       55.138       33.839       52.192       42.099       39.272     2723.973     1772.334     1542.260        0.948        0.302      108.484       27.148        0.063      348.490       28.226      860.142
10/07/2014  15:10:00       75.725       26.239       30.607       57.092       40.111       37.176     3259.452     1608.855     1382.042        0.680        0.313       80.142       22.074        0.076      348.564       28.353      860.141
10/07/2014  15:11:00       72.846       72.324       36.276       51.022       54.769       46.065     2603.230     2999.653     2121.950        0.979        0.386      102.651       31.263        0.093      348.445       28.146      860.123
10/07/2014  15:12:00       34.559       13.033       28.614       39.851       88.625       48.464     1588.115     7854.307     2348.740        0.699        0.590       36.935       49.277        1.780      348.368       28.013      860.117
10/07/2014  15:13:00       43.160        3.056       32.787       36.742       42.517       23.450     1349.958     1807.705      549.893        0.333        0.185       43.268       17.745        0.168      348.531       28.295      860.103
10/07/2014  15:14:00       22.546       42.627       -0.736       35.856       21.446       17.400     1285.635      459.928      302.776        0.219        0.102       48.222       12.830        0.071      348.500       28.242      860.100
10/07/2014  15:15:00       57.298       29.585       17.089       51.276       25.139       22.439     2629.178      631.969      503.515        0.411        0.188       64.486       23.544        0.133      348.571       28.364      860.094
10/07/2014  15:16:00       22.681       10.927        9.766       23.133       33.323       17.057      535.131     1110.413      290.940        0.133        0.097       25.176       16.901        0.451      348.541       28.313      860.078
10/07/2014  15:17:00        8.470      -22.306       18.988       23.229       32.152       15.500      539.591     1033.743      240.253        0.137        0.091       23.860       12.142        0.259      348.805       28.769      860.068
10/07/2014  15:18:00      -33.028      -99.492        5.474       30.001       46.982       24.199      900.047     2207.316      585.568        0.736        0.185      104.831       20.971        0.040      348.448       28.152      860.065
10/07/2014  15:19:00      -22.168      -50.817       10.759       37.695       45.793       20.999     1420.912     2096.974      440.970        0.357        0.198       55.442       21.419        0.149      348.596       28.407      860.057
10/07/2014  15:20:00       34.631      -54.165        5.896       52.164       46.160       38.792     2721.082     2130.785     1504.805        0.526        0.318       64.290       22.521        0.123      348.695       28.580      860.038
10/07/2014  15:21:00      -28.645      -40.117       13.103       54.253       45.521       34.722     2943.350     2072.203     1205.631        0.441        0.311       49.294       28.630        0.337      348.441       28.139      860.009
10/07/2014  15:22:00       45.840       30.678       54.215       81.183       82.430       66.546     6590.606     6794.653     4428.338        1.189        0.891       55.159       68.484        1.542      348.478       28.204      860.008
10/07/2014  15:23:00       98.989      -95.463       14.829       57.106       56.650       38.031     3261.149     3209.195     1446.363        1.352        0.396      137.521       35.994        0.069      348.614       28.438      859.998
10/07/2014  15:24:00       70.179      -16.894       10.600       69.594       69.406       26.599     4843.292     4817.147      707.514        0.784        0.518       72.184       22.309        0.096      348.469       28.187      859.997
10/07/2014  15:25:00       10.862      -76.043      -12.276       46.442       29.860       26.496     2156.903      891.610      702.020        0.490        0.188       76.815       23.459        0.093      348.243       27.797      859.972
10/07/2014  15:26:00       53.303      -21.396       24.425       52.211       47.038       35.329     2726.008     2212.578     1248.161        0.504        0.309       57.437       37.844        0.434      348.403       28.071      859.962
10/07/2014  15:27:00      189.105      113.968       28.834      103.538       76.460       53.452    10720.039     5846.086     2857.136        3.450        0.971      220.793       29.447        0.018      348.355       27.988      859.957
10/07/2014  15:28:00      197.717      151.676        1.760       99.847       69.234       53.689     9969.332     4793.415     2882.455        3.987        0.882      249.193       32.792        0.017      348.245       27.796      859.962
10/07/2014  15:29:00      104.702      100.891        6.566       57.124       35.683       29.710     3263.132     1273.250      882.701        1.330        0.271      145.401       11.133        0.006      348.317       27.924      859.967
10/07/2014  15:30:00       60.513       64.519        8.326       37.260       27.664       28.923     1388.289      765.269      836.514        0.544        0.150       88.457       18.883        0.046      348.385       28.041      859.968
10/07/2014  15:31:00       24.751       77.954       -8.720       46.686       59.852       34.629     2179.621     3582.251     1199.189        0.686        0.348       81.789       33.288        0.166      348.546       28.321      859.970
10/07/2014  15:32:00      -26.253      262.608      -35.278       38.314       72.104       33.194     1467.980     5198.937     1101.822        3.933        0.388      263.917       32.626        0.015      348.242       27.792      859.965
10/07/2014  15:33:00      -21.492      154.008      -30.575       22.470       23.213       14.073      504.882      538.834      198.054        1.318        0.062      155.500       10.940        0.005      348.195       27.714      859.957
10/07/2014  15:34:00      -26.541      133.547      -21.932       33.108       50.257       30.405     1096.113     2525.785      924.442        1.178        0.227      136.159       26.782        0.039      348.505       28.250      859.948
10/07/2014  15:35:00       -1.685       33.465       10.117       45.331       24.183       26.819     2054.886      584.805      719.252        0.229        0.168       33.507       22.451        0.449      348.712       28.608      859.935
10/07/2014  15:36:00      104.933       69.819       14.164       61.599       34.308       32.243     3794.378     1177.059     1039.592        1.105        0.301      126.038       31.419        0.062      348.469       28.190      859.931
10/07/2014  15:37:00      145.716      121.715        6.147       49.817       43.670       40.143     2481.742     1907.028     1611.447        2.104        0.300      189.862       28.004        0.022      348.386       28.043      859.921
10/07/2014  15:38:00      155.854       41.986       11.522       79.616       56.138       52.083     6338.713     3151.429     2712.623        1.919        0.610      161.410       31.840        0.039      348.318       27.925      859.915
10/07/2014  15:39:00       39.250       34.051        1.489       56.873       36.632       39.574     3234.593     1341.881     1566.067        0.442        0.307       51.962       28.922        0.310      348.568       28.360      859.909
10/07/2014  15:40:00       21.687       12.204       14.329       46.445       39.811       29.890     2157.098     1584.942      893.410        0.273        0.232       24.885       14.304        0.330      348.699       28.587      859.902
10/07/2014  15:41:00       85.119       81.697       -0.167       74.016       48.202       45.974     5478.422     2323.439     2113.581        1.192        0.496      117.982       25.392        0.046      348.407       28.080      859.882
10/07/2014  15:42:00      183.484      112.749       45.655       98.428       76.792       73.480     9688.154     5897.081     5399.350        3.472        1.049      215.357       31.659        0.022      348.419       28.099      859.854
10/07/2014  15:43:00       90.208       90.352       66.001       74.415       49.323       42.551     5537.651     2432.781     1810.608        1.522        0.489      127.675       38.159        0.089      348.501       28.242      859.854
10/07/2014  15:44:00       18.939       48.108       61.983       33.721       46.475       37.788     1137.128     2159.924     1427.962        0.562        0.236       51.702       36.365        0.495      348.826       28.806      859.857
10/07/2014  15:45:00       69.796     -103.970       -2.622       79.285       85.848       41.659     6286.189     7369.816     1735.436        1.554        0.770      125.225       56.797        0.206      348.525       28.282      859.856
10/07/2014  15:46:00       58.971     -161.242      -17.571       81.325       70.996       45.603     6613.790     5040.386     2079.594        2.176        0.687      171.688       41.423        0.058      348.572       28.363      859.841
10/07/2014  15:47:00      108.314     -162.858      -41.539       60.703       51.206       39.095     3684.823     2622.043     1528.398        2.391        0.392      195.588       21.661        0.012      348.371       28.016      859.830
10/07/2014  15:48:00       70.885     -122.420        7.667       51.739       62.721       36.629     2676.906     3933.916     1341.706        1.401        0.398      141.462       18.097        0.016      348.366       28.008      859.826
10/07/2014  15:49:00       72.581     -104.019       10.652       49.712       73.949       36.738     2471.250     5468.412     1349.677        1.274        0.464      126.839       36.278        0.082      348.282       27.863      859.820
10/07/2014  15:50:00       39.050     -105.331        6.021       56.195       59.322       35.155     3157.917     3519.077     1235.901        1.028        0.396      112.337       22.805        0.041      348.337       27.959      859.806
10/07/2014  15:51:00       34.097      -37.343       17.841       43.846       62.784       22.277     1922.461     3941.823      496.245        0.462        0.318       50.568       27.124        0.288      348.266       27.836      859.802
10/07/2014  15:52:00       67.559      -47.746       14.710       36.156       49.053       28.257     1307.231     2406.181      798.456        0.579        0.226       82.728       31.442        0.144      348.326       27.940      859.786
10/07/2014  15:53:00       85.553      -38.586        7.219       48.919       39.234       31.889     2393.050     1539.285     1016.929        0.690        0.247       93.852       28.984        0.095      348.405       28.077      859.781
10/07/2014  15:54:00       18.260      -40.541       -2.895       33.336       26.794       15.490     1111.265      717.910      239.934        0.203        0.103       44.463       11.751        0.070      348.388       28.048      859.778
10/07/2014  15:55:00       39.484       10.155       31.311       31.930       30.385       22.443     1019.518      923.218      503.682        0.254        0.122       40.769       16.765        0.169      348.514       28.266      859.776
10/07/2014  15:56:00       33.908        1.032       25.222       47.646       32.593       20.022     2270.149     1062.310      400.889        0.276        0.187       33.924       17.131        0.255      348.787       28.738      859.771
10/07/2014  15:57:00       12.733       -1.737        5.611       33.625       34.565       22.760     1130.617     1194.731      518.007        0.152        0.142       12.850        4.750        0.137      348.774       28.715      859.769
10/07/2014  15:58:00       32.448       27.540       14.707       41.501       30.551       32.628     1722.345      933.359     1064.593        0.287        0.186       42.559       22.406        0.277      348.693       28.576      859.762
10/07/2014  15:59:00       96.875       -6.936       21.596       66.547       46.426       46.765     4428.568     2155.419     2186.969        0.933        0.439       97.123       41.691        0.184      348.391       28.053      859.752
10/07/2014  16:00:00       13.613       -6.552       27.334       31.793       31.126       33.076     1010.807      968.828     1093.994        0.202        0.154       15.107        9.557        0.400      348.566       28.356      859.736
10/07/2014  16:01:00        6.139       -6.434        9.803       17.785       33.112       20.650      316.323     1096.404      426.429        0.101        0.092        8.893       15.940        3.213      348.651       28.502      859.736
10/07/2014  16:02:00       54.353      -70.198        5.054       37.549       86.757       32.528     1409.917     7526.793     1058.039        0.895        0.500       88.781       28.724        0.105      348.526       28.287      859.713
10/07/2014  16:03:00       60.522       47.229       11.866       44.224       41.963       33.095     1955.778     1760.916     1095.270        0.542        0.241       76.769       13.592        0.031      348.558       28.341      859.701
10/07/2014  16:04:00      161.965       76.278       32.374       74.355       69.990       42.657     5528.675     4898.569     1819.638        2.267        0.612      179.028       25.333        0.020      348.496       28.232      859.681
10/07/2014  16:05:00      141.598      102.590       33.516       81.233       71.184       50.057     6598.863     5067.211     2505.705        2.293        0.709      174.856       35.517        0.041      348.488       28.217      859.665
10/07/2014  16:06:00      119.026       31.255       36.143       90.292       66.389       51.650     8152.716     4407.548     2667.705        1.584        0.761      123.062       39.930        0.105      348.491       28.223      859.664
10/07/2014  16:07:00       69.602      -33.361        4.543       76.750       69.248       41.494     5890.569     4795.322     1721.720        0.919        0.620       77.185       41.645        0.291      348.436       28.129      859.652
10/07/2014  16:08:00      103.147     -131.567      -21.853       67.488       66.504       44.420     4554.680     4422.745     1973.095        1.969        0.548      167.180       45.552        0.074      348.434       28.126      859.642
10/07/2014  16:09:00       60.390      -23.496       -8.499       43.018       54.114       23.629     1850.520     2928.279      558.338        0.480        0.267       64.799       28.525        0.194      348.429       28.118      859.645
10/07/2014  16:10:00      108.988       55.940       18.981       73.961       59.955       28.976     5470.227     3594.566      839.625        1.263        0.495      122.506        8.465        0.005      348.485       28.214      859.643
10/07/2014  16:11:00       58.174      -30.379       17.360       58.785       70.554       37.162     3455.683     4977.884     1380.979        0.721        0.491       65.629       30.101        0.210      348.493       28.229      859.633
10/07/2014  16:12:00      107.107       25.063       31.480       98.913       76.417       56.609     9783.709     5839.539     3204.605        1.596        0.941      110.000       59.723        0.295      348.342       27.967      859.617
10/07/2014  16:13:00      114.499      101.819       53.573       41.587       36.286       45.582     1729.484     1316.684     2077.731        1.573        0.256      153.223       25.520        0.028      348.213       27.745      859.616
10/07/2014  16:14:00      104.087       36.561       15.028       56.688       55.727       37.933     3213.526     3105.454     1438.946        1.008        0.388      110.321       29.862        0.073      348.430       28.121      859.607
10/07/2014  16:15:00       85.820       97.684      115.042       92.025       94.376       67.276     8468.537     8906.913     4526.046        2.602        1.095      130.028       79.321        0.372      348.381       28.034      859.594
10/07/2014  16:16:00      150.122       75.915       42.872       59.751       57.280       45.207     3570.174     3281.043     2043.706        1.951        0.445      168.226       27.055        0.026      348.309       27.910      859.579
10/07/2014  16:17:00       92.016        7.848        3.482       59.216       91.558       39.899     3506.477     8382.827     1591.970        1.101        0.674       92.350       40.063        0.188      348.483       28.211      859.565
10/07/2014  16:18:00      161.961     -133.986        5.640      106.202      205.026      115.297    11278.803    42035.845    13293.431        5.540        3.330      210.199      144.205        0.471      348.427       28.111      859.539
10/07/2014  16:19:00      107.031      -83.308       21.361       83.648      119.781       62.944     6996.943    14347.546     3962.005        2.208        1.265      135.632       56.858        0.176      348.474       28.194      859.548
10/07/2014  16:20:00       59.062      -30.936       19.374       53.098       48.924       39.751     2819.436     2393.513     1580.125        0.581        0.340       66.674       33.266        0.249      348.414       28.093      859.550
10/07/2014  16:21:00       58.785      117.375      112.422       71.777       70.558       41.658     5151.981     4978.363     1735.407        2.087        0.593      131.273       36.180        0.076      348.414       28.091      859.541
10/07/2014  16:22:00       74.649       60.932       26.296       54.540       40.969       34.243     2974.629     1678.445     1172.617        0.790        0.291       96.359       17.489        0.033      348.461       28.173      859.540
10/07/2014  16:23:00       78.702       27.578       12.817       48.860       36.903       25.613     2387.268     1361.868      656.045        0.576        0.220       83.394       12.870        0.024      348.449       28.153      859.537
10/07/2014  16:24:00       94.124       50.859       10.792       51.428       42.058       29.445     2644.872     1768.855      867.018        0.842        0.264      106.986       26.203        0.060      348.482       28.208      859.545
10/07/2014  16:25:00       58.448       54.931       -9.073       37.766       27.897       17.564     1426.308      778.222      308.490        0.451        0.126       80.210       15.354        0.037      348.631       28.470      859.551
10/07/2014  16:26:00        7.089      105.918      -13.721       41.442       46.478       35.179     1717.409     2160.171     1237.580        0.829        0.256      106.155       25.135        0.056      348.513       28.263      859.552
10/07/2014  16:27:00       69.653       47.495        6.580       60.816       57.609       37.154     3698.569     3318.748     1380.418        0.777        0.420       84.305       31.626        0.141      348.569       28.362      859.554
10/07/2014  16:28:00       34.312      118.052      -22.528       50.105      109.531       27.563     2510.545    11997.117      759.735        1.544        0.763      122.938       39.945        0.106      348.481       28.205      859.564
10/07/2014  16:29:00       38.958      169.932      -14.447       52.229       84.212       49.463     2727.833     7091.644     2446.590        2.143        0.613      174.341       51.164        0.086      348.416       28.095      859.564
10/07/2014  16:30:00      123.373       76.709      -10.732       67.774       59.825       37.708     4593.335     3579.014     1421.884        1.541        0.480      145.276       31.071        0.046      348.385       28.043      859.559
10/07/2014  16:31:00      145.161       49.868        3.604       46.958       58.983       22.819     2205.053     3479.009      520.729        1.489        0.310      153.488       20.053        0.017      348.399       28.069      859.541
10/07/2014  16:32:00      114.533       44.851       16.043       80.569       62.923       57.065     6491.443     3959.330     3256.448        1.454        0.685      123.002       46.086        0.140      348.520       28.275      859.516
10/07/2014  16:33:00       74.006      140.882      109.808       56.470       66.744       51.509     3188.875     4454.748     2653.162        2.384        0.515      159.137       43.306        0.074      348.374       28.020      859.490
10/07/2014  16:34:00      180.927      106.179       30.589       58.447       55.552       45.698     3416.059     3086.013     2088.347        2.677        0.430      209.782       27.559        0.017      348.576       28.371      859.507
10/07/2014  16:35:00      181.893      103.291       74.849       99.782       66.900       70.647     9956.391     4475.621     4990.957        3.439        0.971      209.175       57.871        0.077      348.514       28.263      859.469
10/07/2014  16:36:00      118.419      132.306       27.383       85.820       73.241       72.079     7365.064     5364.297     5195.410        2.510        0.896      177.561       47.421        0.071      348.569       28.359      859.450
10/07/2014  16:37:00       57.701      208.257      -21.676       79.026      128.169       46.634     6245.083    16427.184     2174.697        3.600        1.242      216.103       58.070        0.072      348.570       28.361      859.451
10/07/2014  16:38:00       53.282      215.105      -18.045       58.676      121.009       50.571     3442.921    14643.250     2557.471        3.504        1.032      221.606       58.939        0.071      348.589       28.393      859.427
10/07/2014  16:39:00      -48.671      290.953      -50.487      102.753       89.239       53.797    10558.084     7963.536     2894.147        5.549        1.071      294.996       51.428        0.030      348.565       28.350      859.445
10/07/2014  16:40:00     -104.201      184.551      -36.228       79.275       86.149       47.842     6284.581     7421.631     2288.864        3.111        0.800      211.936       47.842        0.051      348.616       28.437      859.455
10/07/2014  16:41:00      -84.816      153.745      -17.315       70.004       91.257       41.250     4900.556     8327.848     1701.536        2.303        0.746      175.589       42.249        0.058      348.632       28.468      859.452
10/07/2014  16:42:00     -186.146      199.536      -45.188       69.121       68.646       50.647     4777.657     4712.229     2565.150        4.428        0.603      272.883       38.236        0.020      348.643       28.484      859.450
10/07/2014  16:43:00     -161.459      196.686      -43.369       67.213       68.452       38.089     4517.611     4685.695     1450.805        3.864        0.533      254.469       35.761        0.020      348.527       28.284      859.467
10/07/2014  16:44:00     -127.365      104.748      -17.408       43.484       59.581       42.792     1890.869     3549.924     1831.176        1.738        0.364      164.906       28.558        0.030      348.733       28.643      859.478
10/07/2014  16:45:00      -72.610       69.775       -7.425       33.515       53.032       31.303     1123.241     2812.401      979.882        0.755        0.246      100.702       22.769        0.051      348.807       28.773      859.480
10/07/2014  16:46:00     -101.275      -30.762       -4.872       83.137       39.790       34.051     6911.727     1583.220     1159.474        1.044        0.483      105.844       41.038        0.150      348.823       28.799      859.477
10/07/2014  16:47:00      -23.994       30.425       23.524       51.446       41.918       28.873     2646.726     1757.118      833.627        0.365        0.262       38.748       23.566        0.370      348.816       28.787      859.481
10/07/2014  16:48:00      -65.815      102.988      -16.040       37.441       36.020       28.682     1401.808     1297.410      822.640        0.936        0.176      122.222       22.932        0.035      348.589       28.396      859.494
10/07/2014  16:49:00      -63.198       84.090       -3.857       36.070       44.696       28.159     1301.020     1997.705      792.929        0.759        0.205      105.190       23.649        0.051      348.659       28.517      859.493
10/07/2014  16:50:00     -109.085       49.101      -23.707       41.908       38.087       23.737     1756.266     1450.657      563.423        0.932        0.189      119.626       17.987        0.023      348.763       28.696      859.492
10/07/2014  16:51:00      -65.930       77.142      -15.280       35.972       56.353       24.977     1294.018     3175.660      623.848        0.781        0.255      101.477       28.923        0.081      348.539       28.309      859.482
10/07/2014  16:52:00      -86.951      100.618      -11.785       68.823       61.259       40.390     4736.635     3752.687     1631.319        1.397        0.506      132.983       49.380        0.138      348.602       28.418      859.478
10/07/2014  16:53:00      -63.976      126.659      -15.801       55.707       81.006       28.402     3103.228     6561.912      806.682        1.543        0.524      141.899       31.801        0.050      348.570       28.361      859.459
10/07/2014  16:54:00     -114.409        0.210      -14.931       87.716       76.805       38.197     7694.136     5899.008     1458.990        1.418        0.753      114.410       32.667        0.082      348.643       28.488      859.449
10/07/2014  16:55:00     -129.353      -28.889       -9.090       71.918       36.113       28.582     5172.237     1304.173      816.945        1.247        0.365      132.539       24.624        0.035      348.680       28.552      859.432
10/07/2014  16:56:00     -194.944      -43.144      -23.866       85.252       55.040       28.885     7267.870     3029.428      834.322        2.578        0.557      199.661       12.811        0.004      348.656       28.511      859.430
10/07/2014  16:57:00     -271.466       -4.797      -28.684       77.954       78.824       43.246     6076.830     6213.160     1870.235        4.435        0.708      271.509       39.178        0.021      348.564       28.348      859.428
10/07/2014  16:58:00     -128.383       45.956      -27.823       73.326       94.609       37.962     5376.640     8950.772     1441.115        1.757        0.788      136.361       29.601        0.047      348.606       28.423      859.423
10/07/2014  16:59:00     -139.551      128.164      -39.160       60.767       82.007       29.226     3692.638     6725.156      854.181        2.435        0.564      189.474       43.638        0.053      348.556       28.336      859.446
10/07/2014  17:00:00     -108.544      174.462      -28.501       59.067       91.567       32.818     3488.864     8384.582     1077.007        2.799        0.648      205.472       34.199        0.028      348.472       28.190      859.442
10/07/2014  17:01:00     -111.949      171.214      -26.060       53.810       67.782       39.894     2895.546     4594.454     1591.512        2.580        0.454      204.565       38.413        0.035      348.454       28.158      859.440
10/07/2014  17:02:00      -86.395      149.296      -17.701       50.240       78.165       43.520     2524.053     6109.766     1893.990        2.030        0.526      172.492       30.923        0.032      348.479       28.204      859.437
10/07/2014  17:03:00      -85.263       84.782      -22.726       42.645       48.094       26.262     1818.555     2313.023      689.668        0.990        0.241      120.241       19.977        0.028      348.517       28.272      859.437
10/07/2014  17:04:00      -64.147       58.970       -5.015       38.559       59.777       28.605     1486.814     3573.233      818.221        0.675        0.294       87.134       17.735        0.041      348.484       28.212      859.427
10/07/2014  17:05:00      -67.694       10.213       -6.829       59.261       54.071       32.358     3511.843     2923.642     1047.027        0.611        0.374       68.460       35.919        0.275      348.675       28.544      859.421
10/07/2014  17:06:00      -80.340        7.126        7.538       64.563       71.601       37.326     4168.422     5126.679     1393.210        0.862        0.534       80.655       26.215        0.106      348.626       28.458      859.416
10/07/2014  17:07:00     -117.312       93.802      -18.971       67.326       52.797       36.094     4532.856     2787.531     1302.762        1.577        0.431      150.203       40.715        0.073      348.534       28.298      859.434
10/07/2014  17:08:00     -109.747      119.059      -21.484       46.484       68.243       31.301     2160.784     4657.123      979.780        1.724        0.390      161.925       35.535        0.048      348.437       28.128      859.428
10/07/2014  17:09:00      -47.864      132.874      -20.004       26.220       35.786       18.717      687.504     1280.664      350.329        1.133        0.116      141.232       19.933        0.020      348.327       27.943      859.415
10/07/2014  17:10:00     -122.325       40.178      -12.427       40.182       32.733       24.983     1614.620     1071.447      624.168        1.002        0.166      128.754       15.798        0.015      348.615       28.439      859.421
10/07/2014  17:11:00      -71.791       73.212      -21.695       43.951       37.462       23.605     1931.732     1403.403      557.212        0.744        0.195      102.538       22.435        0.048      348.522       28.279      859.425
10/07/2014  17:12:00      -35.368       57.124       -1.094       46.309       35.098       23.167     2144.531     1231.835      536.729        0.421        0.196       67.187       25.527        0.144      348.522       28.280      859.427
10/07/2014  17:13:00      -19.059       66.809       -5.646       20.677       44.029       19.259      427.558     1938.520      370.902        0.380        0.137       69.474       19.096        0.076      348.347       27.976      859.420
10/07/2014  17:14:00      -58.061       12.937        5.728       48.269       41.348       27.419     2329.849     1709.691      751.786        0.418        0.240       59.485       22.776        0.147      348.619       28.448      859.415
10/07/2014  17:15:00      -52.728        0.402        8.691       44.820       37.307       29.578     2008.852     1391.838      874.847        0.357        0.214       52.730       29.079        0.304      348.664       28.526      859.420
10/07/2014  17:16:00      -10.075      -33.133       19.071       46.436       43.289       22.135     2156.262     1873.920      489.949        0.304        0.226       34.631       17.611        0.259      348.587       28.392      859.427
10/07/2014  17:17:00       -1.517        0.758       13.877       39.335       28.045       24.117     1547.233      786.537      581.612        0.155        0.146        1.696       17.937      111.846      348.445       28.147      859.428
10/07/2014  17:18:00       43.833      -41.328        6.610       32.998       26.340       26.749     1088.863      693.786      715.486        0.309        0.125       60.244       12.869        0.046      348.116       27.577      859.439
10/07/2014  17:19:00        4.366      -78.644        5.798       42.885       26.591       20.142     1839.143      707.055      405.716        0.459        0.148       78.765       11.755        0.022      348.386       28.044      859.460
10/07/2014  17:20:00      -48.686      -91.017       -4.034       54.290       40.407       29.651     2947.355     1632.748      879.157        0.806        0.273      103.220       22.088        0.046      348.655       28.508      859.484
10/07/2014  17:21:00      -69.076     -106.122        4.579      111.397       69.648       37.591    12409.355     4850.845     1413.077        1.736        0.934      126.623       34.689        0.075      348.501       28.242      859.501
10/07/2014  17:22:00      -92.609     -193.104       -5.804       91.034      122.528       42.744     8287.132    15013.127     1827.023        3.551        1.256      214.163       53.307        0.062      348.188       27.699      859.521
10/07/2014  17:23:00     -107.240      -59.623       22.936       83.170      110.084       39.177     6917.222    12118.384     1534.827        1.807        1.029      122.700       42.016        0.117      348.097       27.542      859.484
10/07/2014  17:24:00     -371.529     -205.634       -4.445      185.642      134.760       84.776    34463.035    18160.195     7186.952       12.006        2.991      424.640       95.893        0.051      347.954       27.292      859.448
10/07/2014  17:25:00     -355.026     -215.485      -21.864      168.656      133.801       69.799    28444.882    17902.575     4871.930       11.208        2.561      415.304       68.975        0.028      347.935       27.260      859.445
10/07/2014  17:26:00     -329.020     -145.029      -14.894      184.457      148.394       71.425    34024.335    22020.886     5101.555        9.532        3.057      359.566       90.092        0.063      347.925       27.243      859.445
10/07/2014  17:27:00     -222.958     -140.389        6.097      169.041      122.111       71.502    28574.784    14911.094     5112.509        5.902        2.430      263.475       81.029        0.095      347.943       27.275      859.443
10/07/2014  17:28:00     -281.383     -144.824       -4.707      163.792      143.055       80.273    26827.944    20464.868     6443.754        7.695        2.687      316.466       80.504        0.065      347.895       27.192      859.445
10/07/2014  17:29:00     -292.999     -148.813       -6.682      137.316      119.409       67.709    18855.790    14258.622     4584.572        7.286        1.885      328.624       68.988        0.044      347.872       27.151      859.444
10/07/2014  17:30:00     -403.799     -237.360      -13.792      280.872      163.368       80.463    78889.276    26689.205     6474.252       16.580        5.603      468.395      105.329        0.051      347.814       27.052      859.439
10/07/2014  17:31:00     -417.539     -151.424       -2.915      226.246      172.741       82.655    51187.215    29839.463     6831.884       14.255        4.393      444.149       94.194        0.045      347.772       26.981      859.413
10/07/2014  17:32:00     -191.108     -119.208       -1.075      157.760      120.542       71.283    24888.072    14530.386     5081.205        4.761        2.225      225.239       79.238        0.124      347.788       27.010      859.431
10/07/2014  17:33:00     -265.035     -209.948        0.219      177.620      117.703       81.086    31548.947    13853.981     6574.959        8.314        2.599      338.115       91.872        0.074      347.783       26.999      859.433
10/07/2014  17:34:00     -285.275     -157.090       -1.278      151.477      103.360       68.115    22945.247    10683.359     4639.625        7.216        1.913      325.667       74.308        0.052      347.777       26.990      859.445
10/07/2014  17:35:00     -276.545     -209.260       -9.163      206.776      168.320       86.953    42756.213    28331.620     7560.845        9.949        3.932      346.795      101.558        0.086      347.777       26.989      859.435
10/07/2014  17:36:00     -374.472     -164.358       -7.574      199.309      149.285       96.073    39724.156    22286.115     9230.022       11.926        3.562      408.954      117.947        0.083      347.749       26.940      859.428
10/07/2014  17:37:00     -343.804     -274.718      -15.519      207.173      174.005       96.501    42920.670    30277.574     9312.426       13.820        4.126      440.081      110.572        0.063      347.723       26.896      859.419
10/07/2014  17:38:00     -302.520     -190.583        1.259      180.977      150.899       78.708    32752.644    22770.432     6194.949        9.477        3.086      357.548       92.089        0.066      347.735       26.916      859.433
10/07/2014  17:39:00     -216.118     -207.075        4.531      153.324      117.121       71.595    23508.218    13717.327     5125.831        6.597        2.118      299.311       83.346        0.078      347.740       26.926      859.443
10/07/2014  17:40:00     -258.818     -103.048       12.091      151.844      108.281       63.669    23056.511    11724.712     4053.730        5.829        1.942      278.578       75.499        0.073      347.770       26.976      859.441
10/07/2014  17:41:00     -282.950     -171.374       -1.644      168.778      120.581       83.266    28485.924    14539.726     6933.281        7.969        2.498      330.802       95.476        0.083      347.689       26.837      859.468
10/07/2014  17:42:00     -265.930     -254.299      -14.149      160.878      142.663       78.172    25881.853    20352.600     6110.933        9.396        2.617      367.949       75.544        0.042      347.721       26.893      859.465
10/07/2014  17:43:00     -208.384     -131.057       -5.628      159.569      106.354       74.085    25462.247    11311.258     5488.632        5.144        2.113      246.171       78.092        0.101      347.695       26.848      859.457
10/07/2014  17:44:00     -190.246     -107.879        4.969      134.518      112.693       53.052    18095.085    12699.755     2814.538        4.073        1.680      218.704       63.525        0.084      347.741       26.929      859.448
10/07/2014  17:45:00     -225.736      -92.551        5.295      188.718      109.330       63.376    35614.535    11953.136     4016.472        5.556        2.579      243.972       77.713        0.101      347.718       26.888      859.469
10/07/2014  17:46:00     -251.416     -109.388        1.439      127.591      114.731       68.238    16279.557    13163.221     4656.399        5.463        1.705      274.181       60.531        0.049      347.679       26.820      859.460
10/07/2014  17:47:00     -242.120     -112.669      -12.985      110.600      104.470       58.652    12232.448    10913.948     3440.103        4.903        1.329      267.051       59.841        0.050      347.687       26.831      859.451
10/07/2014  17:48:00     -284.705     -102.772      -14.663      107.572       74.668       49.793    11571.682     5575.345     2479.304        5.573        0.981      302.686       53.298        0.031      347.672       26.807      859.452
10/07/2014  17:49:00     -302.699      -59.103      -14.649      134.508       94.119       58.576    18092.329     8858.334     3431.200        6.285        1.519      308.415       63.787        0.043      347.700       26.854      859.466
10/07/2014  17:50:00     -400.615      -97.447      -26.849      125.373      104.229       63.840    15718.331    10863.718     4075.584       10.068        1.533      412.296       58.357        0.020      347.688       26.835      859.442
10/07/2014  17:51:00     -202.750      -74.332       14.345      141.097      105.007       72.097    19908.427    11026.377     5197.986        4.148        1.807      215.946       81.758        0.143      347.684       26.829      859.459
10/07/2014  17:52:00     -277.035      -86.731        2.387      152.700      111.574       63.575    23317.336    12448.739     4041.764        6.204        1.990      290.294       71.233        0.060      347.659       26.785      859.468
10/07/2014  17:53:00     -217.607      -69.954       11.307      161.824      113.774       66.594    26186.894    12944.463     4434.803        4.796        2.178      228.575       85.864        0.141      347.644       26.760      859.456
10/07/2014  17:54:00     -278.862     -153.462      -12.364      161.388      131.509       69.423    26046.137    17294.629     4819.579        7.481        2.408      318.300       83.831        0.069      347.628       26.731      859.470
10/07/2014  17:55:00     -286.994      -99.065       -9.031      134.788       90.221       57.363    18167.898     8139.802     3290.469        6.092        1.480      303.611       62.362        0.042      347.600       26.685      859.486
10/07/2014  17:56:00     -260.285     -186.800      -11.780      116.949      110.241       62.696    13677.171    12153.013     3930.823        6.627        1.488      320.378       50.657        0.025      347.563       26.622      859.496
10/07/2014  17:57:00     -296.263     -132.892      -10.955      159.969       97.649       66.376    25590.067     9535.264     4405.748        7.254        1.977      324.703       70.998        0.048      347.554       26.605      859.502
10/07/2014  17:58:00     -250.921     -111.284       -4.935      148.780      109.506       54.566    22135.426    11991.531     2977.486        5.623        1.855      274.491       65.911        0.058      347.540       26.580      859.515
10/07/2014  17:59:00     -253.077     -151.105        8.069      170.621      115.230       70.055    29111.634    13277.993     4907.682        6.711        2.365      294.755       85.961        0.085      347.511       26.530      859.516
10/07/2014  18:00:00     -267.474     -148.629      -10.463      132.611      100.373       58.313    17585.595    10074.672     3400.365        6.240        1.553      305.995       64.699        0.045      347.513       26.535      859.520
10/07/2014  18:01:00     -204.929      -48.732        7.171      127.575       75.913       51.051    16275.299     5762.850     2606.186        3.453        1.232      210.644       61.994        0.087      347.506       26.521      859.519
10/07/2014  18:02:00     -225.533      -78.305       -3.729       98.475       80.399       49.741     9697.319     6463.942     2474.182        3.782        0.932      238.740       49.041        0.042      347.495       26.502      859.526
10/07/2014  18:03:00     -269.009      -33.164        7.767      138.154       80.940       60.527    19086.543     6551.304     3663.524        5.141        1.465      271.046       70.267        0.067      347.489       26.491      859.521
10/07/2014  18:04:00     -189.895      -77.027        1.343      153.190      129.097       76.609    23467.267    16666.025     5868.892        4.399        2.300      204.923       78.248        0.146      347.447       26.418      859.525
10/07/2014  18:05:00     -282.789     -110.920       -6.068      173.262      138.284       77.107    30019.770    19122.349     5945.550        7.369        2.754      303.764       84.170        0.077      347.465       26.450      859.523
10/07/2014  18:06:00     -197.393      -51.976       -2.795      113.834       94.924       52.313    12958.209     9010.617     2736.701        3.319        1.235      204.121       47.238        0.054      347.461       26.444      859.518
10/07/2014  18:07:00     -217.615      -54.399      -10.710      138.436      111.104       53.223    19164.427    12344.009     2832.688        4.238        1.717      224.311       57.646        0.066      347.411       26.357      859.527
10/07/2014  18:08:00     -182.887      -30.367       -1.817      131.696       78.414       49.252    17343.888     6148.757     2425.726        3.014        1.296      185.391       60.154        0.105      347.461       26.444      859.533
10/07/2014  18:09:00     -130.574      -71.321      -18.388       91.556       85.511       44.127     8382.552     7312.063     1947.188        2.006        0.882      148.782       42.342        0.081      347.433       26.395      859.530
10/07/2014  18:10:00     -322.070     -100.446      -21.266      169.015      100.417       62.938    28566.210    10083.595     3961.252        7.843        2.131      337.370       74.255        0.048      347.358       26.267      859.522
10/07/2014  18:11:00     -242.196      -89.296      -13.119       80.732      106.870       50.512     6517.722    11421.113     2551.470        4.364        1.025      258.133       35.908        0.019      347.310       26.182      859.531
10/07/2014  18:12:00     -189.822     -167.162      -16.275      135.536      108.947       65.945    18370.083    11869.369     4348.788        4.941        1.729      252.934       63.818        0.064      347.298       26.164      859.515
10/07/2014  18:13:00     -364.241     -141.003       -5.933      185.836      163.977      103.104    34535.136    26888.588    10630.456       11.231        3.603      390.581      105.569        0.073      347.287       26.144      859.500
10/07/2014  18:14:00     -316.634      -90.807      -15.639      134.197       92.187       64.141    18008.865     8498.492     4114.110        6.968        1.531      329.398       56.859        0.030      347.250       26.078      859.513
10/07/2014  18:15:00     -330.617      -70.840      -10.821      126.687      116.814       62.744    16049.651    13645.441     3936.764        7.403        1.682      338.122       71.490        0.045      347.251       26.080      859.519
10/07/2014  18:16:00     -206.364        0.478        1.719      110.086       96.762       55.218    12118.819     9362.801     3049.049        3.356        1.227      206.365       55.753        0.073      347.197       25.988      859.539
10/07/2014  18:17:00     -219.267      -62.806      -14.227      125.334       75.103       49.047    15708.528     5640.456     2405.562        3.799        1.188      228.085       54.719        0.058      347.149       25.909      859.550
10/07/2014  18:18:00     -244.105      -51.187       -7.253      107.249      130.136       64.039    11502.451    16935.315     4101.019        4.739        1.627      249.414       55.173        0.049      347.129       25.871      859.561
10/07/2014  18:19:00     -311.435     -105.699      -22.764      158.833      167.615       75.416    25228.001    28094.718     5687.573        8.384        2.951      328.883       87.040        0.070      347.128       25.868      859.560
10/07/2014  18:20:00     -369.631      -68.890       -8.955      182.242      107.484       81.672    33212.154    11552.792     6670.268        9.644        2.572      375.996      101.971        0.074      347.105       25.829      859.560
10/07/2014  18:21:00     -208.439      -49.303        6.076      152.281       93.076       61.745    23189.352     8663.138     3812.448        4.078        1.783      214.190       69.583        0.106      347.040       25.718      859.579
10/07/2014  18:22:00     -224.309      -85.810       -5.012      135.200       72.762       56.225    18279.084     5294.293     3161.228        4.221        1.337      240.162       62.141        0.067      347.067       25.764      859.587
10/07/2014  18:23:00     -182.238      -28.157        3.241       99.779      102.044       51.271     9955.857    10412.976     2628.752        2.850        1.150      184.401       45.817        0.062      346.973       25.603      859.614
10/07/2014  18:24:00     -187.827     -132.377       -6.073      111.101       98.643       52.830    12343.329     9730.493     2791.020        3.885        1.243      229.788       56.387        0.060      346.987       25.627      859.599
10/07/2014  18:25:00     -128.592      -44.479        7.235      110.213      109.850       56.987    12146.979    12067.061     3247.557        2.301        1.373      136.068       63.004        0.214      346.939       25.544      859.606
10/07/2014  18:26:00     -277.637     -111.587      -21.192      122.608      114.627       68.409    15032.659    13139.411     4679.742        6.141        1.643      299.222       71.068        0.056      346.946       25.556      859.608
10/07/2014  18:27:00     -257.764      -26.020        5.594      142.184      112.935       75.236    20216.223    12754.387     5660.480        5.288        1.932      259.074       79.702        0.095      346.901       25.478      859.613
10/07/2014  18:28:00     -157.002      -40.350        7.136      131.869      106.023       69.634    17389.524    11240.814     4848.868        2.990        1.674      162.105       69.389        0.183      346.906       25.488      859.630
10/07/2014  18:29:00     -119.600       -3.559       16.063      104.704       95.175       66.206    10962.871     9058.271     4383.277        1.949        1.220      119.653       60.873        0.259      346.863       25.414      859.615
10/07/2014  18:30:00     -158.087      -51.495      -13.117       89.245       87.250       47.964     7964.614     7612.477     2300.554        2.284        0.894      166.262       41.923        0.064      346.840       25.374      859.608
10/07/2014  18:31:00     -260.992     -114.901      -18.600      137.057      107.033       56.453    18784.509    11456.131     3186.929        5.754        1.671      285.165       65.722        0.053      346.856       25.402      859.617
10/07/2014  18:32:00     -257.868      -93.884      -20.948      130.192       98.424       51.887    16949.853     9687.209     2692.263        5.253        1.466      274.427       55.461        0.041      346.848       25.388      859.603
10/07/2014  18:33:00     -278.700      -13.945      -18.922      138.651      109.761       53.766    19224.226    12047.387     2890.736        5.619        1.708      279.048       45.811        0.027      346.805       25.315      859.617
10/07/2014  18:34:00     -255.281     -151.177        6.337      156.856      112.022       64.515    24603.894    12549.011     4162.131        6.468        2.066      296.687       73.427        0.061      346.734       25.192      859.619
10/07/2014  18:35:00     -288.489     -122.405       -5.458       96.637       81.762       52.947     9338.676     6685.085     2803.423        5.853        0.941      313.383       49.159        0.025      346.706       25.141      859.635
10/07/2014  18:36:00     -266.573      -17.239      -21.030      124.782       88.564       60.318    15570.425     7843.580     3638.202        4.942        1.353      267.130       64.421        0.058      346.686       25.108      859.633
10/07/2014  18:37:00     -194.130      -66.687      -15.113      134.589       87.474       53.479    18114.102     7651.644     2860.003        3.549        1.431      205.264       56.234        0.075      346.667       25.077      859.632
10/07/2014  18:38:00     -286.123      -76.147       -1.147      119.548       85.559       52.061    14291.842     7320.336     2710.356        5.599        1.216      296.082       54.723        0.034      346.659       25.061      859.651
10/07/2014  18:39:00     -252.276      -22.532       -4.903       93.345       78.831       47.912     8713.227     6214.285     2295.602        4.070        0.861      253.280       46.447        0.034      346.590       24.945      859.654
10/07/2014  18:40:00     -285.925      -31.371       -3.594      115.658       94.578       62.529    13376.712     8945.072     3909.881        5.449        1.312      287.641       61.505        0.046      346.616       24.989      859.657
10/07/2014  18:41:00     -191.641      -39.979        4.130      138.333      104.782       55.536    19136.051    10979.333     3084.254        3.577        1.660      195.767       61.135        0.098      346.531       24.845      859.648
10/07/2014  18:42:00     -294.175     -105.567       -3.017      140.319      104.746       59.309    19689.296    10971.711     3517.579        6.593        1.709      312.543       63.968        0.042      346.531       24.842      859.668
10/07/2014  18:43:00     -365.625     -115.409      -21.935      144.225      117.789       62.282    20800.735    13874.151     3879.076        9.301        1.928      383.407       70.646        0.034      346.598       24.958      859.660
10/07/2014  18:44:00     -387.262      -20.030      -19.191      133.923      121.857       61.602    17935.350    14849.088     3794.773        9.365        1.829      387.780       60.928        0.025      346.588       24.939      859.664
10/07/2014  18:45:00     -333.290      -51.726      -20.245      118.648       82.205       62.906    14077.389     6757.665     3957.223        6.948        1.240      337.280       72.746        0.047      346.552       24.879      859.673
10/07/2014  18:46:00     -273.938      -24.390      -26.088      104.672       83.055       48.351    10956.284     6898.156     2337.800        4.825        1.010      275.022       54.096        0.039      346.506       24.799      859.672
10/07/2014  18:47:00     -285.904      -44.856      -12.758      102.085       83.408       49.603    10421.395     6956.846     2460.467        5.187        0.992      289.401       51.428        0.032      346.488       24.767      859.685
10/07/2014  18:48:00     -291.194       -9.514      -21.334      112.411       82.029       49.502    12636.145     6728.767     2450.450        5.357        1.091      291.349       54.778        0.035      346.503       24.793      859.674
10/07/2014  18:49:00     -285.669      -45.646      -16.417      115.817       85.597       45.454    13413.610     7326.769     2066.074        5.338        1.140      289.293       42.689        0.022      346.487       24.769      859.678
10/07/2014  18:50:00     -389.822      -75.980      -19.580      129.162      111.219       65.809    16682.937    12369.730     4330.800        9.575        1.669      397.158       63.802        0.026      346.523       24.830      859.676
10/07/2014  18:51:00     -387.956      -99.154      -23.801      144.696      103.383       59.683    20936.874    10688.131     3562.027        9.804        1.759      400.426       53.987        0.018      346.526       24.834      859.703
10/07/2014  18:52:00     -236.624      -11.205       -7.980      136.783      154.761       70.772    18709.706    23950.881     5008.705        5.192        2.383      236.889       78.869        0.111      346.493       24.778      859.719
10/07/2014  18:53:00     -236.021     -108.773       -2.614      107.353      133.397       68.340    11524.588    17794.816     4670.403        5.076        1.699      259.880       44.005        0.029      346.506       24.801      859.714
10/07/2014  18:54:00     -330.194     -114.423       -6.551      128.234      111.897       58.817    16443.979    12520.938     3459.449        7.729        1.621      349.458       52.605        0.023      346.546       24.868      859.720
10/07/2014  18:55:00     -208.446      -44.503      -10.953      138.619      119.882       65.005    19215.267    14371.667     4225.695        4.168        1.891      213.144       64.278        0.091      346.421       24.654      859.727
10/07/2014  18:56:00     -345.976     -110.100       -8.186      160.445      119.161       66.994    25742.561    14199.370     4488.155        8.815        2.222      363.072       67.878        0.035      346.420       24.651      859.733
10/07/2014  18:57:00     -265.965     -105.140      -24.488      108.465      117.035       58.974    11764.761    13697.156     3477.907        5.566        1.447      285.992       43.513        0.023      346.397       24.612      859.741
10/07/2014  18:58:00     -270.581      -76.755       -2.735      139.336       97.425       58.470    19414.542     9491.543     3418.796        5.571        1.616      281.257       64.602        0.053      346.349       24.530      859.751
10/07/2014  18:59:00     -238.790      -85.066       -7.338       99.970       91.818       47.752     9994.080     8430.498     2280.234        4.250        1.035      253.489       41.579        0.027      346.317       24.474      859.744
10/07/2014  19:00:00     -265.263       -7.674       -1.995      102.565      102.135       47.204    10519.514    10431.525     2228.234        4.680        1.159      265.374       45.755        0.030      346.334       24.505      859.733
10/07/2014  19:01:00     -287.170      -59.334      -11.209      133.818      104.809       65.491    17907.318    10985.023     4289.111        5.964        1.659      293.236       70.297        0.057      346.302       24.447      859.738
10/07/2014  19:02:00     -318.738     -114.578      -14.182      174.607      120.658       60.082    30487.766    14558.290     3609.842        8.178        2.433      338.707       65.823        0.038      346.292       24.431      859.764
10/07/2014  19:03:00     -175.688      -75.246       12.708      120.064       92.275       54.529    14415.453     8514.735     2973.440        3.129        1.295      191.124       55.731        0.085      346.239       24.341      859.783
10/07/2014  19:04:00     -306.956      -95.325        2.727      169.225      107.262       68.697    28637.070    11505.083     4719.337        7.408        2.243      321.417       81.727        0.065      346.280       24.411      859.805
10/07/2014  19:05:00     -245.331     -125.959        1.976      144.629      115.970       76.866    20917.536    13448.936     5908.397        5.816        2.014      275.777       81.633        0.088      346.286       24.420      859.827
10/07/2014  19:06:00     -299.135      -39.070       -8.110      140.135      104.879       68.387    19637.933    10999.625     4676.849        6.319        1.766      301.675       60.626        0.040      346.294       24.434      859.853
10/07/2014  19:07:00     -294.494      -97.912       -9.953      144.097       92.252       63.905    20763.952     8510.423     4083.886        6.488        1.668      310.344       78.808        0.064      346.257       24.370      859.876
10/07/2014  19:08:00     -195.966      -34.412       15.198      117.177      105.343       67.129    13730.479    11097.223     4506.289        3.457        1.467      198.965       60.629        0.093      346.245       24.350      859.894
10/07/2014  19:09:00     -282.857      -82.236      -18.394      167.137      112.001       66.258    27934.663    12544.233     4390.082        6.598        2.243      294.569       81.906        0.077      346.247       24.355      859.914
10/07/2014  19:10:00     -282.519     -100.718       -2.388      199.352       97.054       66.159    39741.335     9419.498     4376.970        7.174        2.677      299.935       55.883        0.035      346.244       24.348      859.924
10/07/2014  19:11:00     -386.613      -99.108      -10.072      106.626       97.154       60.981    11369.003     9438.833     3718.666        9.196        1.226      399.114       55.557        0.019      346.284       24.417      859.934
10/07/2014  19:12:00     -315.547      -59.218       -0.902      148.759      120.133       74.093    22129.097    14431.998     5489.729        7.256        2.103      321.056       77.780        0.059      346.270       24.393      859.941
10/07/2014  19:13:00     -217.956      -49.698       -1.312      106.239       97.273       58.127    11286.626     9462.063     3378.754        3.705        1.206      223.550       58.307        0.068      346.236       24.335      859.948
10/07/2014  19:14:00     -345.296     -100.966      -18.677      131.093       92.536       54.544    17185.465     8562.932     2975.078        7.924        1.436      359.755       57.723        0.026      346.298       24.440      859.947
10/07/2014  19:15:00     -236.818       11.720      -23.609      147.472       72.361       44.261    21747.931     5236.079     1959.055        4.286        1.447      237.108       51.608        0.047      346.256       24.371      859.941
10/07/2014  19:16:00     -177.245       -6.347      -18.442       82.702       68.323       38.993     6839.629     4668.096     1520.474        2.241        0.651      177.358       33.295        0.035      346.197       24.267      859.920
10/07/2014  19:17:00     -320.194      -66.814       -8.931       97.963       93.530       51.904     9596.709     8747.798     2694.073        6.405        1.052      327.091       46.126        0.020      346.189       24.253      859.917
10/07/2014  19:18:00     -248.011      -73.611      -17.036      114.656       82.549       51.768    13146.047     6814.354     2679.900        4.493        1.132      258.704       60.057        0.054      346.122       24.139      859.938
10/07/2014  19:19:00     -218.444      -32.483       -4.441      108.848       74.165       44.128    11847.882     5500.446     1947.314        3.404        0.965      220.846       49.868        0.051      346.015       23.955      859.937
10/07/2014  19:20:00     -223.612      -86.551        0.969      111.397      102.254       51.006    12409.322    10455.813     2601.636        4.148        1.273      239.778       53.527        0.050      346.018       23.960      859.949
10/07/2014  19:21:00     -277.704      -21.271       -1.998      106.220       81.332       57.719    11282.588     6614.875     3331.464        4.940        1.061      278.517       58.991        0.045      345.967       23.874      859.968
10/07/2014  19:22:00     -349.912      -84.923      -12.471      148.937      109.793       60.341    22182.223    12054.592     3641.067        8.384        1.894      360.070       62.329        0.030      346.033       23.987      859.991
10/07/2014  19:23:00     -230.257      -24.782      -13.673       86.072       90.831       47.413     7408.384     8250.191     2248.016        3.586        0.895      231.587       43.633        0.035      345.967       23.872      860.014
10/07/2014  19:24:00     -285.559        5.173      -11.421      110.194       96.331       51.553    12142.731     9279.644     2657.668        5.289        1.204      285.606       42.460        0.022      346.024       23.971      860.016
10/07/2014  19:25:00     -240.443      -39.812      -13.368       92.525       68.150       50.913     8560.943     4644.469     2592.182        3.768        0.790      243.716       51.483        0.045      345.986       23.905      860.007
10/07/2014  19:26:00     -265.085      -37.683      -21.315      101.341       85.104       49.961    10269.935     7242.776     2496.055        4.607        1.000      267.750       51.099        0.036      346.068       24.047      859.985
10/07/2014  19:27:00     -245.747      -81.160       -1.274      121.250      104.305       47.098    14701.512    10879.615     2218.176        4.739        1.390      258.802       61.534        0.057      345.966       23.871      859.982
10/07/2014  19:28:00     -235.879      -51.035       -2.133      138.257       70.311       55.418    19115.025     4943.567     3071.125        4.268        1.356      241.337       65.224        0.073      345.895       23.750      860.004
10/07/2014  19:29:00     -145.787      -33.834        6.930      127.478       97.407       46.040    16250.711     9488.216     2119.710        2.515        1.393      149.662       64.274        0.184      345.811       23.608      859.996
10/07/2014  19:30:00     -308.693     -108.844      -16.643      132.175      108.146       68.120    17470.354    11695.656     4640.287        7.061        1.690      327.320       64.122        0.038      345.993       23.919      859.981
10/07/2014  19:31:00     -222.735     -118.934       -9.989       79.021       93.553       47.817     6244.248     8752.141     2286.462        4.057        0.864      252.499       33.783        0.018      345.969       23.876      859.968
10/07/2014  19:32:00     -226.512      -97.947       -4.470      119.831       97.582       53.182    14359.516     9522.329     2828.369        4.381        1.336      246.781       47.787        0.037      345.938       23.823      859.993
10/07/2014  19:33:00     -136.258      -46.877        6.658      134.284       83.280       58.633    18032.131     6935.561     3437.884        2.460        1.420      144.096       62.551        0.188      345.901       23.762      860.014
10/07/2014  19:34:00     -226.308      -54.418       -2.285      110.160       81.851       46.211    12135.301     6699.604     2135.488        3.757        1.049      232.759       51.033        0.048      345.979       23.893      860.027
10/07/2014  19:35:00     -236.622     -101.877        2.236      153.350       92.072       53.629    23516.247     8477.218     2876.026        5.062        1.743      257.622       63.188        0.060      345.967       23.872      860.047
10/07/2014  19:36:00     -306.010      -41.914      -18.769      191.141      113.361       70.172    36534.995    12850.733     4924.140        7.502        2.715      308.867       92.533        0.090      346.005       23.939      860.055
10/07/2014  19:37:00     -161.431      -65.962        2.409       89.069       85.240       55.082     7933.250     7265.859     3033.982        2.432        0.912      174.387       53.150        0.093      345.931       23.813      860.065
10/07/2014  19:38:00     -252.595      -32.481      -11.988       91.684       87.758       53.857     8406.010     7701.534     2900.533        4.200        0.950      254.675       48.889        0.037      345.919       23.791      860.075
10/07/2014  19:39:00     -249.368      -48.124      -13.488      127.993       75.612       43.114    16382.196     5717.149     1858.842        4.432        1.198      253.969       44.043        0.030      345.920       23.792      860.088
10/07/2014  19:40:00     -206.684     -102.747       -5.523      112.839       74.379       45.132    12732.567     5532.170     2036.937        3.680        1.015      230.814       49.732        0.046      345.912       23.779      860.094
10/07/2014  19:41:00     -365.793      -76.103      -25.490      124.314      117.890       64.416    15454.008    13898.111     4149.452        8.687        1.675      373.626       55.557        0.022      345.991       23.914      860.089
10/07/2014  19:42:00     -326.377      -52.850      -26.858      100.438       99.644       55.041    10087.695     9928.994     3029.539        6.654        1.152      330.628       43.502        0.017      345.917       23.787      860.098
10/07/2014  19:43:00     -308.741      -44.881       -9.656      129.664       80.240       58.635    16812.649     6438.514     3438.066        6.205        1.334      311.986       57.260        0.034      345.897       23.753      860.112
10/07/2014  19:44:00     -345.151      -62.838       -0.579      109.149       98.111       59.131    11913.466     9625.754     3496.443        7.405        1.252      350.824       52.531        0.022      345.885       23.733      860.111
10/07/2014  19:45:00     -329.429      -62.583      -21.307      103.377      101.623       51.551    10686.751    10327.178     2657.480        6.828        1.184      335.320       49.950        0.022      345.893       23.744      860.137
10/07/2014  19:46:00     -196.449      -28.834      -13.796      104.352       79.876       39.872    10889.333     6380.232     1589.762        2.923        0.943      198.554       40.345        0.041      345.811       23.605      860.149
10/07/2014  19:47:00     -288.356      -56.972      -17.326      122.201       80.874       48.122    14933.134     6540.551     2315.722        5.524        1.189      293.930       53.084        0.033      345.821       23.623      860.153
10/07/2014  19:48:00     -202.036      -53.126       -7.475      109.299       86.020       49.327    11946.249     7399.414     2433.174        3.273        1.089      208.904       47.594        0.052      345.758       23.516      860.175
10/07/2014  19:49:00     -195.695      -59.064       -3.386      111.217      101.125       59.223    12369.160    10226.269     3507.397        3.395        1.305      204.414       57.303        0.079      345.743       23.490      860.179
10/07/2014  19:50:00     -306.028      -54.468      -22.378       86.076       74.390       42.222     7409.146     5533.904     1782.671        5.592        0.736      310.837       37.452        0.015      345.830       23.637      860.197
10/07/2014  19:51:00     -246.168      -57.860       -4.730       97.195       73.866       46.628     9446.828     5456.240     2174.186        4.052        0.854      252.876       50.842        0.040      345.799       23.586      860.215
10/07/2014  19:52:00     -219.744     -103.785      -12.242       96.326       76.113       43.948     9278.697     5793.157     1931.410        3.810        0.850      243.020       43.382        0.032      345.814       23.611      860.221
10/07/2014  19:53:00     -292.888     -118.413      -10.312      115.297       91.134       54.384    13293.486     8305.440     2957.569        6.223        1.228      315.919       47.146        0.022      345.795       23.578      860.233
10/07/2014  19:54:00     -264.145      -28.498       -1.162      108.623       80.476       56.920    11798.877     6476.428     3239.877        4.605        1.076      265.678       57.792        0.047      345.751       23.502      860.253
10/07/2014  19:55:00     -243.634      -54.076      -10.003      106.023       80.655       54.723    11240.894     6505.184     2994.624        4.156        1.037      249.563       62.198        0.062      345.770       23.535      860.255
10/07/2014  19:56:00     -237.194      -39.012      -15.513      112.851       84.086       49.352    12735.336     7070.523     2435.594        4.013        1.112      240.381       57.005        0.056      345.795       23.578      860.273
10/07/2014  19:57:00     -210.903      -74.049       -8.402      120.409       96.861       50.467    14498.398     9382.023     2546.939        3.823        1.321      223.525       62.902        0.079      345.810       23.602      860.264
10/07/2014  19:58:00     -278.124      -66.933      -15.971      129.360       90.552       50.270    16734.112     8199.743     2527.085        5.477        1.373      286.065       63.195        0.049      345.758       23.515      860.253
10/07/2014  19:59:00     -268.236      -41.802       -7.020      133.248       89.300       55.855    17754.921     7974.490     3119.809        5.129        1.442      271.474       65.092        0.057      345.734       23.472      860.268
10/07/2014  20:00:00     -238.793      -38.737        0.891      118.692       94.295       47.318    14087.783     8891.629     2238.951        4.187        1.261      241.914       51.775        0.046      345.706       23.426      860.286
10/07/2014  20:01:00     -242.482      -22.712      -19.167      113.909       81.531       47.316    12975.262     6647.291     2238.768        4.077        1.093      243.543       43.771        0.032      345.682       23.383      860.293
10/07/2014  20:02:00     -203.417       -2.065      -14.856       78.472       82.903       38.057     6157.863     6872.885     1448.367        2.804        0.724      203.427       36.793        0.033      345.641       23.313      860.309
10/07/2014  20:03:00     -238.797      -49.183      -26.150       58.471       53.896       35.612     3418.809     2904.819     1268.190        3.386        0.380      243.810       25.343        0.011      345.710       23.430      860.303
10/07/2014  20:04:00     -190.066      -42.053       -3.754       87.659       63.183       40.831     7684.166     3992.118     1667.196        2.562        0.667      194.662       44.733        0.053      345.644       23.319      860.299
10/07/2014  20:05:00     -258.380      -46.104       -6.220       88.166       70.369       44.499     7773.156     4951.788     1980.117        4.181        0.735      262.461       42.362        0.026      345.658       23.341      860.316
10/07/2014  20:06:00     -273.799     -103.523      -13.396      120.698       89.696       45.528    14567.915     8045.323     2072.784        5.527        1.234      292.716       56.158        0.037      345.639       23.310      860.330
10/07/2014  20:07:00     -284.364      -17.936      -13.302      114.155       65.069       46.331    13031.283     4233.981     2146.551        5.038        0.971      284.929       55.235        0.038      345.622       23.281      860.339
10/07/2014  20:08:00     -142.037      -24.139       -0.640       99.281       64.107       45.305     9856.750     4109.749     2052.552        1.839        0.801      144.073       45.752        0.101      345.562       23.179      860.341
10/07/2014  20:09:00     -216.340      -40.147      -23.004       82.030       63.909       40.731     6728.956     4084.365     1659.027        3.071        0.624      220.033       36.452        0.027      345.632       23.298      860.340
10/07/2014  20:10:00     -186.603      -21.830       -9.722       66.998       77.858       39.326     4488.737     6061.811     1546.516        2.374        0.605      187.876       34.268        0.033      345.553       23.163      860.349
10/07/2014  20:11:00     -286.117      -51.561      -17.706       74.955       70.366       42.752     5618.271     4951.386     1827.754        4.861        0.620      290.726       39.176        0.018      345.577       23.203      860.357
10/07/2014  20:12:00     -231.263      -21.540      -15.400      100.068       73.589       41.696    10013.699     5415.313     1738.526        3.567        0.858      232.263       51.333        0.049      345.529       23.120      860.367
10/07/2014  20:13:00     -249.678      -87.338       -4.574      100.159      102.039       46.041    10031.821    10411.975     2119.809        4.627        1.128      264.513       50.037        0.036      345.486       23.046      860.385
10/07/2014  20:14:00     -196.720      -65.568        4.199      104.458       75.412       49.043    10911.531     5686.944     2405.237        3.101        0.950      207.360       50.900        0.060      345.495       23.064      860.396
10/07/2014  20:15:00     -177.016      -47.979       -7.355       77.474       67.613       51.350     6002.197     4571.543     2636.796        2.345        0.661      183.403       49.009        0.071      345.456       22.997      860.408
10/07/2014  20:16:00     -280.179      -58.260      -29.290       93.150       73.769       37.402     8676.934     5441.834     1398.918        4.913        0.776      286.172       38.229        0.018      345.633       23.299      860.415
10/07/2014  20:17:00     -175.645      -38.405      -14.097       95.321       48.089       38.028     9086.126     2312.544     1446.127        2.268        0.642      179.795       40.916        0.052      345.575       23.200      860.411
10/07/2014  20:18:00     -153.501      -21.501       -3.846       91.123       54.436       39.784     8303.384     2963.224     1582.805        1.844        0.642      154.999       47.736        0.095      345.475       23.032      860.413
10/07/2014  20:19:00     -275.632      -15.181      -14.166      111.722       98.105       52.456    12481.876     9624.578     2751.650        5.063        1.243      276.050       53.846        0.038      345.590       23.224      860.419
10/07/2014  20:20:00     -315.691      -77.213      -19.643       70.332       79.300       49.816     4946.524     6288.531     2481.677        5.986        0.686      324.996       40.479        0.016      345.617       23.271      860.423
10/07/2014  20:21:00     -248.048      -76.394       -2.380      113.730       81.620       46.278    12934.511     6661.749     2141.659        4.455        1.087      259.545       54.550        0.044      345.564       23.182      860.424
10/07/2014  20:22:00     -298.570      -26.533       -9.078      114.579       76.473       50.412    13128.421     5848.183     2541.367        5.572        1.076      299.747       58.134        0.038      345.594       23.234      860.432
10/07/2014  20:23:00     -229.601      -40.633      -10.467       86.407       70.485       40.637     7466.179     4968.181     1651.327        3.428        0.704      233.169       46.097        0.039      345.561       23.175      860.436
10/07/2014  20:24:00     -220.376      -28.417      -25.120       60.732       61.518       36.266     3688.380     3784.442     1315.226        2.939        0.439      222.201       30.541        0.019      345.491       23.056      860.443
10/07/2014  20:25:00     -210.605      -67.657       -3.471       79.622       71.340       41.299     6339.613     5089.399     1705.581        3.104        0.657      221.205       42.645        0.037      345.377       22.860      860.463
10/07/2014  20:26:00     -251.098      -52.428      -10.687      112.078       73.736       54.128    12561.506     5436.963     2929.845        4.342        1.046      256.513       57.105        0.050      345.374       22.855      860.475
10/07/2014  20:27:00     -207.145      -71.527       -6.638      101.545       84.682       44.087    10311.307     7171.048     1943.631        3.374        0.971      219.146       52.366        0.057      345.354       22.822      860.480
10/07/2014  20:28:00     -163.545      -50.891       -5.907       83.465       69.873       42.259     6966.326     4882.245     1785.843        2.150        0.682      171.280       46.556        0.074      345.282       22.698      860.486
10/07/2014  20:29:00     -193.421      -56.703      -12.718       79.786       58.400       43.677     6365.804     3410.607     1907.714        2.623        0.584      201.561       37.756        0.035      345.323       22.768      860.492
10/07/2014  20:30:00     -260.356      -55.000      -20.553       94.850       76.887       41.213     8996.518     5911.539     1698.504        4.392        0.830      266.102       47.121        0.031      345.360       22.832      860.487
10/07/2014  20:31:00     -224.144      -51.890      -22.305       61.689       82.777       39.209     3805.590     6851.971     1537.355        3.281        0.610      230.072       28.028        0.015      345.348       22.810      860.502
10/07/2014  20:32:00     -229.535      -57.166      -17.103       67.163       77.987       38.505     4510.910     6081.932     1482.632        3.416        0.604      236.546       37.625        0.025      345.334       22.785      860.498
10/07/2014  20:33:00     -204.912      -57.832      -21.231       59.290       48.908       29.625     3515.334     2392.000      877.648        2.628        0.339      212.916       16.433        0.006      345.262       22.663      860.502
10/07/2014  20:34:00     -220.147      -34.387      -18.705       69.922       54.703       42.023     4889.105     2992.415     1765.937        2.982        0.482      222.816       31.067        0.019      345.306       22.738      860.505
10/07/2014  20:35:00     -197.500      -58.263      -12.693       88.508       74.201       42.881     7833.702     5505.795     1838.782        2.887        0.759      205.915       32.796        0.025      345.246       22.635      860.520
10/07/2014  20:36:00     -262.965      -53.883       -4.487      108.923       80.667       50.431    11864.143     6507.171     2543.262        4.649        1.046      268.429       57.804        0.046      345.243       22.631      860.513
10/07/2014  20:37:00     -248.355      -66.381      -11.046       85.200       61.550       45.850     7258.970     3788.363     2102.178        3.968        0.657      257.074       45.390        0.031      345.233       22.614      860.524
10/07/2014  20:38:00     -215.540      -31.797       -0.622      108.349       77.207       56.294    11739.535     5960.880     3169.007        3.417        1.043      217.873       61.995        0.081      345.220       22.591      860.539
10/07/2014  20:39:00     -292.581      -68.056      -14.495      116.063       65.432       51.170    13470.546     4281.350     2618.417        5.540        1.019      300.392       55.468        0.034      345.275       22.686      860.543
10/07/2014  20:40:00     -284.963      -15.331       -5.779      107.027       95.741       51.826    11454.863     9166.413     2685.927        5.239        1.165      285.375       53.403        0.035      345.309       22.744      860.541
10/07/2014  20:41:00     -171.365      -53.749        6.462      118.829       70.988       43.935    14120.302     5039.291     1930.289        2.669        1.054      179.596       54.201        0.091      345.365       22.839      860.552
10/07/2014  20:42:00     -279.970      -51.611      -10.368       92.751       71.531       46.223     8602.675     5116.726     2136.530        4.850        0.793      284.687       48.794        0.029      345.337       22.789      860.559
10/07/2014  20:43:00     -240.593      -65.827      -12.704       71.453       80.843       36.604     5105.466     6535.601     1339.878        3.768        0.649      249.435       29.592        0.014      345.317       22.756      860.553
10/07/2014  20:44:00     -241.357      -66.850       -8.383       64.427       71.436       39.971     4150.797     5103.062     1597.699        3.682        0.543      250.444       34.993        0.020      345.313       22.749      860.573
10/07/2014  20:45:00     -271.945      -12.128      -29.746       95.903       58.949       45.668     9197.436     3475.022     2085.534        4.487        0.738      272.215       47.467        0.030      345.301       22.729      860.581
10/07/2014  20:46:00     -247.946      -40.090       -9.710      112.876       71.406       47.777    12741.096     5098.806     2282.674        4.165        1.006      251.166       49.880        0.039      345.296       22.722      860.583
10/07/2014  20:47:00     -253.060      -72.834      -12.538       91.141       90.686       42.354     8306.752     8223.902     1793.865        4.391        0.916      263.333       37.509        0.020      345.267       22.672      860.607
10/07/2014  20:48:00     -226.611      -72.832        2.923      121.655       98.028       51.862    14799.960     9609.402     2689.678        4.188        1.355      238.027       55.589        0.055      345.210       22.574      860.613
10/07/2014  20:49:00     -267.837      -36.915       -6.850       93.804       83.906       54.118     8799.202     7040.238     2928.712        4.595        0.938      270.368       55.745        0.043      345.286       22.705      860.618
10/07/2014  20:50:00     -247.655      -29.402       -0.550       88.532       74.637       52.542     7837.894     5570.694     2760.610        3.918        0.808      249.394       49.852        0.040      345.268       22.673      860.630
10/07/2014  20:51:00     -237.553      -70.194       -2.143      104.504       76.812       43.660    10921.078     5900.014     1906.158        4.004        0.936      247.707       40.357        0.027      345.204       22.564      860.632
10/07/2014  20:52:00     -244.686      -60.657      -17.837       85.642       78.376       39.256     7334.517     6142.844     1541.033        3.944        0.751      252.093       31.973        0.016      345.227       22.602      860.636
10/07/2014  20:53:00     -232.680      -35.241      -15.771      107.656       74.649       42.823    11589.789     5572.469     1833.826        3.731        0.950      235.334       53.467        0.052      345.205       22.566      860.646
10/07/2014  20:54:00     -284.830      -53.142       -8.859      100.933       80.185       51.590    10187.423     6429.573     2661.506        5.165        0.964      289.745       53.320        0.034      345.212       22.578      860.652
10/07/2014  20:55:00     -223.685      -53.503       -5.555       89.458       76.892       47.883     8002.772     5912.336     2292.812        3.457        0.810      229.995       46.941        0.042      345.126       22.431      860.653
10/07/2014  20:56:00     -306.545      -63.686      -23.204      118.861       89.908       57.058    14127.963     8083.437     3255.592        6.201        1.273      313.090       58.217        0.035      345.219       22.590      860.663
10/07/2014  20:57:00     -207.425      -59.399       -2.896      104.733       79.713       44.700    10969.060     6354.214     1998.047        3.294        0.966      215.763       48.696        0.051      345.165       22.498      860.671
10/07/2014  20:58:00     -232.968      -38.433       -1.849      114.953       66.883       55.898    13214.087     4473.397     3124.545        3.828        1.041      236.117       60.776        0.066      345.137       22.449      860.667
10/07/2014  20:59:00     -176.561      -52.564       -6.575       73.134       73.538       42.712     5348.546     5407.868     1824.320        2.328        0.629      184.219       32.918        0.032      345.112       22.407      860.659
10/07/2014  21:00:00     -236.665      -47.538       -5.776      113.011       74.462       58.041    12771.443     5544.602     3368.804        3.999        1.084      241.392       56.543        0.055      345.156       22.482      860.666
10/07/2014  21:01:00     -302.244      -56.093      -11.335       83.910       90.398       45.578     7040.868     8171.723     2077.365        5.596        0.864      307.405       40.079        0.017      345.227       22.603      860.663
10/07/2014  21:02:00     -292.083      -56.749       -2.999      132.069       81.007       54.133    17442.203     6562.059     2930.404        5.773        1.347      297.545       64.427        0.047      345.191       22.541      860.657
10/07/2014  21:03:00     -256.170      -30.479       -7.006       95.793       68.584       48.903     9176.214     4703.733     2391.503        4.143        0.814      257.977       47.987        0.035      345.146       22.464      860.655
10/07/2014  21:04:00     -264.343      -41.835      -14.408       87.820       61.642       50.491     7712.385     3799.778     2549.384        4.295        0.703      267.633       52.243        0.038      345.200       22.557      860.668
10/07/2014  21:05:00     -291.152      -43.546       -3.964      100.056       80.569       54.960    10011.267     6491.402     3020.639        5.310        0.976      294.390       52.740        0.032      345.156       22.480      860.672
10/07/2014  21:06:00     -213.579      -19.466      -10.206      105.401       85.627       47.177    11109.289     7331.925     2225.667        3.338        1.033      214.464       47.593        0.049      345.089       22.368      860.676
10/07/2014  21:07:00     -220.652      -32.353       -2.584      107.414       66.988       45.796    11537.691     4487.360     2097.234        3.393        0.906      223.012       51.478        0.053      345.089       22.367      860.677
10/07/2014  21:08:00     -256.948      -69.019       -4.637      107.000       78.830       47.465    11449.030     6214.175     2252.926        4.536        0.996      266.056       52.098        0.038      345.143       22.460      860.672
10/07/2014  21:09:00     -259.171      -46.424      -25.402       88.729       73.430       44.299     7872.837     5391.964     1962.437        4.260        0.761      263.296       44.701        0.029      345.129       22.434      860.672
10/07/2014  21:10:00     -184.585      -51.817       -7.016      100.043       70.305       53.240    10008.611     4942.831     2834.538        2.729        0.889      191.720       57.471        0.090      345.054       22.308      860.670
10/07/2014  21:11:00     -254.569      -65.760      -11.291       76.165       76.840       41.863     5801.065     5904.401     1752.502        4.136        0.673      262.926       36.668        0.019      345.108       22.400      860.679
10/07/2014  21:12:00     -224.529      -27.910      -11.636       86.096       65.551       47.996     7412.492     4296.948     2303.582        3.267        0.701      226.257       46.761        0.043      345.077       22.348      860.683
10/07/2014  21:13:00     -262.263      -54.903       -7.022       87.409       67.257       40.413     7640.348     4523.489     1633.222        4.282        0.690      267.948       39.136        0.021      345.091       22.371      860.667
10/07/2014  21:14:00     -280.321      -37.686      -28.418       78.640       77.818       41.693     6184.209     6055.682     1738.292        4.739        0.699      282.843       31.946        0.013      345.179       22.521      860.666
10/07/2014  21:15:00     -286.977      -38.427      -13.412       86.125       54.452       43.611     7417.597     2965.014     1901.932        4.815        0.614      289.538       40.132        0.019      345.148       22.468      860.677
10/07/2014  21:16:00     -305.236      -14.333      -32.716       88.386       80.960       50.637     7812.047     6554.558     2564.096        5.568        0.847      305.572       45.619        0.022      345.140       22.454      860.669
10/07/2014  21:17:00     -288.884      -21.104      -21.140       76.911       82.216       47.260     5915.253     6759.470     2233.476        4.962        0.745      289.653       44.507        0.024      345.162       22.490      860.667
10/07/2014  21:18:00     -223.092      -36.955      -20.425       80.591       65.628       45.797     6494.937     4307.088     2097.370        3.222        0.645      226.132       48.305        0.046      345.041       22.286      860.676
10/07/2014  21:19:00     -254.250      -79.417       -7.936       77.453       66.663       40.274     5998.970     4443.977     1622.016        4.154        0.603      266.364       28.996        0.012      345.054       22.307      860.684
10/07/2014  21:20:00     -219.097      -34.170       -1.676       98.992       68.150       45.852     9799.442     4644.388     2102.365        3.286        0.827      221.746       44.854        0.041      345.055       22.311      860.687
10/07/2014  21:21:00     -248.458      -46.818      -10.585      116.620       93.891       47.696    13600.153     8815.594     2274.869        4.436        1.235      252.830       48.635        0.037      345.113       22.408      860.680
10/07/2014  21:22:00     -199.582      -38.031        0.956       92.175       81.118       47.874     8496.289     6580.122     2291.878        2.932        0.868      203.173       52.566        0.067      345.040       22.283      860.686
10/07/2014  21:23:00     -248.992      -32.095       -3.891      103.999       56.256       42.980    10815.732     3164.728     1847.285        3.943        0.791      251.052       48.820        0.038      345.079       22.351      860.705
10/07/2014  21:24:00     -227.954      -40.601       -9.718       83.498       81.485       44.239     6971.901     6639.817     1957.082        3.463        0.778      231.542       35.292        0.023      345.093       22.373      860.709
10/07/2014  21:25:00     -176.168      -69.749       -4.944       70.446       80.394       42.580     4962.652     6463.140     1813.045        2.458        0.662      189.474       29.237        0.024      345.044       22.291      860.712
10/07/2014  21:26:00     -203.126      -63.135       -2.518       88.374       73.030       45.519     7809.880     5333.327     2071.941        3.023        0.761      212.712       49.747        0.055      345.026       22.260      860.720
10/07/2014  21:27:00     -246.861      -34.463       -9.902      103.947       78.274       43.562    10804.959     6126.878     1897.639        4.052        0.941      249.255       52.576        0.044      344.980       22.182      860.738
10/07/2014  21:28:00     -291.776      -28.673      -13.236       82.473       71.365       49.154     6801.771     5092.951     2416.094        5.022        0.716      293.182       50.201        0.029      345.109       22.401      860.744
10/07/2014  21:29:00     -261.941      -13.415      -23.077       74.364       58.216       38.269     5529.935     3389.151     1464.526        3.985        0.519      262.284       30.715        0.014      345.065       22.325      860.742
10/07/2014  21:30:00     -224.123      -24.825      -14.974       75.794       72.022       41.073     5744.796     5187.140     1686.986        3.184        0.631      225.494       38.637        0.029      345.024       22.257      860.753
10/07/2014  21:31:00     -203.139      -91.341       -5.466       63.782       58.486       34.560     4068.172     3420.598     1194.383        2.916        0.434      222.730       28.746        0.017      344.995       22.207      860.767
10/07/2014  21:32:00     -147.637      -86.586       -1.036       64.815       72.392       39.648     4200.980     5240.545     1572.003        2.015        0.551      171.155       36.291        0.045      344.918       22.076      860.766
10/07/2014  21:33:00     -211.914      -60.863       -6.478       90.373       77.944       39.640     8167.198     6075.317     1571.356        3.223        0.791      220.481       41.120        0.035      344.929       22.094      860.762
10/07/2014  21:34:00     -167.364      -72.541        2.328       81.760       86.893       48.071     6684.696     7550.382     2310.869        2.491        0.827      182.409       46.629        0.065      344.928       22.092      860.762
10/07/2014  21:35:00     -171.840      -38.126       -9.782       93.035       64.381       39.101     8655.524     4144.961     1528.875        2.270        0.716      176.018       46.701        0.070      344.903       22.049      860.765
10/07/2014  21:36:00     -185.923      -23.207       -5.183       52.758       58.569       36.299     2783.387     3430.345     1317.617        2.133        0.377      187.365       32.078        0.029      344.876       22.004      860.763
10/07/2014  21:37:00     -196.377      -14.797      -11.177       63.337       60.718       35.285     4011.550     3686.717     1245.010        2.392        0.447      196.933       32.399        0.027      344.865       21.985      860.753
10/07/2014  21:38:00     -197.515      -19.787      -10.630       61.657       54.756       38.705     3801.553     2998.173     1498.050        2.391        0.415      198.504       33.186        0.028      344.943       22.117      860.764
10/07/2014  21:39:00     -188.077      -38.959      -16.109       66.464       59.373       33.159     4417.437     3525.125     1099.500        2.309        0.452      192.069       36.622        0.036      344.900       22.044      860.765
10/07/2014  21:40:00     -205.839      -22.370       -7.043       95.150       58.919       40.987     9053.596     3471.438     1679.907        2.856        0.710      207.051       36.843        0.032      344.887       22.022      860.773
10/07/2014  21:41:00     -185.266      -22.038      -19.060       68.406       59.930       39.708     4679.403     3591.581     1576.720        2.251        0.492      186.572       33.891        0.033      344.874       22.000      860.775
10/07/2014  21:42:00     -179.276      -26.968       -7.133       72.634       57.576       39.536     5275.640     3315.022     1563.127        2.153        0.508      181.293       38.542        0.045      344.839       21.940      860.793
10/07/2014  21:43:00     -207.953      -80.294       -4.672       77.907       68.150       36.151     6069.494     4644.411     1306.867        3.087        0.601      222.917       32.560        0.021      344.956       22.139      860.804
10/07/2014  21:44:00     -169.909       -9.232       -4.143       80.849       51.373       33.913     6536.482     2639.153     1150.123        1.965        0.516      170.160       28.188        0.027      344.966       22.160      860.811
10/07/2014  21:45:00      -97.678      -13.434       -4.383       41.070       30.617       18.986     1686.750      937.396      360.455        0.636        0.149       98.597       19.965        0.041      344.882       22.016      860.803
10/07/2014  21:46:00     -105.530      -23.618       -6.430       27.952       26.375       16.745      781.312      695.635      280.391        0.675        0.088      108.141       15.632        0.021      344.829       21.926      860.802
10/07/2014  21:47:00     -110.041       -7.893       -3.896       57.817       41.545       25.170     3342.770     1726.001      633.512        0.894        0.285      110.324       28.356        0.066      344.740       21.773      860.817
10/07/2014  21:48:00     -151.742      -44.230       -4.875       50.226       34.182       27.540     2522.659     1168.418      758.455        1.473        0.222      158.057       27.493        0.030      344.744       21.779      860.842
10/07/2014  21:49:00      -99.337      -14.989       -0.103       52.730       35.677       29.827     2780.481     1272.855      889.660        0.752        0.247      100.461       31.438        0.098      344.737       21.768      860.849
10/07/2014  21:50:00      -86.427      -21.612        4.845       62.440       35.776       25.063     3898.785     1279.897      628.141        0.688        0.290       89.088       31.362        0.124      344.737       21.768      860.848
10/07/2014  21:51:00      -15.579        5.254        5.765       16.201       22.948       13.452      262.488      526.627      180.961        0.064        0.049       16.441        9.801        0.355      344.667       21.650      860.853
10/07/2014  21:52:00      -37.282      -31.729       -7.387       36.438       22.193       15.471     1327.741      492.549      239.357        0.226        0.103       48.956       12.817        0.069      344.799       21.876      860.866
10/07/2014  21:53:00      -25.180      -24.952        5.604       23.422       22.480       13.482      548.605      505.343      181.767        0.126        0.062       35.449       12.818        0.131      344.830       21.927      860.890
10/07/2014  21:54:00       -2.763      -21.491       10.021       24.237       18.066       14.205      587.416      326.382      201.787        0.084        0.056       21.668       15.271        0.497      344.721       21.741      860.913
10/07/2014  21:55:00        9.106      -30.659        8.381       14.765       16.947       10.793      218.014      287.212      116.497        0.086        0.031       31.982        6.887        0.046      344.743       21.777      860.912
10/07/2014  21:56:00       32.831      -60.291      -10.709       23.766       26.237       17.680      564.806      688.382      312.596        0.320        0.078       68.650       17.065        0.062      344.659       21.634      860.915
10/07/2014  21:57:00       37.670      -40.983      -11.328       23.240       27.870       13.623      540.085      776.760      185.596        0.236        0.075       55.666       10.088        0.033      344.528       21.411      860.919
10/07/2014  21:58:00       18.245      -36.497       -3.419       22.910       18.943       21.137      524.872      358.824      446.790        0.150        0.067       40.804       15.289        0.140      344.305       21.030      860.937
10/07/2014  21:59:00       29.883      -24.823       -4.330       21.041       19.850       14.464      442.731      394.030      209.198        0.129        0.052       38.848       12.171        0.098      344.383       21.162      860.950
10/07/2014  22:00:00       12.111      -15.090        7.996       16.094       21.538       14.851      259.028      463.882      220.562        0.069        0.047       19.349       10.194        0.278      344.099       20.677      860.956
10/07/2014  22:01:00       12.478        1.060        0.406       13.624        7.590        9.426      185.625       57.611       88.849        0.024        0.017       12.523        6.944        0.307      344.121       20.715      860.945
10/07/2014  22:02:00       -1.444      -32.833      -13.214       12.317       11.866       10.668      151.705      140.796      113.801        0.083        0.020       32.865        7.666        0.054      344.207       20.862      860.947
10/07/2014  22:03:00       -7.744      -40.104       -4.686       13.582       11.417        9.401      184.479      130.343       88.377        0.105        0.020       40.845        6.588        0.026      344.500       21.364      860.950
10/07/2014  22:04:00        0.751      -44.719       -8.036       14.297       11.401       10.566      204.398      129.988      111.645        0.126        0.022       44.726        4.934        0.012      344.421       21.228      860.961
10/07/2014  22:05:00       -5.649      -26.415        1.356       11.230        9.982        7.378      126.112       99.650       54.441        0.051        0.014       27.012        4.507        0.028      344.253       20.941      860.976
10/07/2014  22:06:00      -17.839      -26.939       -1.532       16.437       11.561        8.931      270.169      133.651       79.757        0.076        0.024       32.310        3.984        0.015      344.370       21.140      860.974
10/07/2014  22:07:00      -39.545      -24.486       -8.789       13.005        9.897        8.771      169.130       97.950       76.933        0.129        0.017       46.513        5.847        0.016      344.285       20.997      860.986
10/07/2014  22:08:00      -25.914      -20.894       -2.359        9.975       17.190        7.393       99.504      295.488       54.656        0.078        0.022       33.289        5.969        0.032      344.061       20.613      860.985
10/07/2014  22:09:00      -40.186      -42.690       -3.332       15.267       11.328       14.426      233.071      128.314      208.103        0.201        0.028       58.629        9.965        0.029      344.421       21.226      860.977
10/07/2014  22:10:00      -62.631      -26.030       -5.557       10.901        7.429        6.215      118.828       55.189       38.622        0.242        0.011       67.825        5.027        0.005      343.786       20.142      860.991
10/07/2014  22:11:00      -72.101      -39.438       -4.857       14.100       10.080        6.378      198.805      101.600       40.681        0.356        0.017       82.182        4.848        0.003      344.126       20.724      861.010
10/07/2014  22:12:00      -35.067      -46.078        0.343       21.901       19.874        6.452      479.671      394.957       41.634        0.213        0.046       57.904        8.128        0.020      344.105       20.688      861.013
10/07/2014  22:13:00      -24.920      -61.371       -3.761       21.630       26.211       14.002      467.866      686.999      196.062        0.288        0.068       66.237       12.169        0.034      344.278       20.982      861.005
10/07/2014  22:14:00      -54.440     -109.798       -3.216       34.317       41.544       18.716     1177.661     1725.904      350.304        0.914        0.163      122.553       14.962        0.015      344.186       20.826      861.020
10/07/2014  22:15:00      -69.422     -130.312       -9.165       53.091       39.493       34.870     2818.702     1559.676     1215.913        1.374        0.280      147.650       23.612        0.026      344.041       20.578      861.039
10/07/2014  22:16:00      -15.370     -113.553       -7.865       59.703       45.558       27.366     3564.452     2075.510      748.905        0.979        0.319      114.588       25.973        0.051      343.904       20.344      861.051
10/07/2014  22:17:00     -101.190      -91.338       -6.674       49.223       46.506       33.543     2422.949     2162.780     1125.143        1.217        0.286      136.316       23.044        0.029      343.786       20.142      861.055
10/07/2014  22:18:00      -80.831     -106.005        8.948       54.371       50.538       33.667     2956.238     2554.055     1133.479        1.225        0.332      133.306       30.947        0.054      343.698       19.993      861.073
10/07/2014  22:19:00      -49.193     -156.441      -10.401       43.740       49.957       27.933     1913.216     2495.676      780.249        1.609        0.259      163.993       19.144        0.014      343.772       20.117      861.083
10/07/2014  22:20:00      -77.823     -108.994       -9.467       47.785       36.982       22.659     2283.404     1367.671      513.414        1.109        0.208      133.926       17.672        0.017      343.738       20.060      861.075
10/07/2014  22:21:00      -35.349      -74.212       -4.068       32.746       31.464       25.414     1072.296      989.982      645.872        0.474        0.135       82.201       17.237        0.044      343.681       19.963      861.082
10/07/2014  22:22:00      -82.998      -98.164       -5.285       34.308       32.420       22.521     1177.065     1051.052      507.185        0.964        0.137      128.549       16.145        0.016      343.706       20.006      861.095
10/07/2014  22:23:00      -78.142     -127.870       -4.980       41.674       46.652       25.675     1736.747     2176.448      659.186        1.353        0.229      149.856        8.491        0.003      343.751       20.083      861.093
10/07/2014  22:24:00      -13.130      -84.445        7.161       22.230       46.817       19.523      494.173     2191.846      381.129        0.521        0.153       85.460       11.674        0.019      343.712       20.016      861.095
10/07/2014  22:25:00      -11.159      -24.208        6.803       26.426       31.558       16.508      698.326      995.938      272.507        0.136        0.098       26.656        9.599        0.130      343.672       19.949      861.103
10/07/2014  22:26:00      -83.131     -134.568       -3.239       43.865       47.835       25.503     1924.142     2288.206      650.425        1.495        0.243      158.175       18.717        0.014      343.735       20.056      861.114
10/07/2014  22:27:00     -115.957     -111.655       -1.206       55.447       60.214       30.980     3074.401     3625.783      959.790        1.679        0.383      160.975       26.345        0.027      343.627       19.871      861.122
10/07/2014  22:28:00      -93.062     -193.601      -16.622       38.016       49.077       31.688     1445.188     2408.558     1004.157        2.564        0.243      214.806       23.119        0.012      343.749       20.077      861.137
10/07/2014  22:29:00      -95.953     -128.596       -4.503       46.783       55.119       30.080     2188.649     3038.102      904.781        1.595        0.307      160.449       20.007        0.016      343.744       20.070      861.133
10/07/2014  22:30:00     -102.468     -143.698       -2.387       58.732       79.535       34.852     3449.492     6325.851     1214.648        2.107        0.549      176.490       34.988        0.039      343.683       19.964      861.140
10/07/2014  22:31:00      -96.202     -128.159       -3.862       60.496       52.612       37.643     3659.780     2768.022     1416.968        1.677        0.392      160.249       33.269        0.043      343.655       19.919      861.152
10/07/2014  22:32:00      -97.594      -73.735       -1.460       40.645       33.272       27.593     1652.022     1107.008      761.368        0.924        0.176      122.317       22.293        0.033      343.623       19.865      861.154
10/07/2014  22:33:00      -78.355      -71.000       -2.397       55.789       36.700       27.114     3112.384     1346.897      735.146        0.819        0.260      105.738       34.631        0.107      343.588       19.803      861.140
10/07/2014  22:34:00      -77.720     -102.869       -9.370       42.845       30.744       27.221     1835.686      945.212      741.001        1.012        0.176      128.928       17.611        0.019      343.639       19.892      861.153
10/07/2014  22:35:00      -80.403      -65.109        2.802       46.784       46.145       25.768     2188.730     2129.336      663.969        0.785        0.249      103.460       23.170        0.050      343.547       19.736      861.162
10/07/2014  22:36:00      -21.702      -75.281        9.982       38.996       31.048       19.197     1520.721      963.950      368.532        0.455        0.143       78.346       15.541        0.039      343.587       19.805      861.146
10/07/2014  22:37:00      -73.530     -109.615       -3.139       46.727       52.893       19.366     2183.392     2797.634      375.030        1.139        0.268      131.993       17.840        0.018      343.575       19.782      861.176
10/07/2014  22:38:00      -70.471      -77.621       -5.621       36.794       41.364       24.701     1353.810     1711.011      610.139        0.735        0.184      104.839       16.991        0.026      343.548       19.737      861.187
10/07/2014  22:39:00      -16.153      -47.817        6.071       39.083       27.217       16.952     1527.449      740.744      287.387        0.257        0.128       50.472       17.358        0.118      343.507       19.669      861.181
10/07/2014  22:40:00      -51.690       -9.880        2.198       43.235       25.052       12.555     1869.231      627.617      157.640        0.271        0.133       52.626       16.362        0.097      343.453       19.575      861.184
10/07/2014  22:41:00      -72.259       20.485       -2.125       18.225       21.740       11.585      332.149      472.632      134.204        0.329        0.047       75.107        9.191        0.015      343.476       19.613      861.200
10/07/2014  22:42:00      -44.467        6.275        2.162       16.527       10.860       10.079      273.143      117.949      101.594        0.126        0.025       44.907        7.552        0.028      343.505       19.662      861.219
10/07/2014  22:43:00      -35.764       -0.979       -2.063       12.209       10.436        7.881      149.059      108.913       62.116        0.080        0.016       35.777        5.125        0.021      343.356       19.410      861.232
10/07/2014  22:44:00      -56.160       39.641       -7.426       11.283       11.743        6.576      127.309      137.902       43.250        0.254        0.015       68.741        5.584        0.007      343.375       19.442      861.251
10/07/2014  22:45:00      -31.825       52.113      -13.331       13.408       13.438       10.763      179.785      180.589      115.835        0.219        0.024       61.062        5.443        0.008      343.257       19.241      861.268
10/07/2014  22:46:00        1.623       88.102      -16.597       11.977       20.314       12.914      143.451      412.642      166.762        0.438        0.036       88.117       10.870        0.015      343.232       19.198      861.272
10/07/2014  22:47:00       13.289      133.041      -23.832       16.675       24.180       12.259      278.041      584.680      150.277        0.973        0.051      133.703       10.758        0.006      343.182       19.113      861.289
10/07/2014  22:48:00       14.582      153.410      -27.919       13.033       21.092        8.742      169.862      444.884       76.423        1.261        0.035      154.102        8.829        0.003      343.098       18.971      861.320
10/07/2014  22:49:00        3.657      160.051      -23.496       11.751       34.011        9.898      138.095     1156.745       97.961        1.379        0.070      160.093        9.654        0.004      343.031       18.857      861.344
10/07/2014  22:50:00        1.542      213.398      -29.442       14.963       23.837        9.594      223.906      568.195       92.046        2.365        0.044      213.403       11.315        0.003      343.022       18.840      861.368
10/07/2014  22:51:00       23.442      202.429      -35.842       22.859       24.733       14.017      522.551      611.735      196.490        2.207        0.067      203.782       13.959        0.005      343.108       18.988      861.399
10/07/2014  22:52:00      -22.794      159.551      -22.944       24.897       30.928       11.291      619.864      956.534      127.480        1.410        0.085      161.171        4.717        0.001      343.115       19.000      861.421
10/07/2014  22:53:00      -68.976       97.906      -20.992       32.783       29.228       15.917     1074.735      854.292      253.363        0.848        0.109      119.764       16.300        0.019      342.945       18.710      861.447
10/07/2014  22:54:00      -18.620      137.843      -16.227       30.056       39.792       15.977      903.382     1583.386      255.272        1.118        0.137      139.095        8.852        0.004      343.200       19.143      861.473
10/07/2014  22:55:00       12.714      164.106      -14.625       38.244       38.170       20.867     1462.568     1456.953      435.431        1.533        0.168      164.598       21.058        0.016      343.244       19.219      861.462
10/07/2014  22:56:00       23.938      164.875      -21.820       27.061       41.014       21.772      732.285     1682.167      474.003        1.556        0.144      166.604       21.132        0.016      343.322       19.352      861.461
10/07/2014  22:57:00       24.014       67.231       -3.190       41.600       50.098       34.471     1730.585     2509.832     1188.243        0.527        0.271       71.391       32.643        0.209      343.059       18.904      861.444
10/07/2014  22:58:00       88.913       82.365        2.279       60.013       58.468       50.398     3601.586     3418.517     2540.004        1.213        0.478      121.201       40.246        0.110      343.183       19.115      861.413
10/07/2014  22:59:00      126.675       82.648       12.373       35.925       27.387       31.966     1290.618      750.068     1021.832        1.305        0.153      151.253       17.737        0.014      343.076       18.933      861.386
10/07/2014  23:00:00      131.542       54.791        8.412       64.321       48.123       36.273     4137.203     2315.825     1315.699        1.407        0.388      142.496       16.520        0.013      343.040       18.871      861.354
10/07/2014  23:01:00       30.768       31.188        9.862       95.982       35.006       27.817     9212.518     1225.390      773.784        0.661        0.561       43.811       13.828        0.100      343.099       18.972      861.341
10/07/2014  23:02:00     -239.143      -42.254      -20.938       70.482       57.448       25.683     4967.760     3300.261      659.596        3.417        0.446      242.847       20.992        0.007      342.728       18.337      861.376
10/07/2014  23:03:00     -172.627      -31.885      -10.233       71.114       56.144       32.228     5057.137     3152.130     1038.671        2.008        0.462      175.547       33.493        0.036      342.679       18.256      861.399
10/07/2014  23:04:00     -181.316      -40.176      -12.691       65.169       47.434       35.048     4246.948     2249.950     1228.380        2.119        0.386      185.713       31.076        0.028      342.595       18.113      861.410
10/07/2014  23:05:00      -12.999      -46.177        9.610       52.693       30.813       21.596     2776.594      949.432      466.405        0.329        0.210       47.972       28.629        0.356      343.023       18.843      861.391
10/07/2014  23:06:00        9.934       16.636       12.679       20.809       23.443       22.284      433.024      549.569      496.582        0.101        0.074       19.376       20.128        1.079      343.266       19.256      861.340
10/07/2014  23:07:00       23.652       36.811       12.511       31.325       15.924       17.461      981.259      253.587      304.902        0.181        0.077       43.754       17.329        0.157      343.643       19.899      861.332
10/07/2014  23:08:00       47.880       19.018       -4.030       29.044       12.739       15.703      843.535      162.291      246.585        0.196        0.063       51.519        3.587        0.005      343.563       19.763      861.333
10/07/2014  23:09:00      -44.394       -5.249       -8.671       31.970       19.032        8.787     1022.088      362.226       77.205        0.177        0.073       44.703        6.719        0.023      343.548       19.738      861.337
10/07/2014  23:10:00      -65.584        3.664       -8.563       53.858       40.210       28.375     2900.675     1616.849      805.159        0.485        0.266       65.687       25.270        0.148      342.648       18.205      861.369
10/07/2014  23:11:00      -47.607        7.198        8.213       49.900       34.895       20.473     2489.986     1217.694      419.125        0.326        0.206       48.148       25.266        0.275      342.732       18.348      861.364
10/07/2014  23:12:00      -26.894       17.698       -2.738       21.087       27.832       14.100      444.655      774.606      198.808        0.123        0.071       32.195       12.547        0.152      342.924       18.675      861.362
10/07/2014  23:13:00      -49.829       33.855       -9.987       19.009       29.739       11.408      361.329      884.417      130.136        0.255        0.069       60.242       11.208        0.035      343.254       19.237      861.350
10/07/2014  23:14:00      -35.777      -22.727       -0.858       13.526       15.970       12.432      182.956      255.028      154.545        0.119        0.030       42.385        9.652        0.052      343.081       18.942      861.329
10/07/2014  23:15:00     -106.172      -33.374       -8.000       30.543       14.870       10.185      932.874      221.117      103.728        0.685        0.063      111.294       10.629        0.009      342.655       18.216      861.335
10/07/2014  23:16:00     -100.408      -29.442      -10.122       27.292       16.173       10.101      744.845      261.551      102.029        0.608        0.055      104.635        8.512        0.007      342.679       18.257      861.342
10/07/2014  23:17:00       -0.667        0.182        5.473       30.572        9.949       10.285      934.619       98.984      105.776        0.058        0.057        0.692        6.146       78.892      342.604       18.132      861.322
10/07/2014  23:18:00      -19.825       -8.494       -2.144       26.882       12.028        9.811      722.617      144.673       96.262        0.072        0.048       21.568       11.777        0.298      342.868       18.579      861.322
10/07/2014  23:19:00     -138.749      -38.352      -22.865       27.915       20.663       15.017      779.238      426.954      225.514        1.134        0.072      143.951       13.582        0.009      342.923       18.672      861.342
10/07/2014  23:20:00     -151.486       -9.102      -10.744       65.775       27.158       26.011     4326.381      737.572      676.548        1.444        0.287      151.760       31.431        0.043      342.665       18.231      861.372
10/07/2014  23:21:00     -166.574      -13.573      -22.359       47.654       33.589       22.666     2270.877     1128.223      513.729        1.617        0.196      167.126       21.422        0.016      342.757       18.388      861.382
10/07/2014  23:22:00      -93.474       45.764       -8.041       39.393       45.106       25.070     1551.794     2034.518      628.522        0.755        0.211      104.075       26.766        0.066      343.312       19.334      861.384
10/07/2014  23:23:00       14.826       16.004        9.980       27.928       18.769       16.664      779.965      352.270      277.696        0.099        0.070       21.815       10.341        0.225      343.284       19.288      861.347
10/07/2014  23:24:00      -38.089        7.739       -2.590       42.927       13.501       14.448     1842.696      182.285      208.733        0.188        0.112       38.867       22.814        0.345      343.275       19.271      861.339
10/07/2014  23:25:00      -40.438       17.721       -4.426       19.105       20.861        8.866      364.998      435.196       78.605        0.142        0.044       44.150       10.890        0.061      343.337       19.377      861.345
10/07/2014  23:26:00      -79.394      -10.533      -11.468       10.498       27.941       11.000      110.216      780.714      121.006        0.378        0.051       80.090        7.054        0.008      343.405       19.494      861.353
10/07/2014  23:27:00     -104.409      -64.024       -1.659       32.396       28.736       20.613     1049.502      825.744      424.879        0.865        0.115      122.476       14.586        0.014      343.309       19.331      861.354
10/07/2014  23:28:00      -84.020      -64.830        3.692       60.987       56.345       31.410     3719.411     3174.754      986.613        0.958        0.394      106.124       35.201        0.110      343.387       19.462      861.354
10/07/2014  23:29:00      -35.632      -23.201       13.478       54.307       52.300       30.817     2949.238     2735.338      949.677        0.431        0.332       42.520       31.942        0.564      343.073       18.927      861.341
10/07/2014  23:30:00      -90.857      -66.192       -1.367       59.787       60.866       35.069     3574.454     3704.722     1229.829        1.057        0.425      112.412       32.892        0.086      343.139       19.041      861.344
10/07/2014  23:31:00     -102.265      -26.065      -11.162       44.039       28.343       21.565     1939.453      803.309      465.035        0.723        0.160      105.534       20.555        0.038      342.989       18.785      861.361
10/07/2014  23:32:00      -80.689      -53.585       -5.267       42.015       30.425       24.452     1765.221      925.650      597.890        0.635        0.164       96.862       24.385        0.063      342.865       18.576      861.336
10/07/2014  23:33:00     -169.568      -42.464      -12.016       61.335       36.745       28.694     3761.933     1350.168      823.341        1.832        0.297      174.804       33.322        0.036      342.866       18.573      861.329
10/07/2014  23:34:00     -102.263      -19.666      -14.440       35.883       34.842       23.150     1287.625     1213.964      535.905        0.704        0.152      104.137       15.005        0.021      342.833       18.519      861.320
10/07/2014  23:35:00     -105.348      -62.090       -6.711       35.185       42.333       25.279     1238.007     1792.055      639.008        0.933        0.183      122.284       17.351        0.020      342.873       18.587      861.314
10/07/2014  23:36:00     -153.590      -34.914      -17.791       50.926       36.546       23.234     2593.452     1335.593      539.798        1.480        0.223      157.508       17.702        0.013      342.910       18.649      861.311
10/07/2014  23:37:00     -134.405      -30.911      -15.476       42.246       40.044       22.190     1784.754     1603.484      492.386        1.157        0.194      137.914       24.075        0.030      342.717       18.321      861.303
10/07/2014  23:38:00     -144.678      -37.897      -18.068       25.479       27.598       17.894      649.186      761.651      320.213        1.221        0.087      149.559       15.795        0.011      342.640       18.189      861.306
10/07/2014  23:39:00     -166.134      -21.487      -20.132       26.599       22.085       15.525      707.524      487.746      241.012        1.495        0.072      167.517       10.815        0.004      342.623       18.161      861.304
10/07/2014  23:40:00     -145.487       20.748      -22.856       41.654       35.460       21.094     1735.078     1257.431      444.974        1.278        0.172      146.959       19.643        0.018      342.776       18.422      861.292
10/07/2014  23:41:00     -160.719       64.296      -20.794       63.374       48.246       35.972     4016.306     2327.690     1294.012        1.902        0.382      173.103       29.384        0.029      343.302       19.316      861.277
10/07/2014  23:42:00     -101.573       38.133      -10.072       49.996       41.165       23.803     2499.602     1694.597      566.579        0.832        0.238      108.495       20.177        0.035      343.202       19.147      861.276
10/07/2014  23:43:00     -119.995       26.783      -16.610       55.879       44.953       32.828     3122.518     2020.763     1077.665        1.081        0.311      122.948       31.539        0.066      343.248       19.225      861.268
10/07/2014  23:44:00     -119.066      -25.520      -18.858       36.229       34.670       19.195     1312.534     1202.040      368.446        0.903        0.144      121.770       16.309        0.018      342.779       18.426      861.251
10/07/2014  23:45:00     -115.443      -18.384      -14.520       22.596       22.225       13.298      510.587      493.971      176.825        0.753        0.059      116.898        9.090        0.006      342.768       18.407      861.243
10/07/2014  23:46:00     -126.980       -8.222      -14.265       15.538       22.840       13.885      241.435      521.676      192.801        0.868        0.048      127.246        7.792        0.004      342.823       18.501      861.238
10/07/2014  23:47:00     -146.079      -29.225      -15.376       40.493       26.555       23.906     1639.645      705.160      571.495        1.267        0.146      148.973       16.583        0.012      342.860       18.565      861.238
10/07/2014  23:48:00     -141.256      -29.818      -14.076       47.206       31.878       25.301     2228.392     1016.213      640.122        1.246        0.194      144.369       24.625        0.029      342.911       18.651      861.233
10/07/2014  23:49:00     -123.613      -19.566       -4.890       34.187       44.964       21.156     1168.761     2021.741      447.574        0.966        0.182      125.152       19.435        0.024      342.919       18.666      861.237
10/07/2014  23:50:00     -111.042      -38.033      -10.180       36.772       28.597       20.674     1352.179      817.777      427.394        0.824        0.130      117.374       16.840        0.021      342.849       18.547      861.253
10/07/2014  23:51:00     -131.725      -90.386        2.351       53.960       40.646       29.137     2911.679     1652.070      848.963        1.547        0.271      159.754       26.346        0.027      342.817       18.492      861.271
10/07/2014  23:52:00     -178.451     -157.725       -2.423       99.916       73.034       45.450     9983.226     5333.931     2065.690        3.705        0.869      238.163       57.091        0.057      342.586       18.097      861.269
10/07/2014  23:53:00     -165.371      -59.688       -8.312       58.408       56.322       33.778     3411.546     3172.211     1140.924        1.935        0.386      175.813       30.650        0.030      342.546       18.030      861.270
10/07/2014  23:54:00     -159.374      -86.306       -0.225      110.924       80.362       53.485    12304.070     6458.051     2860.651        2.723        1.081      181.243       60.297        0.111      342.781       18.427      861.262
10/07/2014  23:55:00     -121.660     -100.208        6.840       84.908       82.989       40.302     7209.291     6887.167     1624.262        2.030        0.786      157.615       49.325        0.098      342.801       18.464      861.270
10/07/2014  23:56:00     -145.043      -64.378       -5.237       72.053       56.352       32.996     5191.595     3175.603     1088.723        1.733        0.473      158.689       35.176        0.049      342.723       18.331      861.269
10/07/2014  23:57:00     -146.739      -88.801        3.721       91.354       53.364       37.434     8345.630     2847.685     1401.309        2.101        0.630      171.517       43.411        0.064      342.916       18.658      861.267
10/07/2014  23:58:00     -160.815      -55.837       -6.658       68.747       58.788       31.518     4726.210     3456.032      993.368        1.910        0.459      170.233       31.549        0.034      342.973       18.757      861.286
10/07/2014  23:59:00     -120.401      -49.760        1.351       60.857       40.012       34.102     3703.569     1600.988     1162.976        1.172        0.323      130.278       30.432        0.055      342.862       18.568      861.289
